<?xml version='1.0' encoding='UTF-8'?><gpx version="1.1" creator="JPX - https://github.com/jenetics/jpx" xmlns="http://www.topografix.com/GPX/1/1"><trk><trkseg><trkpt lat="44.3174889236485" lon="8.47456712647185"><ele>37.0</ele><time>2026-04-03T14:03:18.002Z</time></trkpt><trkpt lat="44.317488309463315" lon="8.474469866852983"><ele>37.0</ele><time>2026-04-03T14:03:19.002Z</time></trkpt><trkpt lat="44.31749267577802" lon="8.474358818384141"><ele>37.0</ele><time>2026-04-03T14:03:20.002Z</time></trkpt><trkpt lat="44.317504544375225" lon="8.474223092942959"><ele>37.0</ele><time>2026-04-03T14:03:21.002Z</time></trkpt><trkpt lat="44.31749205613511" lon="8.474076106705741"><ele>37.0</ele><time>2026-04-03T14:03:22.001Z</time></trkpt><trkpt lat="44.317494255333536" lon="8.473927232783721"><ele>37.0</ele><time>2026-04-03T14:03:23.001Z</time></trkpt><trkpt lat="44.31749542519119" lon="8.473785187735182"><ele>37.0</ele><time>2026-04-03T14:03:24.001Z</time></trkpt><trkpt lat="44.31748738193181" lon="8.473639865193629"><ele>37.0</ele><time>2026-04-03T14:03:25.001Z</time></trkpt><trkpt lat="44.317487312559926" lon="8.47347567309243"><ele>37.0</ele><time>2026-04-03T14:03:26.001Z</time></trkpt><trkpt lat="44.31746186686669" lon="8.473312314111777"><ele>37.0</ele><time>2026-04-03T14:03:27.001Z</time></trkpt><trkpt lat="44.317450808748035" lon="8.47313961986114"><ele>37.0</ele><time>2026-04-03T14:03:28.001Z</time></trkpt><trkpt lat="44.31742331361716" lon="8.472999959544284"><ele>37.0</ele><time>2026-04-03T14:03:29Z</time></trkpt><trkpt lat="44.31740568622117" lon="8.472897468471398"><ele>37.0</ele><time>2026-04-03T14:03:30Z</time></trkpt><trkpt lat="44.317452609421146" lon="8.472759930371394"><ele>37.0</ele><time>2026-04-03T14:03:32Z</time></trkpt><trkpt lat="44.31751475270545" lon="8.472716933919154"><ele>37.0</ele><time>2026-04-03T14:03:33Z</time></trkpt><trkpt lat="44.317596115889316" lon="8.47271911222107"><ele>37.0</ele><time>2026-04-03T14:03:34Z</time></trkpt><trkpt lat="44.317625001918664" lon="8.472850055816025"><ele>37.0</ele><time>2026-04-03T14:03:35Z</time></trkpt><trkpt lat="44.317667625929985" lon="8.47295017984155"><ele>37.0</ele><time>2026-04-03T14:03:37Z</time></trkpt><trkpt lat="44.31770629720348" lon="8.473077386874197"><ele>37.0</ele><time>2026-04-03T14:03:38Z</time></trkpt><trkpt lat="44.317724312896694" lon="8.473225910307368"><ele>37.0</ele><time>2026-04-03T14:03:39Z</time></trkpt><trkpt lat="44.31774621501659" lon="8.473386899185885"><ele>37.0</ele><time>2026-04-03T14:03:40Z</time></trkpt><trkpt lat="44.31776547128819" lon="8.473548041192757"><ele>37.0</ele><time>2026-04-03T14:03:41Z</time></trkpt><trkpt lat="44.3177925183043" lon="8.473715991175705"><ele>37.0</ele><time>2026-04-03T14:03:42Z</time></trkpt><trkpt lat="44.317822376622495" lon="8.4738870639512"><ele>37.0</ele><time>2026-04-03T14:03:43Z</time></trkpt><trkpt lat="44.31784646142763" lon="8.474038196207081"><ele>37.0</ele><time>2026-04-03T14:03:43.999Z</time></trkpt><trkpt lat="44.317829558670574" lon="8.47420750498015"><ele>37.0</ele><time>2026-04-03T14:03:44.999Z</time></trkpt><trkpt lat="44.31783371088655" lon="8.474391069181221"><ele>37.0</ele><time>2026-04-03T14:03:45.999Z</time></trkpt><trkpt lat="44.31782519646916" lon="8.474556186444032"><ele>37.0</ele><time>2026-04-03T14:03:46.999Z</time></trkpt><trkpt lat="44.31781903658518" lon="8.474678208543654"><ele>37.0</ele><time>2026-04-03T14:03:47.999Z</time></trkpt><trkpt lat="44.3178224676137" lon="8.474797478611254"><ele>37.0</ele><time>2026-04-03T14:03:49.999Z</time></trkpt><trkpt lat="44.31787712018594" lon="8.474844770790073"><ele>36.800000000000004</ele><time>2026-04-03T14:03:51.999Z</time></trkpt><trkpt lat="44.31803997563881" lon="8.474752139840838"><ele>36.6</ele><time>2026-04-03T14:03:53.999Z</time></trkpt><trkpt lat="44.31810635879982" lon="8.474715312741232"><ele>36.400000000000006</ele><time>2026-04-03T14:03:54.999Z</time></trkpt><trkpt lat="44.31818342087146" lon="8.474711058306195"><ele>36.2</ele><time>2026-04-03T14:03:55.999Z</time></trkpt><trkpt lat="44.31825928326676" lon="8.474794930867407"><ele>36.0</ele><time>2026-04-03T14:03:56.999Z</time></trkpt><trkpt lat="44.318307924697216" lon="8.474924782089309"><ele>38.8</ele><time>2026-04-03T14:03:57.999Z</time></trkpt><trkpt lat="44.318305492156384" lon="8.475059233386038"><ele>41.6</ele><time>2026-04-03T14:03:58.999Z</time></trkpt><trkpt lat="44.31829317619186" lon="8.47519117480543"><ele>44.4</ele><time>2026-04-03T14:03:59.999Z</time></trkpt><trkpt lat="44.31827906702827" lon="8.47531175927862"><ele>47.2</ele><time>2026-04-03T14:04:00.999Z</time></trkpt><trkpt lat="44.318254200016135" lon="8.475529833321689"><ele>50.0</ele><time>2026-04-03T14:04:01.999Z</time></trkpt><trkpt lat="44.31819313860168" lon="8.475706283888087"><ele>50.0</ele><time>2026-04-03T14:04:02.999Z</time></trkpt><trkpt lat="44.31816576235993" lon="8.475877500433349"><ele>50.0</ele><time>2026-04-03T14:04:03.999Z</time></trkpt><trkpt lat="44.31814823503937" lon="8.47603471354119"><ele>50.0</ele><time>2026-04-03T14:04:04.999Z</time></trkpt><trkpt lat="44.318137715345806" lon="8.476187901514708"><ele>50.0</ele><time>2026-04-03T14:04:05.999Z</time></trkpt><trkpt lat="44.318137050196675" lon="8.476322056293329"><ele>50.0</ele><time>2026-04-03T14:04:06.999Z</time></trkpt><trkpt lat="44.31812350546479" lon="8.476450883416339"><ele>51.4</ele><time>2026-04-03T14:04:07.999Z</time></trkpt><trkpt lat="44.31813384203954" lon="8.476564959987428"><ele>52.8</ele><time>2026-04-03T14:04:08.999Z</time></trkpt><trkpt lat="44.31813245973379" lon="8.476663156383667"><ele>54.2</ele><time>2026-04-03T14:04:10.999Z</time></trkpt><trkpt lat="44.31826633090842" lon="8.476582431252618"><ele>55.6</ele><time>2026-04-03T14:04:12.999Z</time></trkpt><trkpt lat="44.318336379661915" lon="8.476558355925377"><ele>57.0</ele><time>2026-04-03T14:04:13.999Z</time></trkpt><trkpt lat="44.318419351990215" lon="8.476544315368812"><ele>57.0</ele><time>2026-04-03T14:04:14.999Z</time></trkpt><trkpt lat="44.318518947378244" lon="8.476531338273928"><ele>57.0</ele><time>2026-04-03T14:04:15.999Z</time></trkpt><trkpt lat="44.318625250965795" lon="8.47651431034439"><ele>57.0</ele><time>2026-04-03T14:04:16.999Z</time></trkpt><trkpt lat="44.31870591422402" lon="8.476493585970774"><ele>57.0</ele><time>2026-04-03T14:04:17.999Z</time></trkpt><trkpt lat="44.31878563414301" lon="8.476491075812268"><ele>57.0</ele><time>2026-04-03T14:04:18.999Z</time></trkpt><trkpt lat="44.31886434781675" lon="8.476458306195923"><ele>57.8</ele><time>2026-04-03T14:04:19.999Z</time></trkpt><trkpt lat="44.31896931896338" lon="8.476429578155532"><ele>58.6</ele><time>2026-04-03T14:04:20.999Z</time></trkpt><trkpt lat="44.319067173075176" lon="8.47637948469375"><ele>59.39999999999999</ele><time>2026-04-03T14:04:21.999Z</time></trkpt><trkpt lat="44.319129382246906" lon="8.4763342478368"><ele>60.199999999999996</ele><time>2026-04-03T14:04:22.999Z</time></trkpt><trkpt lat="44.31922058521078" lon="8.476222186723643"><ele>61.0</ele><time>2026-04-03T14:04:24.999Z</time></trkpt><trkpt lat="44.31924299276113" lon="8.476071161944537"><ele>58.8</ele><time>2026-04-03T14:04:25.999Z</time></trkpt><trkpt lat="44.319242599877924" lon="8.475930725702021"><ele>56.599999999999994</ele><time>2026-04-03T14:04:26.999Z</time></trkpt><trkpt lat="44.3192405676887" lon="8.47580408070963"><ele>54.4</ele><time>2026-04-03T14:04:27.999Z</time></trkpt><trkpt lat="44.31924486640447" lon="8.475680049744552"><ele>52.2</ele><time>2026-04-03T14:04:28.999Z</time></trkpt><trkpt lat="44.31922673328958" lon="8.475557597127116"><ele>50.0</ele><time>2026-04-03T14:04:29.999Z</time></trkpt><trkpt lat="44.319168022599236" lon="8.47544669727553"><ele>49.0</ele><time>2026-04-03T14:04:30.999Z</time></trkpt><trkpt lat="44.3191344479014" lon="8.475310262958274"><ele>48.0</ele><time>2026-04-03T14:04:31.999Z</time></trkpt><trkpt lat="44.31909522699017" lon="8.475182895591471"><ele>47.0</ele><time>2026-04-03T14:04:32.999Z</time></trkpt><trkpt lat="44.3190644681977" lon="8.4750365561842"><ele>46.0</ele><time>2026-04-03T14:04:33.999Z</time></trkpt><trkpt lat="44.31904156584125" lon="8.474857205944293"><ele>45.0</ele><time>2026-04-03T14:04:34.999Z</time></trkpt><trkpt lat="44.31903131078619" lon="8.474648559638021"><ele>42.0</ele><time>2026-04-03T14:04:35.999Z</time></trkpt><trkpt lat="44.31901976768714" lon="8.474406633181687"><ele>39.0</ele><time>2026-04-03T14:04:36.999Z</time></trkpt><trkpt lat="44.31900659105325" lon="8.47414841719696"><ele>36.0</ele><time>2026-04-03T14:04:37.999Z</time></trkpt><trkpt lat="44.3189988492282" lon="8.473872405829308"><ele>33.333333333333336</ele><time>2026-04-03T14:04:38.999Z</time></trkpt><trkpt lat="44.31898009930739" lon="8.47358116055044"><ele>30.666666666666668</ele><time>2026-04-03T14:04:39.999Z</time></trkpt><trkpt lat="44.31897277598748" lon="8.473285360336652"><ele>28.0</ele><time>2026-04-03T14:04:40.999Z</time></trkpt><trkpt lat="44.31896288846647" lon="8.472991968626589"><ele>26.666666666666668</ele><time>2026-04-03T14:04:41.999Z</time></trkpt><trkpt lat="44.31897746330519" lon="8.472753566889937"><ele>25.333333333333336</ele><time>2026-04-03T14:04:42.999Z</time></trkpt><trkpt lat="44.31899639979015" lon="8.472536547588668"><ele>24.0</ele><time>2026-04-03T14:04:43.999Z</time></trkpt><trkpt lat="44.319021854623" lon="8.47236042100773"><ele>24.0</ele><time>2026-04-03T14:04:44.999Z</time></trkpt><trkpt lat="44.31905621317932" lon="8.47219745229103"><ele>24.0</ele><time>2026-04-03T14:04:45.999Z</time></trkpt><trkpt lat="44.319094722883236" lon="8.47207805978968"><ele>24.0</ele><time>2026-04-03T14:04:46.999Z</time></trkpt><trkpt lat="44.31912030851116" lon="8.471982379117087"><ele>24.0</ele><time>2026-04-03T14:04:47.999Z</time></trkpt><trkpt lat="44.319143261342305" lon="8.471895084965174"><ele>24.0</ele><time>2026-04-03T14:04:48.999Z</time></trkpt><trkpt lat="44.31914976677078" lon="8.471714105527393"><ele>23.833333333333332</ele><time>2026-04-03T14:04:50.999Z</time></trkpt><trkpt lat="44.31916374884455" lon="8.471601283981872"><ele>23.666666666666668</ele><time>2026-04-03T14:04:51.999Z</time></trkpt><trkpt lat="44.31916626659984" lon="8.471470710791008"><ele>23.5</ele><time>2026-04-03T14:04:52.999Z</time></trkpt><trkpt lat="44.319154856945836" lon="8.471361440184182"><ele>23.333333333333336</ele><time>2026-04-03T14:04:53.999Z</time></trkpt><trkpt lat="44.319170567613796" lon="8.471265897309387"><ele>23.166666666666668</ele><time>2026-04-03T14:04:54.999Z</time></trkpt><trkpt lat="44.31918525850799" lon="8.47114376772551"><ele>23.0</ele><time>2026-04-03T14:04:56.999Z</time></trkpt><trkpt lat="44.319220205349744" lon="8.471045391954544"><ele>23.0</ele><time>2026-04-03T14:04:57.999Z</time></trkpt><trkpt lat="44.319309267140106" lon="8.470993109939139"><ele>23.0</ele><time>2026-04-03T14:04:58.999Z</time></trkpt><trkpt lat="44.31938868180546" lon="8.470967581825345"><ele>23.0</ele><time>2026-04-03T14:04:59.999Z</time></trkpt><trkpt lat="44.31946582888908" lon="8.470936513719643"><ele>23.0</ele><time>2026-04-03T14:05:01Z</time></trkpt><trkpt lat="44.31953456752403" lon="8.470859092375324"><ele>23.0</ele><time>2026-04-03T14:05:02Z</time></trkpt><trkpt lat="44.319603149384236" lon="8.470799779202574"><ele>23.0</ele><time>2026-04-03T14:05:03Z</time></trkpt><trkpt lat="44.31981593981328" lon="8.47069088874874"><ele>23.0</ele><time>2026-04-03T14:05:04Z</time></trkpt><trkpt lat="44.319926192952636" lon="8.470619555554233"><ele>23.0</ele><time>2026-04-03T14:05:05Z</time></trkpt><trkpt lat="44.32003425554297" lon="8.47056516739765"><ele>23.0</ele><time>2026-04-03T14:05:06Z</time></trkpt><trkpt lat="44.32011163685202" lon="8.470506482062946"><ele>23.0</ele><time>2026-04-03T14:05:07Z</time></trkpt><trkpt lat="44.32019706192564" lon="8.470476610721748"><ele>23.0</ele><time>2026-04-03T14:05:08Z</time></trkpt><trkpt lat="44.32027167627946" lon="8.470402186555704"><ele>23.333333333333336</ele><time>2026-04-03T14:05:10Z</time></trkpt><trkpt lat="44.32025483325179" lon="8.47026580763044"><ele>23.666666666666668</ele><time>2026-04-03T14:05:12Z</time></trkpt><trkpt lat="44.32021013086965" lon="8.470178124880636"><ele>24.0</ele><time>2026-04-03T14:05:13Z</time></trkpt><trkpt lat="44.32016513286777" lon="8.470075956456213"><ele>24.333333333333336</ele><time>2026-04-03T14:05:14Z</time></trkpt><trkpt lat="44.32013462829622" lon="8.469996897052702"><ele>24.666666666666668</ele><time>2026-04-03T14:05:15Z</time></trkpt><trkpt lat="44.32007017382221" lon="8.46985488619818"><ele>25.0</ele><time>2026-04-03T14:05:17Z</time></trkpt><trkpt lat="44.320002106331614" lon="8.469736566010814"><ele>25.0</ele><time>2026-04-03T14:05:19Z</time></trkpt><trkpt lat="44.31998395378901" lon="8.469644417621804"><ele>25.0</ele><time>2026-04-03T14:05:23Z</time></trkpt><trkpt lat="44.32010565901524" lon="8.469446317514656"><ele>25.0</ele><time>2026-04-03T14:05:29Z</time></trkpt><trkpt lat="44.320228043671776" lon="8.469355648180237"><ele>25.0</ele><time>2026-04-03T14:05:30Z</time></trkpt><trkpt lat="44.320347903437984" lon="8.469274483692509"><ele>24.6</ele><time>2026-04-03T14:05:31Z</time></trkpt><trkpt lat="44.32044882233647" lon="8.469206324763007"><ele>24.2</ele><time>2026-04-03T14:05:32Z</time></trkpt><trkpt lat="44.320560025459336" lon="8.469128924170134"><ele>23.799999999999997</ele><time>2026-04-03T14:05:33Z</time></trkpt><trkpt lat="44.32065803080351" lon="8.469049485870178"><ele>23.4</ele><time>2026-04-03T14:05:34Z</time></trkpt><trkpt lat="44.32074017858529" lon="8.468985635109782"><ele>23.0</ele><time>2026-04-03T14:05:35Z</time></trkpt><trkpt lat="44.32080649994602" lon="8.468934493746904"><ele>22.666666666666668</ele><time>2026-04-03T14:05:36Z</time></trkpt><trkpt lat="44.320862538293085" lon="8.468884332057097"><ele>22.333333333333336</ele><time>2026-04-03T14:05:37Z</time></trkpt><trkpt lat="44.320961715162646" lon="8.468819137274583"><ele>22.0</ele><time>2026-04-03T14:05:39Z</time></trkpt><trkpt lat="44.32102088500878" lon="8.46877467293786"><ele>21.666666666666668</ele><time>2026-04-03T14:05:40Z</time></trkpt><trkpt lat="44.321077646343305" lon="8.468727225267711"><ele>21.333333333333332</ele><time>2026-04-03T14:05:41Z</time></trkpt><trkpt lat="44.32115925184468" lon="8.468610641766483"><ele>21.0</ele><time>2026-04-03T14:05:43Z</time></trkpt><trkpt lat="44.3211954276283" lon="8.468509193087023"><ele>21.0</ele><time>2026-04-03T14:05:44Z</time></trkpt><trkpt lat="44.3212121202724" lon="8.468389711118489"><ele>21.0</ele><time>2026-04-03T14:05:45Z</time></trkpt><trkpt lat="44.32121305834831" lon="8.468257132963497"><ele>21.0</ele><time>2026-04-03T14:05:46Z</time></trkpt><trkpt lat="44.32118672559435" lon="8.468127712470485"><ele>21.0</ele><time>2026-04-03T14:05:47Z</time></trkpt><trkpt lat="44.32114342671751" lon="8.468022581026935"><ele>21.0</ele><time>2026-04-03T14:05:48Z</time></trkpt><trkpt lat="44.32108856031646" lon="8.467927431834195"><ele>21.200000000000003</ele><time>2026-04-03T14:05:49Z</time></trkpt><trkpt lat="44.32103398274508" lon="8.467827876215274"><ele>21.400000000000002</ele><time>2026-04-03T14:05:50Z</time></trkpt><trkpt lat="44.32098237856608" lon="8.467732974405402"><ele>21.6</ele><time>2026-04-03T14:05:51Z</time></trkpt><trkpt lat="44.320929532681525" lon="8.467590175048967"><ele>21.8</ele><time>2026-04-03T14:05:53Z</time></trkpt><trkpt lat="44.3208831549798" lon="8.467487207522643"><ele>22.0</ele><time>2026-04-03T14:05:55Z</time></trkpt><trkpt lat="44.32085156983952" lon="8.467363117117188"><ele>22.0</ele><time>2026-04-03T14:05:57Z</time></trkpt><trkpt lat="44.320808719925175" lon="8.46728217639847"><ele>22.0</ele><time>2026-04-03T14:06:01Z</time></trkpt><trkpt lat="44.320769848900525" lon="8.467175551426521"><ele>22.0</ele><time>2026-04-03T14:06:03Z</time></trkpt><trkpt lat="44.32071808694826" lon="8.466996927578897"><ele>22.0</ele><time>2026-04-03T14:06:05Z</time></trkpt><trkpt lat="44.320687535533764" lon="8.46687754620448"><ele>22.0</ele><time>2026-04-03T14:06:06Z</time></trkpt><trkpt lat="44.32066248304263" lon="8.466737762285462"><ele>22.6</ele><time>2026-04-03T14:06:07Z</time></trkpt><trkpt lat="44.32068940354469" lon="8.466603110165714"><ele>23.200000000000003</ele><time>2026-04-03T14:06:08Z</time></trkpt><trkpt lat="44.320702404241835" lon="8.466471221838386"><ele>23.8</ele><time>2026-04-03T14:06:09Z</time></trkpt><trkpt lat="44.3207203833225" lon="8.466328886947476"><ele>24.4</ele><time>2026-04-03T14:06:10Z</time></trkpt><trkpt lat="44.32071802108424" lon="8.466155348528858"><ele>25.0</ele><time>2026-04-03T14:06:11Z</time></trkpt><trkpt lat="44.32073808272326" lon="8.465984982287265"><ele>25.0</ele><time>2026-04-03T14:06:12Z</time></trkpt><trkpt lat="44.320764856205884" lon="8.465834261276376"><ele>25.0</ele><time>2026-04-03T14:06:13Z</time></trkpt><trkpt lat="44.32078450948719" lon="8.46570387042891"><ele>25.0</ele><time>2026-04-03T14:06:14Z</time></trkpt><trkpt lat="44.320797644074645" lon="8.465591969687953"><ele>25.0</ele><time>2026-04-03T14:06:15Z</time></trkpt><trkpt lat="44.32082309373389" lon="8.465493316306372"><ele>25.0</ele><time>2026-04-03T14:06:16Z</time></trkpt><trkpt lat="44.32088958135499" lon="8.465352567087322"><ele>24.8</ele><time>2026-04-03T14:06:18Z</time></trkpt><trkpt lat="44.32094977761343" lon="8.465247703398603"><ele>24.6</ele><time>2026-04-03T14:06:20Z</time></trkpt><trkpt lat="44.32100876261214" lon="8.465163763889421"><ele>24.4</ele><time>2026-04-03T14:06:22Z</time></trkpt><trkpt lat="44.320990520845456" lon="8.465058595969465"><ele>24.2</ele><time>2026-04-03T14:06:28Z</time></trkpt><trkpt lat="44.32097969689028" lon="8.464949133929137"><ele>24.0</ele><time>2026-04-03T14:06:31Z</time></trkpt><trkpt lat="44.32108976926561" lon="8.464996777079378"><ele>24.0</ele><time>2026-04-03T14:06:32Z</time></trkpt><trkpt lat="44.32098398860937" lon="8.464937036515172"><ele>24.0</ele><time>2026-04-03T14:06:36Z</time></trkpt><trkpt lat="44.32109016149977" lon="8.464995221813096"><ele>24.0</ele><time>2026-04-03T14:06:43Z</time></trkpt><trkpt lat="44.32094187237632" lon="8.464928177733116"><ele>24.0</ele><time>2026-04-03T14:06:48Z</time></trkpt><trkpt lat="44.320965642020006" lon="8.464691501465952"><ele>24.0</ele><time>2026-04-03T14:10:22Z</time></trkpt><trkpt lat="44.320984192485454" lon="8.46459057167793"><ele>24.0</ele><time>2026-04-03T14:10:23Z</time></trkpt><trkpt lat="44.320998684177454" lon="8.464496730381072"><ele>24.0</ele><time>2026-04-03T14:10:24Z</time></trkpt><trkpt lat="44.3209991043187" lon="8.464399945097488"><ele>24.0</ele><time>2026-04-03T14:10:26Z</time></trkpt><trkpt lat="44.32088882487811" lon="8.46452393866602"><ele>24.0</ele><time>2026-04-03T14:10:33Z</time></trkpt><trkpt lat="44.320890541417874" lon="8.464643014671596"><ele>24.0</ele><time>2026-04-03T14:10:34Z</time></trkpt><trkpt lat="44.3208655086763" lon="8.464789199056659"><ele>24.0</ele><time>2026-04-03T14:10:35Z</time></trkpt><trkpt lat="44.320847055365675" lon="8.464968371617761"><ele>24.0</ele><time>2026-04-03T14:10:36Z</time></trkpt><trkpt lat="44.320826081241826" lon="8.465149446957252"><ele>24.0</ele><time>2026-04-03T14:10:37Z</time></trkpt><trkpt lat="44.32080413992739" lon="8.46535099221514"><ele>24.0</ele><time>2026-04-03T14:10:38Z</time></trkpt><trkpt lat="44.320775961661035" lon="8.465567982401682"><ele>24.333333333333336</ele><time>2026-04-03T14:10:39Z</time></trkpt><trkpt lat="44.32074868166765" lon="8.46579511234822"><ele>24.666666666666668</ele><time>2026-04-03T14:10:40Z</time></trkpt><trkpt lat="44.32072172640589" lon="8.466031583938598"><ele>25.0</ele><time>2026-04-03T14:10:41Z</time></trkpt><trkpt lat="44.320695930876504" lon="8.466268040048323"><ele>25.0</ele><time>2026-04-03T14:10:42Z</time></trkpt><trkpt lat="44.32067352799371" lon="8.466474726558232"><ele>25.0</ele><time>2026-04-03T14:10:43Z</time></trkpt><trkpt lat="44.320648792569806" lon="8.466652398299598"><ele>25.0</ele><time>2026-04-03T14:10:44Z</time></trkpt><trkpt lat="44.320632005598775" lon="8.466801035645364"><ele>25.0</ele><time>2026-04-03T14:10:45Z</time></trkpt><trkpt lat="44.32062135033229" lon="8.466911335296954"><ele>25.0</ele><time>2026-04-03T14:10:46Z</time></trkpt><trkpt lat="44.32059294511669" lon="8.467053425482927"><ele>25.0</ele><time>2026-04-03T14:10:51Z</time></trkpt><trkpt lat="44.32057343503184" lon="8.467153849330108"><ele>25.0</ele><time>2026-04-03T14:10:52Z</time></trkpt><trkpt lat="44.320603268835214" lon="8.46728757560964"><ele>25.0</ele><time>2026-04-03T14:10:54Z</time></trkpt><trkpt lat="44.32072615291688" lon="8.46733907160873"><ele>25.0</ele><time>2026-04-03T14:10:56Z</time></trkpt><trkpt lat="44.320859281458375" lon="8.467455873103315"><ele>24.4</ele><time>2026-04-03T14:10:58Z</time></trkpt><trkpt lat="44.320896138076776" lon="8.467570790260396"><ele>23.8</ele><time>2026-04-03T14:10:59Z</time></trkpt><trkpt lat="44.32095110170565" lon="8.467687043575602"><ele>23.200000000000003</ele><time>2026-04-03T14:11:00Z</time></trkpt><trkpt lat="44.32100368454153" lon="8.46784253851713"><ele>22.6</ele><time>2026-04-03T14:11:01Z</time></trkpt><trkpt lat="44.32107114327136" lon="8.467999091012127"><ele>22.0</ele><time>2026-04-03T14:11:02Z</time></trkpt><trkpt lat="44.32114305414636" lon="8.468152295616976"><ele>21.8</ele><time>2026-04-03T14:11:03Z</time></trkpt><trkpt lat="44.32116757026413" lon="8.46827061975489"><ele>21.6</ele><time>2026-04-03T14:11:04Z</time></trkpt><trkpt lat="44.32116798144683" lon="8.468400178671354"><ele>21.400000000000002</ele><time>2026-04-03T14:11:06Z</time></trkpt><trkpt lat="44.321286607824916" lon="8.468453984064348"><ele>21.200000000000003</ele><time>2026-04-03T14:11:09Z</time></trkpt><trkpt lat="44.32132767423525" lon="8.468359667916483"><ele>21.0</ele><time>2026-04-03T14:11:10Z</time></trkpt><trkpt lat="44.32136552471267" lon="8.46824349189445"><ele>21.0</ele><time>2026-04-03T14:11:11Z</time></trkpt><trkpt lat="44.32141517629356" lon="8.468119728913953"><ele>21.0</ele><time>2026-04-03T14:11:12Z</time></trkpt><trkpt lat="44.32147733287282" lon="8.467974755760542"><ele>21.0</ele><time>2026-04-03T14:11:13Z</time></trkpt><trkpt lat="44.32154326804871" lon="8.467829395663129"><ele>21.0</ele><time>2026-04-03T14:11:14Z</time></trkpt><trkpt lat="44.32160770232878" lon="8.467667888180934"><ele>21.0</ele><time>2026-04-03T14:11:15Z</time></trkpt><trkpt lat="44.32168795619216" lon="8.46746719378672"><ele>21.0</ele><time>2026-04-03T14:11:16Z</time></trkpt><trkpt lat="44.3218021881865" lon="8.467302869347796"><ele>21.0</ele><time>2026-04-03T14:11:17Z</time></trkpt><trkpt lat="44.32190542019273" lon="8.467096626622089"><ele>21.0</ele><time>2026-04-03T14:11:18Z</time></trkpt><trkpt lat="44.322000484441844" lon="8.466906439515832"><ele>21.0</ele><time>2026-04-03T14:11:19Z</time></trkpt><trkpt lat="44.32207728521938" lon="8.466746650417116"><ele>21.0</ele><time>2026-04-03T14:11:20Z</time></trkpt><trkpt lat="44.3221493473025" lon="8.466578321856703"><ele>21.0</ele><time>2026-04-03T14:11:21Z</time></trkpt><trkpt lat="44.322198993288445" lon="8.466371063575844"><ele>22.0</ele><time>2026-04-03T14:11:22Z</time></trkpt><trkpt lat="44.32226399869034" lon="8.466181870314607"><ele>23.0</ele><time>2026-04-03T14:11:23Z</time></trkpt><trkpt lat="44.3223294779357" lon="8.465994367539405"><ele>24.0</ele><time>2026-04-03T14:11:24Z</time></trkpt><trkpt lat="44.322397317980005" lon="8.465806439433889"><ele>24.0</ele><time>2026-04-03T14:11:25Z</time></trkpt><trkpt lat="44.32247331099845" lon="8.465628035107553"><ele>24.0</ele><time>2026-04-03T14:11:26Z</time></trkpt><trkpt lat="44.3225471156921" lon="8.465439977584037"><ele>24.0</ele><time>2026-04-03T14:11:27Z</time></trkpt><trkpt lat="44.32262790206496" lon="8.465263013831466"><ele>25.4</ele><time>2026-04-03T14:11:28Z</time></trkpt><trkpt lat="44.322684343910986" lon="8.465095677583207"><ele>26.799999999999997</ele><time>2026-04-03T14:11:29Z</time></trkpt><trkpt lat="44.32274081617337" lon="8.4649624472743"><ele>28.200000000000003</ele><time>2026-04-03T14:11:30Z</time></trkpt><trkpt lat="44.32279788258332" lon="8.464862096050664"><ele>29.6</ele><time>2026-04-03T14:11:31Z</time></trkpt><trkpt lat="44.32285812685609" lon="8.464775083419177"><ele>31.0</ele><time>2026-04-03T14:11:32Z</time></trkpt><trkpt lat="44.322918069101156" lon="8.464707694754116"><ele>31.000000000000004</ele><time>2026-04-03T14:11:33Z</time></trkpt><trkpt lat="44.322983892580694" lon="8.464648848032782"><ele>31.0</ele><time>2026-04-03T14:11:34Z</time></trkpt><trkpt lat="44.32306048399067" lon="8.464610420007919"><ele>31.0</ele><time>2026-04-03T14:11:35Z</time></trkpt><trkpt lat="44.3231396286999" lon="8.464576878946673"><ele>31.0</ele><time>2026-04-03T14:11:36Z</time></trkpt><trkpt lat="44.32319998004809" lon="8.464549956037219"><ele>31.000000000000004</ele><time>2026-04-03T14:11:37Z</time></trkpt><trkpt lat="44.32325620625514" lon="8.464460064817937"><ele>31.0</ele><time>2026-04-03T14:11:39Z</time></trkpt><trkpt lat="44.32333951274947" lon="8.464613883999078"><ele>30.166666666666668</ele><time>2026-04-03T14:11:40Z</time></trkpt><trkpt lat="44.32336699423105" lon="8.464694952671072"><ele>29.333333333333336</ele><time>2026-04-03T14:11:41Z</time></trkpt><trkpt lat="44.3233927412914" lon="8.464794777909896"><ele>28.5</ele><time>2026-04-03T14:11:42Z</time></trkpt><trkpt lat="44.323426358650146" lon="8.464896338636214"><ele>27.666666666666664</ele><time>2026-04-03T14:11:43Z</time></trkpt><trkpt lat="44.32348951009755" lon="8.464987612290031"><ele>26.833333333333332</ele><time>2026-04-03T14:11:44Z</time></trkpt><trkpt lat="44.32357867523293" lon="8.465061968707069"><ele>26.0</ele><time>2026-04-03T14:11:45Z</time></trkpt><trkpt lat="44.32368481155092" lon="8.46512329193893"><ele>26.0</ele><time>2026-04-03T14:11:46Z</time></trkpt><trkpt lat="44.32380474993932" lon="8.465180303460036"><ele>26.0</ele><time>2026-04-03T14:11:47Z</time></trkpt><trkpt lat="44.323916890797655" lon="8.465258361308823"><ele>26.0</ele><time>2026-04-03T14:11:48Z</time></trkpt><trkpt lat="44.32399765813744" lon="8.465359983667234"><ele>26.0</ele><time>2026-04-03T14:11:49Z</time></trkpt><trkpt lat="44.3240323730236" lon="8.465514764636584"><ele>28.5</ele><time>2026-04-03T14:11:50Z</time></trkpt><trkpt lat="44.32411126702794" lon="8.465638575126658"><ele>31.0</ele><time>2026-04-03T14:11:51Z</time></trkpt><trkpt lat="44.32417872071217" lon="8.465786210813231"><ele>33.5</ele><time>2026-04-03T14:11:52Z</time></trkpt><trkpt lat="44.32425171980183" lon="8.465938502199434"><ele>36.0</ele><time>2026-04-03T14:11:53Z</time></trkpt><trkpt lat="44.32432685660271" lon="8.466081896051527"><ele>36.0</ele><time>2026-04-03T14:11:54Z</time></trkpt><trkpt lat="44.32438487666659" lon="8.466195930503787"><ele>36.0</ele><time>2026-04-03T14:11:55Z</time></trkpt><trkpt lat="44.32445148229287" lon="8.466271594635765"><ele>36.0</ele><time>2026-04-03T14:11:56Z</time></trkpt><trkpt lat="44.32451682540725" lon="8.466317761605895"><ele>36.0</ele><time>2026-04-03T14:11:57Z</time></trkpt><trkpt lat="44.324640772258164" lon="8.466330835596038"><ele>36.0</ele><time>2026-04-03T14:11:59Z</time></trkpt><trkpt lat="44.32472090577682" lon="8.46630389275732"><ele>40.4</ele><time>2026-04-03T14:12:01Z</time></trkpt><trkpt lat="44.32480593592003" lon="8.46631331413274"><ele>44.8</ele><time>2026-04-03T14:12:03Z</time></trkpt><trkpt lat="44.32485271685427" lon="8.466374553477555"><ele>49.199999999999996</ele><time>2026-04-03T14:12:08Z</time></trkpt><trkpt lat="44.324871016040284" lon="8.46649400949303"><ele>53.6</ele><time>2026-04-03T14:12:10Z</time></trkpt><trkpt lat="44.3249320298338" lon="8.466621869951048"><ele>58.0</ele><time>2026-04-03T14:12:13Z</time></trkpt><trkpt lat="44.32504169119284" lon="8.466631267809793"><ele>57.99999999999999</ele><time>2026-04-03T14:12:15Z</time></trkpt><trkpt lat="44.32512261062171" lon="8.466621958079665"><ele>58.0</ele><time>2026-04-03T14:12:17Z</time></trkpt><trkpt lat="44.32512413979053" lon="8.466731410478095"><ele>58.0</ele><time>2026-04-03T14:12:19Z</time></trkpt><trkpt lat="44.325059870039624" lon="8.466740725483486"><ele>58.0</ele><time>2026-04-03T14:12:20Z</time></trkpt><trkpt lat="44.32503412720314" lon="8.466888060380608"><ele>57.99999999999999</ele><time>2026-04-03T14:12:22Z</time></trkpt><trkpt lat="44.3250895669896" lon="8.466951701117129"><ele>58.0</ele><time>2026-04-03T14:12:23Z</time></trkpt><trkpt lat="44.32513877883053" lon="8.46701806361017"><ele>57.99999999999999</ele><time>2026-04-03T14:12:24Z</time></trkpt><trkpt lat="44.325179165530685" lon="8.467095119543698"><ele>58.0</ele><time>2026-04-03T14:12:25Z</time></trkpt><trkpt lat="44.32522237188415" lon="8.467186547003708"><ele>58.0</ele><time>2026-04-03T14:12:26Z</time></trkpt><trkpt lat="44.325271627467906" lon="8.467274147955965"><ele>58.0</ele><time>2026-04-03T14:12:27Z</time></trkpt><trkpt lat="44.32532422241325" lon="8.467365534609204"><ele>57.99999999999999</ele><time>2026-04-03T14:12:28Z</time></trkpt><trkpt lat="44.32539027888374" lon="8.467433574933178"><ele>58.0</ele><time>2026-04-03T14:12:29Z</time></trkpt><trkpt lat="44.32547110818019" lon="8.467484802796477"><ele>59.99999999999999</ele><time>2026-04-03T14:12:30Z</time></trkpt><trkpt lat="44.325559091099144" lon="8.467512275544646"><ele>62.0</ele><time>2026-04-03T14:12:31Z</time></trkpt><trkpt lat="44.32565682790346" lon="8.467532740620973"><ele>64.0</ele><time>2026-04-03T14:12:32Z</time></trkpt><trkpt lat="44.325743218371194" lon="8.467590653313612"><ele>66.0</ele><time>2026-04-03T14:12:33Z</time></trkpt><trkpt lat="44.32581112402046" lon="8.467609299706796"><ele>68.0</ele><time>2026-04-03T14:12:34Z</time></trkpt><trkpt lat="44.32582392268343" lon="8.467712825928354"><ele>70.0</ele><time>2026-04-03T14:12:37Z</time></trkpt><trkpt lat="44.32572993725795" lon="8.467660469771337"><ele>70.0</ele><time>2026-04-03T14:12:39Z</time></trkpt><trkpt lat="44.32565054243051" lon="8.467667941637323"><ele>70.0</ele><time>2026-04-03T14:12:40Z</time></trkpt><trkpt lat="44.325566107396725" lon="8.467654178513419"><ele>70.0</ele><time>2026-04-03T14:12:41Z</time></trkpt><trkpt lat="44.32547461637053" lon="8.467671459427935"><ele>70.0</ele><time>2026-04-03T14:12:42Z</time></trkpt><trkpt lat="44.32537797137367" lon="8.46767508928395"><ele>70.0</ele><time>2026-04-03T14:12:43Z</time></trkpt><trkpt lat="44.32527542436623" lon="8.467684568042104"><ele>70.4</ele><time>2026-04-03T14:12:44Z</time></trkpt><trkpt lat="44.325163907330754" lon="8.467691848763776"><ele>70.8</ele><time>2026-04-03T14:12:45Z</time></trkpt><trkpt lat="44.32506680316794" lon="8.46770011847189"><ele>71.2</ele><time>2026-04-03T14:12:46Z</time></trkpt><trkpt lat="44.324948001597946" lon="8.467752173174903"><ele>71.6</ele><time>2026-04-03T14:12:48Z</time></trkpt><trkpt lat="44.32488495104277" lon="8.467805938025611"><ele>72.0</ele><time>2026-04-03T14:12:49Z</time></trkpt><trkpt lat="44.324821641998334" lon="8.4678530592818"><ele>74.33333333333333</ele><time>2026-04-03T14:12:50Z</time></trkpt><trkpt lat="44.324812332089756" lon="8.467962210940948"><ele>76.66666666666667</ele><time>2026-04-03T14:12:51Z</time></trkpt><trkpt lat="44.32482736500674" lon="8.468061699995907"><ele>79.0</ele><time>2026-04-03T14:12:52Z</time></trkpt><trkpt lat="44.32491898213035" lon="8.468112462888445"><ele>81.33333333333334</ele><time>2026-04-03T14:12:54Z</time></trkpt><trkpt lat="44.325041618624404" lon="8.468073826058909"><ele>83.66666666666667</ele><time>2026-04-03T14:12:56Z</time></trkpt><trkpt lat="44.32510617245808" lon="8.468037140258776"><ele>86.0</ele><time>2026-04-03T14:12:57Z</time></trkpt><trkpt lat="44.32518246862611" lon="8.468094039712888"><ele>86.0</ele><time>2026-04-03T14:12:58Z</time></trkpt><trkpt lat="44.32525909209249" lon="8.468158208264194"><ele>86.0</ele><time>2026-04-03T14:12:59Z</time></trkpt><trkpt lat="44.32534289764654" lon="8.468205589825343"><ele>86.0</ele><time>2026-04-03T14:13:00Z</time></trkpt><trkpt lat="44.32542524254606" lon="8.468269664785641"><ele>86.0</ele><time>2026-04-03T14:13:01Z</time></trkpt><trkpt lat="44.32551239310042" lon="8.46832340846734"><ele>86.0</ele><time>2026-04-03T14:13:02Z</time></trkpt><trkpt lat="44.32559617041328" lon="8.468358926286195"><ele>86.0</ele><time>2026-04-03T14:13:03Z</time></trkpt><trkpt lat="44.32568029472482" lon="8.468425006829037"><ele>86.0</ele><time>2026-04-03T14:13:05Z</time></trkpt><trkpt lat="44.32563046906369" lon="8.468518495595966"><ele>86.0</ele><time>2026-04-03T14:13:06.999Z</time></trkpt><trkpt lat="44.325563262458644" lon="8.468476508436106"><ele>86.0</ele><time>2026-04-03T14:13:07.999Z</time></trkpt><trkpt lat="44.32543258943849" lon="8.468559067918871"><ele>86.0</ele><time>2026-04-03T14:13:09.999Z</time></trkpt><trkpt lat="44.32540568726932" lon="8.468670205471897"><ele>86.0</ele><time>2026-04-03T14:13:10.999Z</time></trkpt><trkpt lat="44.3254469690844" lon="8.468766306831645"><ele>86.0</ele><time>2026-04-03T14:13:11.999Z</time></trkpt><trkpt lat="44.32556748220013" lon="8.468840392659702"><ele>86.0</ele><time>2026-04-03T14:13:13.999Z</time></trkpt><trkpt lat="44.32564685997715" lon="8.468865533488193"><ele>86.0</ele><time>2026-04-03T14:13:14.999Z</time></trkpt><trkpt lat="44.32572385933905" lon="8.46891392475873"><ele>86.0</ele><time>2026-04-03T14:13:15.999Z</time></trkpt><trkpt lat="44.32580876002728" lon="8.468990995428335"><ele>92.0</ele><time>2026-04-03T14:13:16.999Z</time></trkpt><trkpt lat="44.325891102880504" lon="8.469077716429736"><ele>98.0</ele><time>2026-04-03T14:13:17.999Z</time></trkpt><trkpt lat="44.32597563667007" lon="8.469163562811318"><ele>104.0</ele><time>2026-04-03T14:13:18.999Z</time></trkpt><trkpt lat="44.3260436616184" lon="8.469239660982742"><ele>110.0</ele><time>2026-04-03T14:13:19.999Z</time></trkpt><trkpt lat="44.32609470724916" lon="8.469300673541442"><ele>116.0</ele><time>2026-04-03T14:13:20.999Z</time></trkpt><trkpt lat="44.32616264474122" lon="8.469417094560338"><ele>115.99999999999999</ele><time>2026-04-03T14:13:22.999Z</time></trkpt><trkpt lat="44.32618400118445" lon="8.46950194339125"><ele>116.0</ele><time>2026-04-03T14:13:23.999Z</time></trkpt><trkpt lat="44.3261824636652" lon="8.46960168718198"><ele>116.0</ele><time>2026-04-03T14:13:24.999Z</time></trkpt><trkpt lat="44.32619151331921" lon="8.469704494983834"><ele>116.0</ele><time>2026-04-03T14:13:25.999Z</time></trkpt><trkpt lat="44.32623469131643" lon="8.469809476343736"><ele>115.99999999999999</ele><time>2026-04-03T14:13:26.999Z</time></trkpt><trkpt lat="44.326305130466416" lon="8.469926471250613"><ele>116.0</ele><time>2026-04-03T14:13:27.999Z</time></trkpt><trkpt lat="44.326377496008654" lon="8.47006102794824"><ele>119.4</ele><time>2026-04-03T14:13:28.999Z</time></trkpt><trkpt lat="44.32641505787721" lon="8.470234006720855"><ele>122.8</ele><time>2026-04-03T14:13:29.999Z</time></trkpt><trkpt lat="44.32645669533642" lon="8.470398828788746"><ele>126.20000000000002</ele><time>2026-04-03T14:13:30.999Z</time></trkpt><trkpt lat="44.326498019840464" lon="8.470533847176458"><ele>129.6</ele><time>2026-04-03T14:13:31.999Z</time></trkpt><trkpt lat="44.326517383615894" lon="8.470628823401306"><ele>133.0</ele><time>2026-04-03T14:13:32.999Z</time></trkpt><trkpt lat="44.3265564568787" lon="8.470700850379835"><ele>134.83333333333334</ele><time>2026-04-03T14:13:33.999Z</time></trkpt><trkpt lat="44.32662090022925" lon="8.470746487775775"><ele>136.66666666666669</ele><time>2026-04-03T14:13:34.999Z</time></trkpt><trkpt lat="44.32670929500972" lon="8.47075983605315"><ele>138.5</ele><time>2026-04-03T14:13:35.999Z</time></trkpt><trkpt lat="44.326793659947064" lon="8.47074916216718"><ele>140.33333333333334</ele><time>2026-04-03T14:13:36.999Z</time></trkpt><trkpt lat="44.326881882834" lon="8.47077335672859"><ele>142.16666666666666</ele><time>2026-04-03T14:13:37.999Z</time></trkpt><trkpt lat="44.32695597977686" lon="8.470797381757992"><ele>144.0</ele><time>2026-04-03T14:13:38.999Z</time></trkpt><trkpt lat="44.32704059706855" lon="8.470821136556536"><ele>144.0</ele><time>2026-04-03T14:13:39.999Z</time></trkpt><trkpt lat="44.32710731403956" lon="8.470879978612766"><ele>144.0</ele><time>2026-04-03T14:13:40.999Z</time></trkpt><trkpt lat="44.327158826444325" lon="8.471010293642726"><ele>144.0</ele><time>2026-04-03T14:13:42.999Z</time></trkpt><trkpt lat="44.327200011563725" lon="8.471079380487874"><ele>144.0</ele><time>2026-04-03T14:13:43.999Z</time></trkpt><trkpt lat="44.32722765234734" lon="8.471173416254992"><ele>144.0</ele><time>2026-04-03T14:13:44.999Z</time></trkpt><trkpt lat="44.32728377859608" lon="8.47124734420654"><ele>144.0</ele><time>2026-04-03T14:13:45.999Z</time></trkpt><trkpt lat="44.327345578453325" lon="8.471305287720927"><ele>144.83333333333334</ele><time>2026-04-03T14:13:46.999Z</time></trkpt><trkpt lat="44.32741711424215" lon="8.47134213387653"><ele>145.66666666666666</ele><time>2026-04-03T14:13:47.999Z</time></trkpt><trkpt lat="44.32749531048525" lon="8.471383292571597"><ele>146.5</ele><time>2026-04-03T14:13:48.999Z</time></trkpt><trkpt lat="44.32757464515269" lon="8.471429102450186"><ele>147.33333333333331</ele><time>2026-04-03T14:13:49.999Z</time></trkpt><trkpt lat="44.32764774147618" lon="8.471512325433666"><ele>148.16666666666666</ele><time>2026-04-03T14:13:50.999Z</time></trkpt><trkpt lat="44.3277200332478" lon="8.471620173426295"><ele>149.0</ele><time>2026-04-03T14:13:51.999Z</time></trkpt><trkpt lat="44.32780851005557" lon="8.471733099325657"><ele>149.0</ele><time>2026-04-03T14:13:52.999Z</time></trkpt><trkpt lat="44.32792255930365" lon="8.471830723056836"><ele>149.0</ele><time>2026-04-03T14:13:53.999Z</time></trkpt><trkpt lat="44.32804745183433" lon="8.471894957780275"><ele>149.0</ele><time>2026-04-03T14:13:54.999Z</time></trkpt><trkpt lat="44.32818568701066" lon="8.471940321908612"><ele>149.0</ele><time>2026-04-03T14:13:55.999Z</time></trkpt><trkpt lat="44.32832973256914" lon="8.471967581115845"><ele>152.5</ele><time>2026-04-03T14:13:56.999Z</time></trkpt><trkpt lat="44.32847262405765" lon="8.471960844144906"><ele>156.0</ele><time>2026-04-03T14:13:57.999Z</time></trkpt><trkpt lat="44.32858543885956" lon="8.471943998613934"><ele>159.5</ele><time>2026-04-03T14:13:58.999Z</time></trkpt><trkpt lat="44.328697360220964" lon="8.47195036618622"><ele>163.0</ele><time>2026-04-03T14:13:59.999Z</time></trkpt><trkpt lat="44.32879561508493" lon="8.471943004577968"><ele>163.0</ele><time>2026-04-03T14:14:00.999Z</time></trkpt><trkpt lat="44.32888768789302" lon="8.471909018771344"><ele>163.0</ele><time>2026-04-03T14:14:01.999Z</time></trkpt><trkpt lat="44.328981656277165" lon="8.471843340009729"><ele>163.0</ele><time>2026-04-03T14:14:02.999Z</time></trkpt><trkpt lat="44.32908164444363" lon="8.471793539178387"><ele>163.0</ele><time>2026-04-03T14:14:03.999Z</time></trkpt><trkpt lat="44.32919823710613" lon="8.47176981695529"><ele>163.0</ele><time>2026-04-03T14:14:04.999Z</time></trkpt><trkpt lat="44.329325277129975" lon="8.471757605618011"><ele>165.0</ele><time>2026-04-03T14:14:05.999Z</time></trkpt><trkpt lat="44.32946090584287" lon="8.471745715377939"><ele>167.0</ele><time>2026-04-03T14:14:06.999Z</time></trkpt><trkpt lat="44.32958536633624" lon="8.471740982545203"><ele>169.0</ele><time>2026-04-03T14:14:07.999Z</time></trkpt><trkpt lat="44.32971169323586" lon="8.47174179755238"><ele>171.0</ele><time>2026-04-03T14:14:08.999Z</time></trkpt><trkpt lat="44.32983752403904" lon="8.471771105735227"><ele>172.75</ele><time>2026-04-03T14:14:09.999Z</time></trkpt><trkpt lat="44.32996843979164" lon="8.471809935055722"><ele>174.5</ele><time>2026-04-03T14:14:10.999Z</time></trkpt><trkpt lat="44.330104424490166" lon="8.471841252926161"><ele>176.25</ele><time>2026-04-03T14:14:11.999Z</time></trkpt><trkpt lat="44.33024438691421" lon="8.471861339105914"><ele>178.0</ele><time>2026-04-03T14:14:12.999Z</time></trkpt><trkpt lat="44.330352215356704" lon="8.471874939567137"><ele>178.0</ele><time>2026-04-03T14:14:13.999Z</time></trkpt><trkpt lat="44.330441030217855" lon="8.471880138513757"><ele>178.0</ele><time>2026-04-03T14:14:14.999Z</time></trkpt><trkpt lat="44.33050694347976" lon="8.47187094301628"><ele>178.0</ele><time>2026-04-03T14:14:15.999Z</time></trkpt><trkpt lat="44.33061616772743" lon="8.471839139670964"><ele>178.0</ele><time>2026-04-03T14:14:17.999Z</time></trkpt><trkpt lat="44.33072172964763" lon="8.471782209594409"><ele>178.0</ele><time>2026-04-03T14:14:19.999Z</time></trkpt><trkpt lat="44.330864212018554" lon="8.47171814142496"><ele>179.7142857142857</ele><time>2026-04-03T14:14:20.999Z</time></trkpt><trkpt lat="44.33094804164812" lon="8.471700322861407"><ele>181.42857142857142</ele><time>2026-04-03T14:14:21.999Z</time></trkpt><trkpt lat="44.331031036353416" lon="8.47168208954486"><ele>183.14285714285714</ele><time>2026-04-03T14:14:22.999Z</time></trkpt><trkpt lat="44.331096770204866" lon="8.471661849091987"><ele>184.85714285714283</ele><time>2026-04-03T14:14:23.999Z</time></trkpt><trkpt lat="44.331156864271335" lon="8.471630454670779"><ele>186.57142857142858</ele><time>2026-04-03T14:14:25Z</time></trkpt><trkpt lat="44.331204943212306" lon="8.471569031515221"><ele>188.28571428571428</ele><time>2026-04-03T14:14:26Z</time></trkpt><trkpt lat="44.33125108738091" lon="8.471480368758764"><ele>190.0</ele><time>2026-04-03T14:14:27Z</time></trkpt><trkpt lat="44.33129133152996" lon="8.47138315000983"><ele>190.0</ele><time>2026-04-03T14:14:28Z</time></trkpt><trkpt lat="44.331360140729416" lon="8.471327392586165"><ele>190.0</ele><time>2026-04-03T14:14:29Z</time></trkpt><trkpt lat="44.33142203593307" lon="8.471273895062462"><ele>190.0</ele><time>2026-04-03T14:14:30Z</time></trkpt><trkpt lat="44.33147936722612" lon="8.471210941872494"><ele>190.0</ele><time>2026-04-03T14:14:31Z</time></trkpt><trkpt lat="44.33153923807928" lon="8.471170774729512"><ele>190.0</ele><time>2026-04-03T14:14:32Z</time></trkpt><trkpt lat="44.33159267079526" lon="8.471124112111209"><ele>190.0</ele><time>2026-04-03T14:14:33Z</time></trkpt><trkpt lat="44.33168629125908" lon="8.471124915255276"><ele>190.0</ele><time>2026-04-03T14:14:35Z</time></trkpt><trkpt lat="44.331748985428774" lon="8.471271572672109"><ele>191.8</ele><time>2026-04-03T14:14:37Z</time></trkpt><trkpt lat="44.33184560901634" lon="8.471369493232281"><ele>193.6</ele><time>2026-04-03T14:14:39Z</time></trkpt><trkpt lat="44.33191697780026" lon="8.471401956148119"><ele>195.39999999999998</ele><time>2026-04-03T14:14:40Z</time></trkpt><trkpt lat="44.33199506748314" lon="8.471458067069426"><ele>197.2</ele><time>2026-04-03T14:14:41Z</time></trkpt><trkpt lat="44.33208764232613" lon="8.471520747968102"><ele>199.0</ele><time>2026-04-03T14:14:42Z</time></trkpt><trkpt lat="44.33217134982341" lon="8.471576318691154"><ele>200.14285714285714</ele><time>2026-04-03T14:14:43Z</time></trkpt><trkpt lat="44.332232589279805" lon="8.471628645677628"><ele>201.28571428571428</ele><time>2026-04-03T14:14:44Z</time></trkpt><trkpt lat="44.332290051616326" lon="8.471685034807368"><ele>202.42857142857144</ele><time>2026-04-03T14:14:45Z</time></trkpt><trkpt lat="44.33234803960616" lon="8.471733235762647"><ele>203.57142857142856</ele><time>2026-04-03T14:14:46Z</time></trkpt><trkpt lat="44.33242526593449" lon="8.471757000725601"><ele>204.71428571428572</ele><time>2026-04-03T14:14:47.001Z</time></trkpt><trkpt lat="44.33250211588506" lon="8.47178761038894"><ele>205.85714285714286</ele><time>2026-04-03T14:14:48.001Z</time></trkpt><trkpt lat="44.3325630095839" lon="8.471812264839881"><ele>207.0</ele><time>2026-04-03T14:14:49.001Z</time></trkpt><trkpt lat="44.33262932108428" lon="8.471816706635988"><ele>207.0</ele><time>2026-04-03T14:14:50.001Z</time></trkpt><trkpt lat="44.33270674244059" lon="8.471809227958259"><ele>207.0</ele><time>2026-04-03T14:14:51.001Z</time></trkpt><trkpt lat="44.33278704814939" lon="8.471794328089041"><ele>207.0</ele><time>2026-04-03T14:14:52.001Z</time></trkpt><trkpt lat="44.332875687212194" lon="8.471775222072642"><ele>207.0</ele><time>2026-04-03T14:14:53.001Z</time></trkpt><trkpt lat="44.33294467187593" lon="8.47175357906443"><ele>207.0</ele><time>2026-04-03T14:14:54.001Z</time></trkpt><trkpt lat="44.33305837707625" lon="8.471791329577728"><ele>207.0</ele><time>2026-04-03T14:14:56.001Z</time></trkpt><trkpt lat="44.333111546590324" lon="8.471851140888184"><ele>209.39999999999998</ele><time>2026-04-03T14:14:57.001Z</time></trkpt><trkpt lat="44.33322702247718" lon="8.471873228080701"><ele>211.79999999999998</ele><time>2026-04-03T14:14:59.001Z</time></trkpt><trkpt lat="44.3332957594662" lon="8.471850460828009"><ele>214.2</ele><time>2026-04-03T14:15:00.001Z</time></trkpt><trkpt lat="44.33338433365551" lon="8.471845115943403"><ele>216.6</ele><time>2026-04-03T14:15:01.001Z</time></trkpt><trkpt lat="44.333475179382916" lon="8.471854310981417"><ele>219.0</ele><time>2026-04-03T14:15:02.001Z</time></trkpt><trkpt lat="44.33356817860367" lon="8.471855882349935"><ele>219.0</ele><time>2026-04-03T14:15:03.001Z</time></trkpt><trkpt lat="44.33365869695299" lon="8.471864016259813"><ele>219.0</ele><time>2026-04-03T14:15:04.001Z</time></trkpt><trkpt lat="44.333742260140056" lon="8.4718858336151"><ele>219.0</ele><time>2026-04-03T14:15:05.001Z</time></trkpt><trkpt lat="44.33381158565485" lon="8.471932211845196"><ele>219.0</ele><time>2026-04-03T14:15:06.001Z</time></trkpt><trkpt lat="44.333913282137225" lon="8.472012803992142"><ele>219.0</ele><time>2026-04-03T14:15:08.001Z</time></trkpt><trkpt lat="44.33397178521371" lon="8.472067890190647"><ele>219.0</ele><time>2026-04-03T14:15:09.001Z</time></trkpt><trkpt lat="44.334033397228175" lon="8.472129709273863"><ele>221.39999999999998</ele><time>2026-04-03T14:15:10.001Z</time></trkpt><trkpt lat="44.33409976819956" lon="8.472195109642419"><ele>223.79999999999998</ele><time>2026-04-03T14:15:11.001Z</time></trkpt><trkpt lat="44.33417717355012" lon="8.472264312428964"><ele>226.20000000000002</ele><time>2026-04-03T14:15:11.999Z</time></trkpt><trkpt lat="44.33426828180011" lon="8.472333575606491"><ele>228.60000000000002</ele><time>2026-04-03T14:15:12.999Z</time></trkpt><trkpt lat="44.334370516557755" lon="8.472382074967"><ele>231.0</ele><time>2026-04-03T14:15:13.999Z</time></trkpt><trkpt lat="44.33447329635559" lon="8.472417075952741"><ele>231.0</ele><time>2026-04-03T14:15:14.999Z</time></trkpt><trkpt lat="44.33455807452165" lon="8.472480668624586"><ele>231.0</ele><time>2026-04-03T14:15:15.999Z</time></trkpt><trkpt lat="44.33461483758592" lon="8.472571755000516"><ele>231.0</ele><time>2026-04-03T14:15:16.999Z</time></trkpt><trkpt lat="44.334671055476655" lon="8.472664228749716"><ele>231.0</ele><time>2026-04-03T14:15:17.999Z</time></trkpt><trkpt lat="44.334726954423395" lon="8.472722865851113"><ele>231.0</ele><time>2026-04-03T14:15:18.999Z</time></trkpt><trkpt lat="44.334828534822734" lon="8.472776557455347"><ele>231.0</ele><time>2026-04-03T14:15:20.999Z</time></trkpt><trkpt lat="44.33487804057384" lon="8.472924443061805"><ele>233.66666666666666</ele><time>2026-04-03T14:15:22.999Z</time></trkpt><trkpt lat="44.33490571189251" lon="8.473005506864153"><ele>236.33333333333331</ele><time>2026-04-03T14:15:23.999Z</time></trkpt><trkpt lat="44.334961764942165" lon="8.473163348561568"><ele>239.0</ele><time>2026-04-03T14:15:25.999Z</time></trkpt><trkpt lat="44.3349745816374" lon="8.473253269614641"><ele>241.66666666666666</ele><time>2026-04-03T14:15:26.999Z</time></trkpt><trkpt lat="44.33502562532319" lon="8.47330882134497"><ele>244.33333333333331</ele><time>2026-04-03T14:15:28Z</time></trkpt><trkpt lat="44.3350939795704" lon="8.473408280307194"><ele>247.0</ele><time>2026-04-03T14:15:30Z</time></trkpt><trkpt lat="44.33516733997522" lon="8.473451385242381"><ele>247.0</ele><time>2026-04-03T14:15:32Z</time></trkpt><trkpt lat="44.33527136082934" lon="8.47346144449796"><ele>247.0</ele><time>2026-04-03T14:15:35Z</time></trkpt><trkpt lat="44.33536039862478" lon="8.473475496030755"><ele>247.0</ele><time>2026-04-03T14:15:37Z</time></trkpt><trkpt lat="44.33542904529916" lon="8.473539124565368"><ele>247.0</ele><time>2026-04-03T14:15:39Z</time></trkpt><trkpt lat="44.335452109995664" lon="8.473646047153595"><ele>247.0</ele><time>2026-04-03T14:15:41Z</time></trkpt><trkpt lat="44.335378345212966" lon="8.473764389294002"><ele>246.39999999999998</ele><time>2026-04-03T14:15:43Z</time></trkpt><trkpt lat="44.33533184355187" lon="8.4738984065003"><ele>245.79999999999998</ele><time>2026-04-03T14:15:45Z</time></trkpt><trkpt lat="44.33528522164555" lon="8.474001382480564"><ele>245.2</ele><time>2026-04-03T14:15:47Z</time></trkpt><trkpt lat="44.33527292449374" lon="8.474136328768134"><ele>244.6</ele><time>2026-04-03T14:15:49Z</time></trkpt><trkpt lat="44.335289628699364" lon="8.47428654442221"><ele>244.0</ele><time>2026-04-03T14:15:51Z</time></trkpt><trkpt lat="44.335313969712324" lon="8.474439702077062"><ele>244.0</ele><time>2026-04-03T14:15:53Z</time></trkpt><trkpt lat="44.33532330222645" lon="8.474541288442182"><ele>243.99999999999997</ele><time>2026-04-03T14:15:55Z</time></trkpt><trkpt lat="44.33524871447808" lon="8.474602880727883"><ele>243.99999999999997</ele><time>2026-04-03T14:15:58Z</time></trkpt><trkpt lat="44.33517254727044" lon="8.474765622609873"><ele>244.0</ele><time>2026-04-03T14:16:00Z</time></trkpt><trkpt lat="44.33512626074659" lon="8.474866999476172"><ele>244.0</ele><time>2026-04-03T14:16:01Z</time></trkpt><trkpt lat="44.335072926186726" lon="8.4749713921394"><ele>245.99999999999997</ele><time>2026-04-03T14:16:02Z</time></trkpt><trkpt lat="44.33503799191081" lon="8.475076521596872"><ele>248.0</ele><time>2026-04-03T14:16:03Z</time></trkpt><trkpt lat="44.33499343011601" lon="8.475166385813836"><ele>250.0</ele><time>2026-04-03T14:16:04Z</time></trkpt><trkpt lat="44.3349591371045" lon="8.475268833961815"><ele>252.0</ele><time>2026-04-03T14:16:06Z</time></trkpt><trkpt lat="44.33500607046532" lon="8.475392538159905"><ele>253.99999999999997</ele><time>2026-04-03T14:16:08Z</time></trkpt><trkpt lat="44.33503218588705" lon="8.47547276321108"><ele>256.0</ele><time>2026-04-03T14:16:09Z</time></trkpt><trkpt lat="44.33506618919837" lon="8.475579656212817"><ele>255.99999999999997</ele><time>2026-04-03T14:16:10Z</time></trkpt><trkpt lat="44.33508631453539" lon="8.475690529087531"><ele>256.0</ele><time>2026-04-03T14:16:11Z</time></trkpt><trkpt lat="44.335123055303114" lon="8.47577343397331"><ele>256.0</ele><time>2026-04-03T14:16:12Z</time></trkpt><trkpt lat="44.33517490598234" lon="8.475854768427617"><ele>256.0</ele><time>2026-04-03T14:16:13Z</time></trkpt><trkpt lat="44.33523823519258" lon="8.475925375062058"><ele>255.99999999999997</ele><time>2026-04-03T14:16:14Z</time></trkpt><trkpt lat="44.33530106100693" lon="8.47598696231897"><ele>256.0</ele><time>2026-04-03T14:16:15Z</time></trkpt><trkpt lat="44.33536372012124" lon="8.476040823882157"><ele>256.0</ele><time>2026-04-03T14:16:16Z</time></trkpt><trkpt lat="44.33547242103594" lon="8.476078885749184"><ele>256.0</ele><time>2026-04-03T14:16:18Z</time></trkpt><trkpt lat="44.335567285154525" lon="8.476054834585375"><ele>256.0</ele><time>2026-04-03T14:16:20Z</time></trkpt><trkpt lat="44.335689598285335" lon="8.475957612113174"><ele>256.0</ele><time>2026-04-03T14:16:22Z</time></trkpt><trkpt lat="44.335771094366336" lon="8.47589011346646"><ele>256.0</ele><time>2026-04-03T14:16:23Z</time></trkpt><trkpt lat="44.33586609748815" lon="8.475844283924733"><ele>260.40000000000003</ele><time>2026-04-03T14:16:24Z</time></trkpt><trkpt lat="44.33597582083576" lon="8.475823518210706"><ele>264.8</ele><time>2026-04-03T14:16:25Z</time></trkpt><trkpt lat="44.3360865352153" lon="8.475801508119716"><ele>269.20000000000005</ele><time>2026-04-03T14:16:26Z</time></trkpt><trkpt lat="44.336164516943654" lon="8.475782963754618"><ele>273.6</ele><time>2026-04-03T14:16:27Z</time></trkpt><trkpt lat="44.33625835276136" lon="8.475816888550655"><ele>278.0</ele><time>2026-04-03T14:16:29Z</time></trkpt><trkpt lat="44.33632006947912" lon="8.47583576598755"><ele>278.0</ele><time>2026-04-03T14:16:30Z</time></trkpt><trkpt lat="44.33641373031748" lon="8.475925948960116"><ele>278.0</ele><time>2026-04-03T14:16:32Z</time></trkpt><trkpt lat="44.336449220831355" lon="8.476088338686347"><ele>278.0</ele><time>2026-04-03T14:16:34Z</time></trkpt><trkpt lat="44.336382956244634" lon="8.476153551012771"><ele>278.0</ele><time>2026-04-03T14:16:35Z</time></trkpt><trkpt lat="44.33634875640964" lon="8.476238746830507"><ele>278.0</ele><time>2026-04-03T14:16:36Z</time></trkpt><trkpt lat="44.336343354681816" lon="8.476399606480905"><ele>276.1666666666667</ele><time>2026-04-03T14:16:38Z</time></trkpt><trkpt lat="44.33639271638495" lon="8.476454310207743"><ele>274.33333333333337</ele><time>2026-04-03T14:16:39Z</time></trkpt><trkpt lat="44.33645998815253" lon="8.476451646993619"><ele>272.5</ele><time>2026-04-03T14:16:40Z</time></trkpt><trkpt lat="44.33657259874832" lon="8.47646627254984"><ele>270.6666666666667</ele><time>2026-04-03T14:16:42Z</time></trkpt><trkpt lat="44.336650841491185" lon="8.47648609253625"><ele>268.8333333333333</ele><time>2026-04-03T14:16:43.001Z</time></trkpt><trkpt lat="44.33673317178425" lon="8.47653984415442"><ele>267.0</ele><time>2026-04-03T14:16:44.001Z</time></trkpt><trkpt lat="44.33683292934843" lon="8.47658538464334"><ele>267.0</ele><time>2026-04-03T14:16:45.001Z</time></trkpt><trkpt lat="44.336909968576656" lon="8.47667248912606"><ele>267.0</ele><time>2026-04-03T14:16:46.001Z</time></trkpt><trkpt lat="44.33697680901471" lon="8.476731322138601"><ele>267.0</ele><time>2026-04-03T14:16:47.001Z</time></trkpt><trkpt lat="44.337028945274405" lon="8.47680157977754"><ele>267.0</ele><time>2026-04-03T14:16:48.001Z</time></trkpt><trkpt lat="44.337099599663766" lon="8.47688258975881"><ele>267.0</ele><time>2026-04-03T14:16:50.001Z</time></trkpt><trkpt lat="44.337006502770855" lon="8.476957337236717"><ele>267.0</ele><time>2026-04-03T14:16:52.001Z</time></trkpt><trkpt lat="44.33692386025208" lon="8.477062410368939"><ele>266.75</ele><time>2026-04-03T14:16:54.001Z</time></trkpt><trkpt lat="44.33682932570084" lon="8.477171469343565"><ele>266.5</ele><time>2026-04-03T14:16:56.001Z</time></trkpt><trkpt lat="44.33675288849094" lon="8.477295488884216"><ele>266.25</ele><time>2026-04-03T14:16:58.001Z</time></trkpt><trkpt lat="44.336714578560084" lon="8.477410699968935"><ele>266.0</ele><time>2026-04-03T14:17:00.001Z</time></trkpt><trkpt lat="44.336745795270204" lon="8.477580867461905"><ele>266.0</ele><time>2026-04-03T14:17:02.001Z</time></trkpt><trkpt lat="44.33668084003737" lon="8.477711448967753"><ele>266.0</ele><time>2026-04-03T14:17:04.001Z</time></trkpt><trkpt lat="44.33660559566932" lon="8.477728826783421"><ele>266.0</ele><time>2026-04-03T14:17:05.001Z</time></trkpt><trkpt lat="44.33654742230017" lon="8.477803094000901"><ele>266.0</ele><time>2026-04-03T14:17:06.001Z</time></trkpt><trkpt lat="44.33648567716285" lon="8.47791169180355"><ele>266.0</ele><time>2026-04-03T14:17:07.001Z</time></trkpt><trkpt lat="44.33642308182976" lon="8.47805467548326"><ele>260.75</ele><time>2026-04-03T14:17:08.001Z</time></trkpt><trkpt lat="44.336357062161795" lon="8.478221099017878"><ele>255.5</ele><time>2026-04-03T14:17:09.001Z</time></trkpt><trkpt lat="44.33629564941039" lon="8.478406552523833"><ele>250.25</ele><time>2026-04-03T14:17:10.001Z</time></trkpt><trkpt lat="44.336245560148555" lon="8.478579704705407"><ele>245.0</ele><time>2026-04-03T14:17:11.001Z</time></trkpt><trkpt lat="44.336162261111944" lon="8.478723674499872"><ele>249.2</ele><time>2026-04-03T14:17:12.001Z</time></trkpt><trkpt lat="44.336106547477776" lon="8.478836733449295"><ele>253.4</ele><time>2026-04-03T14:17:13.001Z</time></trkpt><trkpt lat="44.33605871701198" lon="8.47894534988371"><ele>257.6</ele><time>2026-04-03T14:17:14.001Z</time></trkpt><trkpt lat="44.33601033754217" lon="8.479059826366102"><ele>261.8</ele><time>2026-04-03T14:17:15.001Z</time></trkpt><trkpt lat="44.33597193234202" lon="8.479156711844158"><ele>266.0</ele><time>2026-04-03T14:17:16.001Z</time></trkpt><trkpt lat="44.335950357530194" lon="8.479305743192677"><ele>266.0</ele><time>2026-04-03T14:17:17.999Z</time></trkpt><trkpt lat="44.33590849581017" lon="8.479401444241887"><ele>266.0</ele><time>2026-04-03T14:17:19.999Z</time></trkpt><trkpt lat="44.33583268788419" lon="8.479453878403294"><ele>266.0</ele><time>2026-04-03T14:17:21.999Z</time></trkpt><trkpt lat="44.335766128045684" lon="8.479437504607944"><ele>266.0</ele><time>2026-04-03T14:17:22.999Z</time></trkpt><trkpt lat="44.335695024509654" lon="8.479461259414686"><ele>266.0</ele><time>2026-04-03T14:17:23.999Z</time></trkpt><trkpt lat="44.335625100743755" lon="8.47948229807533"><ele>266.0</ele><time>2026-04-03T14:17:24.999Z</time></trkpt><trkpt lat="44.33554197982154" lon="8.479483762316763"><ele>264.8</ele><time>2026-04-03T14:17:25.999Z</time></trkpt><trkpt lat="44.33545256748263" lon="8.47948226649022"><ele>263.6</ele><time>2026-04-03T14:17:26.999Z</time></trkpt><trkpt lat="44.33535452833744" lon="8.479502299476005"><ele>262.4</ele><time>2026-04-03T14:17:28.999Z</time></trkpt><trkpt lat="44.33526971756091" lon="8.47961313261523"><ele>261.2</ele><time>2026-04-03T14:17:30.999Z</time></trkpt><trkpt lat="44.33520380434891" lon="8.47973128781369"><ele>260.0</ele><time>2026-04-03T14:17:32.999Z</time></trkpt><trkpt lat="44.33520576131023" lon="8.47988182941644"><ele>260.0</ele><time>2026-04-03T14:17:35Z</time></trkpt><trkpt lat="44.33520451598256" lon="8.479984905207186"><ele>260.0</ele><time>2026-04-03T14:17:36Z</time></trkpt><trkpt lat="44.33522458592559" lon="8.480100943536934"><ele>260.0</ele><time>2026-04-03T14:17:37Z</time></trkpt><trkpt lat="44.33525358617335" lon="8.480180679930216"><ele>260.0</ele><time>2026-04-03T14:17:38Z</time></trkpt><trkpt lat="44.33552661311874" lon="8.479954609694985"><ele>264.4</ele><time>2026-04-03T14:17:54Z</time></trkpt><trkpt lat="44.33562317050888" lon="8.479964584666591"><ele>268.8</ele><time>2026-04-03T14:17:55Z</time></trkpt><trkpt lat="44.33570706862124" lon="8.479958774852113"><ele>273.2</ele><time>2026-04-03T14:17:56Z</time></trkpt><trkpt lat="44.33580068255599" lon="8.479944966920023"><ele>277.6</ele><time>2026-04-03T14:17:57Z</time></trkpt><trkpt lat="44.335898565749" lon="8.47991894687223"><ele>282.0</ele><time>2026-04-03T14:17:58Z</time></trkpt><trkpt lat="44.33600320922427" lon="8.479881054515008"><ele>282.0</ele><time>2026-04-03T14:17:59Z</time></trkpt><trkpt lat="44.336103870942914" lon="8.479811859537643"><ele>282.0</ele><time>2026-04-03T14:18:00Z</time></trkpt><trkpt lat="44.3361970162783" lon="8.479721205993892"><ele>282.0</ele><time>2026-04-03T14:18:01Z</time></trkpt><trkpt lat="44.33628888534905" lon="8.47961522135632"><ele>282.0</ele><time>2026-04-03T14:18:02Z</time></trkpt><trkpt lat="44.336376175240204" lon="8.47950415654854"><ele>286.0</ele><time>2026-04-03T14:18:03Z</time></trkpt><trkpt lat="44.33646428095645" lon="8.47939375597878"><ele>290.0</ele><time>2026-04-03T14:18:04Z</time></trkpt><trkpt lat="44.33655109964043" lon="8.47928509659586"><ele>294.0</ele><time>2026-04-03T14:18:05Z</time></trkpt><trkpt lat="44.336636083249914" lon="8.479173870820697"><ele>298.0</ele><time>2026-04-03T14:18:06Z</time></trkpt><trkpt lat="44.336723252872765" lon="8.47907247165439"><ele>298.0</ele><time>2026-04-03T14:18:07Z</time></trkpt><trkpt lat="44.33681180536523" lon="8.478991177688265"><ele>298.0</ele><time>2026-04-03T14:18:08Z</time></trkpt><trkpt lat="44.33690677030275" lon="8.478931671977353"><ele>298.0</ele><time>2026-04-03T14:18:09Z</time></trkpt><trkpt lat="44.33700143207711" lon="8.478873256022357"><ele>298.0</ele><time>2026-04-03T14:18:10Z</time></trkpt><trkpt lat="44.3370963076494" lon="8.478811567579262"><ele>298.0</ele><time>2026-04-03T14:18:11Z</time></trkpt><trkpt lat="44.337195467163255" lon="8.478750394480594"><ele>300.75</ele><time>2026-04-03T14:18:12Z</time></trkpt><trkpt lat="44.33729636534503" lon="8.478685996900035"><ele>303.5</ele><time>2026-04-03T14:18:13Z</time></trkpt><trkpt lat="44.33740392337258" lon="8.478623267409185"><ele>306.25</ele><time>2026-04-03T14:18:14Z</time></trkpt><trkpt lat="44.337518029910775" lon="8.478541535739382"><ele>309.0</ele><time>2026-04-03T14:18:15Z</time></trkpt><trkpt lat="44.33763695531816" lon="8.478458247516556"><ele>309.0</ele><time>2026-04-03T14:18:16Z</time></trkpt><trkpt lat="44.33774894463632" lon="8.478374201314303"><ele>309.0</ele><time>2026-04-03T14:18:17Z</time></trkpt><trkpt lat="44.33784734510194" lon="8.478281291107299"><ele>309.0</ele><time>2026-04-03T14:18:18Z</time></trkpt><trkpt lat="44.33792462591802" lon="8.478158144141515"><ele>309.0</ele><time>2026-04-03T14:18:19Z</time></trkpt><trkpt lat="44.33799726632211" lon="8.47802641139249"><ele>313.4</ele><time>2026-04-03T14:18:20Z</time></trkpt><trkpt lat="44.33808253097897" lon="8.477919385389802"><ele>317.79999999999995</ele><time>2026-04-03T14:18:21Z</time></trkpt><trkpt lat="44.338156300460035" lon="8.477790920908983"><ele>322.20000000000005</ele><time>2026-04-03T14:18:22Z</time></trkpt><trkpt lat="44.338257671400974" lon="8.47770551000358"><ele>326.6</ele><time>2026-04-03T14:18:23Z</time></trkpt><trkpt lat="44.33833719456281" lon="8.477628472916392"><ele>331.0</ele><time>2026-04-03T14:18:24Z</time></trkpt><trkpt lat="44.33840309046317" lon="8.477573094322505"><ele>331.0</ele><time>2026-04-03T14:18:25Z</time></trkpt><trkpt lat="44.33845291607528" lon="8.477475870999363"><ele>331.0</ele><time>2026-04-03T14:18:26Z</time></trkpt><trkpt lat="44.33848981150233" lon="8.477341716100067"><ele>331.0</ele><time>2026-04-03T14:18:27Z</time></trkpt><trkpt lat="44.3385217675338" lon="8.477205803293066"><ele>331.0</ele><time>2026-04-03T14:18:28Z</time></trkpt><trkpt lat="44.33855191369753" lon="8.47706555851501"><ele>331.0</ele><time>2026-04-03T14:18:29Z</time></trkpt><trkpt lat="44.33858239966617" lon="8.476913187078168"><ele>332.75</ele><time>2026-04-03T14:18:30Z</time></trkpt><trkpt lat="44.33860901247405" lon="8.476754632660562"><ele>334.5</ele><time>2026-04-03T14:18:31Z</time></trkpt><trkpt lat="44.33862351466239" lon="8.47660371668357"><ele>336.25</ele><time>2026-04-03T14:18:32Z</time></trkpt><trkpt lat="44.33862834794445" lon="8.476445678933006"><ele>338.0</ele><time>2026-04-03T14:18:33Z</time></trkpt><trkpt lat="44.33862525419907" lon="8.47627464967341"><ele>340.1666666666667</ele><time>2026-04-03T14:18:34Z</time></trkpt><trkpt lat="44.33862188125764" lon="8.476113606997616"><ele>342.33333333333337</ele><time>2026-04-03T14:18:35Z</time></trkpt><trkpt lat="44.33862087405363" lon="8.475997088811816"><ele>344.5</ele><time>2026-04-03T14:18:36Z</time></trkpt><trkpt lat="44.338621788039234" lon="8.475899017910274"><ele>346.6666666666667</ele><time>2026-04-03T14:18:37Z</time></trkpt><trkpt lat="44.338628649447045" lon="8.475804691370797"><ele>348.8333333333333</ele><time>2026-04-03T14:18:38.001Z</time></trkpt><trkpt lat="44.33863685998843" lon="8.475702272214834"><ele>351.0</ele><time>2026-04-03T14:18:39.001Z</time></trkpt><trkpt lat="44.33864577566005" lon="8.475602101492383"><ele>351.0</ele><time>2026-04-03T14:18:40.001Z</time></trkpt><trkpt lat="44.338659762954606" lon="8.47548629747668"><ele>351.0</ele><time>2026-04-03T14:18:41.001Z</time></trkpt><trkpt lat="44.33867588016321" lon="8.475381976901037"><ele>351.0</ele><time>2026-04-03T14:18:42.001Z</time></trkpt><trkpt lat="44.3387119035656" lon="8.475218233057129"><ele>351.0</ele><time>2026-04-03T14:18:44.001Z</time></trkpt><trkpt lat="44.33874004654865" lon="8.475137602417787"><ele>351.0</ele><time>2026-04-03T14:18:45.001Z</time></trkpt><trkpt lat="44.338768103261195" lon="8.475047035691814"><ele>351.0</ele><time>2026-04-03T14:18:46.001Z</time></trkpt><trkpt lat="44.33882941009012" lon="8.474981388059712"><ele>350.4</ele><time>2026-04-03T14:18:47.001Z</time></trkpt><trkpt lat="44.338883803060966" lon="8.474867732280158"><ele>349.8</ele><time>2026-04-03T14:18:48.001Z</time></trkpt><trkpt lat="44.33895219386223" lon="8.474762105207649"><ele>349.2</ele><time>2026-04-03T14:18:49.001Z</time></trkpt><trkpt lat="44.33902622913989" lon="8.474695041730579"><ele>348.59999999999997</ele><time>2026-04-03T14:18:50.001Z</time></trkpt><trkpt lat="44.3390942094964" lon="8.474615321718526"><ele>348.0</ele><time>2026-04-03T14:18:51.001Z</time></trkpt><trkpt lat="44.33915938443755" lon="8.47454117406709"><ele>348.0</ele><time>2026-04-03T14:18:52.001Z</time></trkpt><trkpt lat="44.33922080369932" lon="8.474501027862978"><ele>348.0</ele><time>2026-04-03T14:18:53.001Z</time></trkpt><trkpt lat="44.339282274971396" lon="8.474460397302199"><ele>348.0</ele><time>2026-04-03T14:18:54.001Z</time></trkpt><trkpt lat="44.33933278757537" lon="8.474404195333294"><ele>348.0</ele><time>2026-04-03T14:18:55.001Z</time></trkpt><trkpt lat="44.33937533314259" lon="8.474337438567712"><ele>348.0</ele><time>2026-04-03T14:18:56.001Z</time></trkpt><trkpt lat="44.339418950683964" lon="8.474242393108103"><ele>348.0</ele><time>2026-04-03T14:18:57.001Z</time></trkpt><trkpt lat="44.339479355120815" lon="8.47416100477383"><ele>348.0</ele><time>2026-04-03T14:18:58.001Z</time></trkpt><trkpt lat="44.33951788492596" lon="8.474040074663543"><ele>348.0</ele><time>2026-04-03T14:18:59.001Z</time></trkpt><trkpt lat="44.33956229128757" lon="8.473947914694367"><ele>348.0</ele><time>2026-04-03T14:19:00.001Z</time></trkpt><trkpt lat="44.339614472208126" lon="8.473875424256477"><ele>348.0</ele><time>2026-04-03T14:19:01.001Z</time></trkpt><trkpt lat="44.339665721285506" lon="8.473783713501623"><ele>348.0</ele><time>2026-04-03T14:19:02.001Z</time></trkpt><trkpt lat="44.33972084320858" lon="8.473699287804546"><ele>348.0</ele><time>2026-04-03T14:19:03.001Z</time></trkpt><trkpt lat="44.33977109876051" lon="8.473617158097072"><ele>348.0</ele><time>2026-04-03T14:19:04.001Z</time></trkpt><trkpt lat="44.33983435489724" lon="8.473562785524733"><ele>350.8333333333333</ele><time>2026-04-03T14:19:05.001Z</time></trkpt><trkpt lat="44.339901518864245" lon="8.473503286525666"><ele>353.6666666666667</ele><time>2026-04-03T14:19:06.001Z</time></trkpt><trkpt lat="44.33997142066667" lon="8.473450250885936"><ele>356.5</ele><time>2026-04-03T14:19:07.001Z</time></trkpt><trkpt lat="44.34003665551817" lon="8.473412368776817"><ele>359.33333333333337</ele><time>2026-04-03T14:19:08.001Z</time></trkpt><trkpt lat="44.340105743193696" lon="8.47339411589729"><ele>362.1666666666667</ele><time>2026-04-03T14:19:09.001Z</time></trkpt><trkpt lat="44.340182971638114" lon="8.473380277096968"><ele>365.0</ele><time>2026-04-03T14:19:10.001Z</time></trkpt><trkpt lat="44.34026159397641" lon="8.473365416810642"><ele>365.0</ele><time>2026-04-03T14:19:11.001Z</time></trkpt><trkpt lat="44.34034022901238" lon="8.473329599305373"><ele>365.0</ele><time>2026-04-03T14:19:12.001Z</time></trkpt><trkpt lat="44.340433233869355" lon="8.473275840203133"><ele>365.0</ele><time>2026-04-03T14:19:13.001Z</time></trkpt><trkpt lat="44.34050773692514" lon="8.473242652452699"><ele>365.0</ele><time>2026-04-03T14:19:14.001Z</time></trkpt><trkpt lat="44.34057406000356" lon="8.473229513235037"><ele>365.0</ele><time>2026-04-03T14:19:15.001Z</time></trkpt><trkpt lat="44.34069341481357" lon="8.473216940863294"><ele>365.0</ele><time>2026-04-03T14:19:17.001Z</time></trkpt><trkpt lat="44.340765824444894" lon="8.473211333869836"><ele>364.4</ele><time>2026-04-03T14:19:18.001Z</time></trkpt><trkpt lat="44.340885433039396" lon="8.473183320556513"><ele>363.8</ele><time>2026-04-03T14:19:20.001Z</time></trkpt><trkpt lat="44.34094694311833" lon="8.473157268507384"><ele>363.20000000000005</ele><time>2026-04-03T14:19:21.001Z</time></trkpt><trkpt lat="44.34101829907856" lon="8.473142173833944"><ele>362.6</ele><time>2026-04-03T14:19:22.001Z</time></trkpt><trkpt lat="44.3411351948121" lon="8.47313397549208"><ele>362.0</ele><time>2026-04-03T14:19:23.999Z</time></trkpt><trkpt lat="44.34124229407575" lon="8.473136124852523"><ele>362.0</ele><time>2026-04-03T14:19:25.999Z</time></trkpt><trkpt lat="44.34130972214306" lon="8.47316271582885"><ele>362.0</ele><time>2026-04-03T14:19:26.999Z</time></trkpt><trkpt lat="44.341392935493545" lon="8.473200142879485"><ele>362.0</ele><time>2026-04-03T14:19:27.999Z</time></trkpt><trkpt lat="44.34147664713519" lon="8.473234421007325"><ele>362.0</ele><time>2026-04-03T14:19:28.999Z</time></trkpt><trkpt lat="44.34156587719234" lon="8.473266960680277"><ele>362.0</ele><time>2026-04-03T14:19:29.999Z</time></trkpt><trkpt lat="44.341655192542206" lon="8.473297015628509"><ele>362.0</ele><time>2026-04-03T14:19:30.999Z</time></trkpt><trkpt lat="44.3417338404104" lon="8.473314648915728"><ele>361.6666666666667</ele><time>2026-04-03T14:19:32Z</time></trkpt><trkpt lat="44.341800447025165" lon="8.473321393449687"><ele>361.33333333333337</ele><time>2026-04-03T14:19:33Z</time></trkpt><trkpt lat="44.34188890719141" lon="8.47333317623265"><ele>361.0</ele><time>2026-04-03T14:19:34Z</time></trkpt><trkpt lat="44.34196635975843" lon="8.473381045615174"><ele>360.6666666666667</ele><time>2026-04-03T14:19:35Z</time></trkpt><trkpt lat="44.34204690732006" lon="8.473407270793283"><ele>360.3333333333333</ele><time>2026-04-03T14:19:36Z</time></trkpt><trkpt lat="44.34211107950232" lon="8.473409911652709"><ele>360.0</ele><time>2026-04-03T14:19:37Z</time></trkpt><trkpt lat="44.34222482907646" lon="8.473432734359355"><ele>360.8333333333333</ele><time>2026-04-03T14:19:39Z</time></trkpt><trkpt lat="44.34228806550685" lon="8.47341953968114"><ele>361.6666666666667</ele><time>2026-04-03T14:19:40Z</time></trkpt><trkpt lat="44.34235426765954" lon="8.473404716953917"><ele>362.5</ele><time>2026-04-03T14:19:41Z</time></trkpt><trkpt lat="44.3424320305741" lon="8.473374950048978"><ele>363.33333333333337</ele><time>2026-04-03T14:19:42Z</time></trkpt><trkpt lat="44.342519422463916" lon="8.473329308897307"><ele>364.1666666666667</ele><time>2026-04-03T14:19:43Z</time></trkpt><trkpt lat="44.34260556087651" lon="8.473278945111767"><ele>365.0</ele><time>2026-04-03T14:19:44Z</time></trkpt><trkpt lat="44.34269836226021" lon="8.473213835053466"><ele>365.0</ele><time>2026-04-03T14:19:45Z</time></trkpt><trkpt lat="44.342796235458074" lon="8.473158344470038"><ele>365.0</ele><time>2026-04-03T14:19:46Z</time></trkpt><trkpt lat="44.342903831594256" lon="8.47311178177993"><ele>365.0</ele><time>2026-04-03T14:19:47Z</time></trkpt><trkpt lat="44.34301574603263" lon="8.473076191114858"><ele>365.0</ele><time>2026-04-03T14:19:48Z</time></trkpt><trkpt lat="44.3431316564876" lon="8.473075120930284"><ele>365.0</ele><time>2026-04-03T14:19:49Z</time></trkpt><trkpt lat="44.34324577742686" lon="8.47309397216664"><ele>366.0</ele><time>2026-04-03T14:19:50Z</time></trkpt><trkpt lat="44.34334701947039" lon="8.473104147075173"><ele>367.0</ele><time>2026-04-03T14:19:51Z</time></trkpt><trkpt lat="44.343425588725175" lon="8.473122287807117"><ele>368.0</ele><time>2026-04-03T14:19:52Z</time></trkpt><trkpt lat="44.3434847748789" lon="8.473158316636734"><ele>369.0</ele><time>2026-04-03T14:19:53Z</time></trkpt><trkpt lat="44.34354184410965" lon="8.473200238628127"><ele>370.0</ele><time>2026-04-03T14:19:54Z</time></trkpt><trkpt lat="44.34359554019303" lon="8.473263095077954"><ele>371.0</ele><time>2026-04-03T14:19:55Z</time></trkpt><trkpt lat="44.34365261176867" lon="8.473332872444372"><ele>371.0</ele><time>2026-04-03T14:19:56Z</time></trkpt><trkpt lat="44.3437275350086" lon="8.473392572750027"><ele>371.0</ele><time>2026-04-03T14:19:58Z</time></trkpt><trkpt lat="44.3438056074689" lon="8.473304885601094"><ele>371.0</ele><time>2026-04-03T14:20:00Z</time></trkpt><trkpt lat="44.343772547055615" lon="8.473193866620825"><ele>371.0</ele><time>2026-04-03T14:20:01Z</time></trkpt><trkpt lat="44.34375943163884" lon="8.473013941307176"><ele>371.0</ele><time>2026-04-03T14:20:03Z</time></trkpt><trkpt lat="44.34373631497079" lon="8.47291794299735"><ele>375.8</ele><time>2026-04-03T14:20:04Z</time></trkpt><trkpt lat="44.343724434150886" lon="8.472831402309426"><ele>380.6</ele><time>2026-04-03T14:20:05Z</time></trkpt><trkpt lat="44.34371528333694" lon="8.472669612244228"><ele>385.4</ele><time>2026-04-03T14:20:07Z</time></trkpt><trkpt lat="44.343711447821185" lon="8.472528639365503"><ele>390.2</ele><time>2026-04-03T14:20:09Z</time></trkpt><trkpt lat="44.34373568904565" lon="8.472360033404065"><ele>395.0</ele><time>2026-04-03T14:20:11Z</time></trkpt><trkpt lat="44.34374533815123" lon="8.472260886914029"><ele>394.99999999999994</ele><time>2026-04-03T14:20:12Z</time></trkpt><trkpt lat="44.34377150529034" lon="8.47216069491994"><ele>395.0</ele><time>2026-04-03T14:20:13Z</time></trkpt><trkpt lat="44.34378963882751" lon="8.472055333120899"><ele>395.0</ele><time>2026-04-03T14:20:14Z</time></trkpt><trkpt lat="44.343822350351104" lon="8.47196422355829"><ele>395.0</ele><time>2026-04-03T14:20:15Z</time></trkpt><trkpt lat="44.34386046848524" lon="8.471857516251529"><ele>394.99999999999994</ele><time>2026-04-03T14:20:16Z</time></trkpt><trkpt lat="44.34390026373608" lon="8.471768162645915"><ele>395.0</ele><time>2026-04-03T14:20:17Z</time></trkpt><trkpt lat="44.3439416483186" lon="8.471677416512643"><ele>395.16666666666663</ele><time>2026-04-03T14:20:18Z</time></trkpt><trkpt lat="44.3439823373278" lon="8.471593567821614"><ele>395.3333333333333</ele><time>2026-04-03T14:20:19Z</time></trkpt><trkpt lat="44.34402697830525" lon="8.471508697282498"><ele>395.5</ele><time>2026-04-03T14:20:20Z</time></trkpt><trkpt lat="44.34407864785672" lon="8.47141919200088"><ele>395.66666666666663</ele><time>2026-04-03T14:20:21Z</time></trkpt><trkpt lat="44.34411857950506" lon="8.471322067571938"><ele>395.8333333333333</ele><time>2026-04-03T14:20:22Z</time></trkpt><trkpt lat="44.344179775164115" lon="8.471238009875503"><ele>396.0</ele><time>2026-04-03T14:20:23.001Z</time></trkpt><trkpt lat="44.344255241721086" lon="8.471166594416992"><ele>396.0</ele><time>2026-04-03T14:20:24.001Z</time></trkpt><trkpt lat="44.34433300116628" lon="8.47109434490084"><ele>396.0</ele><time>2026-04-03T14:20:25.001Z</time></trkpt><trkpt lat="44.344407661667404" lon="8.4710075755847"><ele>396.0</ele><time>2026-04-03T14:20:26.001Z</time></trkpt><trkpt lat="44.34446494552096" lon="8.470943030742095"><ele>396.0</ele><time>2026-04-03T14:20:27.001Z</time></trkpt><trkpt lat="44.34452941007617" lon="8.470895212566155"><ele>396.0</ele><time>2026-04-03T14:20:28.001Z</time></trkpt><trkpt lat="44.34457903126005" lon="8.47083707181277"><ele>396.0</ele><time>2026-04-03T14:20:29.001Z</time></trkpt><trkpt lat="44.344662355442864" lon="8.470747190391473"><ele>395.5</ele><time>2026-04-03T14:20:31.001Z</time></trkpt><trkpt lat="44.34474127834065" lon="8.470607699772323"><ele>395.0</ele><time>2026-04-03T14:20:33.001Z</time></trkpt><trkpt lat="44.34478843824564" lon="8.470510487675764"><ele>394.5</ele><time>2026-04-03T14:20:34.001Z</time></trkpt><trkpt lat="44.34483075721749" lon="8.470435968357098"><ele>394.0</ele><time>2026-04-03T14:20:35.001Z</time></trkpt><trkpt lat="44.34488101828859" lon="8.470366374753041"><ele>393.5</ele><time>2026-04-03T14:20:36.001Z</time></trkpt><trkpt lat="44.34493567353973" lon="8.470318210119538"><ele>393.0</ele><time>2026-04-03T14:20:37.001Z</time></trkpt><trkpt lat="44.34499718835002" lon="8.47027129939412"><ele>393.0</ele><time>2026-04-03T14:20:38.001Z</time></trkpt><trkpt lat="44.34505804324438" lon="8.470211059325976"><ele>393.0</ele><time>2026-04-03T14:20:39.001Z</time></trkpt><trkpt lat="44.345138763623815" lon="8.470185384782663"><ele>393.0</ele><time>2026-04-03T14:20:40.001Z</time></trkpt><trkpt lat="44.34523526772348" lon="8.470161313906194"><ele>393.0</ele><time>2026-04-03T14:20:41.001Z</time></trkpt><trkpt lat="44.34532052094765" lon="8.470188790134861"><ele>393.0</ele><time>2026-04-03T14:20:42.001Z</time></trkpt><trkpt lat="44.34541792320268" lon="8.470161698723736"><ele>393.0</ele><time>2026-04-03T14:20:44.001Z</time></trkpt><trkpt lat="44.34552343158302" lon="8.47007525652595"><ele>391.8333333333333</ele><time>2026-04-03T14:20:46.001Z</time></trkpt><trkpt lat="44.34557424952924" lon="8.469998418027881"><ele>390.66666666666663</ele><time>2026-04-03T14:20:47.001Z</time></trkpt><trkpt lat="44.345627789840826" lon="8.469925825392126"><ele>389.5</ele><time>2026-04-03T14:20:48.001Z</time></trkpt><trkpt lat="44.34568682623163" lon="8.469858757929627"><ele>388.3333333333333</ele><time>2026-04-03T14:20:49.001Z</time></trkpt><trkpt lat="44.34574160530478" lon="8.469771205828176"><ele>387.16666666666663</ele><time>2026-04-03T14:20:50.001Z</time></trkpt><trkpt lat="44.345822102282796" lon="8.46972444247768"><ele>386.0</ele><time>2026-04-03T14:20:51.001Z</time></trkpt><trkpt lat="44.34590232411837" lon="8.469685208723275"><ele>391.20000000000005</ele><time>2026-04-03T14:20:52.001Z</time></trkpt><trkpt lat="44.34602116180706" lon="8.469596126071526"><ele>396.40000000000003</ele><time>2026-04-03T14:20:54.001Z</time></trkpt><trkpt lat="44.34607930496639" lon="8.469526526891846"><ele>401.6</ele><time>2026-04-03T14:20:55.001Z</time></trkpt><trkpt lat="44.346141840377875" lon="8.469442930623396"><ele>406.8</ele><time>2026-04-03T14:20:56.001Z</time></trkpt><trkpt lat="44.34621169565865" lon="8.469337955470705"><ele>412.0</ele><time>2026-04-03T14:20:57.001Z</time></trkpt><trkpt lat="44.34629863720001" lon="8.469207823968194"><ele>408.6</ele><time>2026-04-03T14:20:58.001Z</time></trkpt><trkpt lat="44.34638430402633" lon="8.469076877972675"><ele>405.20000000000005</ele><time>2026-04-03T14:20:59.001Z</time></trkpt><trkpt lat="44.34645433482504" lon="8.468973668635874"><ele>401.8</ele><time>2026-04-03T14:21:00.001Z</time></trkpt><trkpt lat="44.346516803544496" lon="8.468897757152591"><ele>398.4</ele><time>2026-04-03T14:21:01.001Z</time></trkpt><trkpt lat="44.34657642709169" lon="8.468839396121668"><ele>395.0</ele><time>2026-04-03T14:21:02.001Z</time></trkpt><trkpt lat="44.34664226058889" lon="8.468792890833518"><ele>399.49999999999994</ele><time>2026-04-03T14:21:03.001Z</time></trkpt><trkpt lat="44.3467139545124" lon="8.468751732338786"><ele>404.0</ele><time>2026-04-03T14:21:04.001Z</time></trkpt><trkpt lat="44.34678809095601" lon="8.468716257743093"><ele>408.5</ele><time>2026-04-03T14:21:05.001Z</time></trkpt><trkpt lat="44.34685994894126" lon="8.468684137239865"><ele>413.0</ele><time>2026-04-03T14:21:06.001Z</time></trkpt><trkpt lat="44.346931978589076" lon="8.468662631164488"><ele>417.49999999999994</ele><time>2026-04-03T14:21:07.001Z</time></trkpt><trkpt lat="44.34700374605518" lon="8.468646921602948"><ele>422.0</ele><time>2026-04-03T14:21:08.001Z</time></trkpt><trkpt lat="44.347087122837294" lon="8.468644388229267"><ele>421.99999999999994</ele><time>2026-04-03T14:21:09.001Z</time></trkpt><trkpt lat="44.347176563345286" lon="8.468633869375408"><ele>422.0</ele><time>2026-04-03T14:21:10.001Z</time></trkpt><trkpt lat="44.347261362566755" lon="8.468618209930336"><ele>422.0</ele><time>2026-04-03T14:21:11.001Z</time></trkpt><trkpt lat="44.3473287614132" lon="8.468629667625054"><ele>422.0</ele><time>2026-04-03T14:21:12.001Z</time></trkpt><trkpt lat="44.347396811468116" lon="8.468610247816327"><ele>421.99999999999994</ele><time>2026-04-03T14:21:13.001Z</time></trkpt><trkpt lat="44.34746449752602" lon="8.468556962976193"><ele>422.0</ele><time>2026-04-03T14:21:14.001Z</time></trkpt><trkpt lat="44.34753126562488" lon="8.468510881237979"><ele>421.49999999999994</ele><time>2026-04-03T14:21:15.001Z</time></trkpt><trkpt lat="44.34760635723151" lon="8.468459795469771"><ele>421.0</ele><time>2026-04-03T14:21:16.001Z</time></trkpt><trkpt lat="44.34768647722958" lon="8.468424225224563"><ele>420.5</ele><time>2026-04-03T14:21:17.001Z</time></trkpt><trkpt lat="44.34777909123971" lon="8.468414633160048"><ele>420.0</ele><time>2026-04-03T14:21:18.001Z</time></trkpt><trkpt lat="44.347848971966215" lon="8.468405258493634"><ele>419.49999999999994</ele><time>2026-04-03T14:21:19.001Z</time></trkpt><trkpt lat="44.3479528646778" lon="8.468330038765393"><ele>419.0</ele><time>2026-04-03T14:21:21.001Z</time></trkpt><trkpt lat="44.34799913574884" lon="8.468267571610758"><ele>418.4</ele><time>2026-04-03T14:21:22.001Z</time></trkpt><trkpt lat="44.34806206409275" lon="8.468202079582355"><ele>417.79999999999995</ele><time>2026-04-03T14:21:23.001Z</time></trkpt><trkpt lat="44.34812758380859" lon="8.468105672793838"><ele>417.20000000000005</ele><time>2026-04-03T14:21:24.001Z</time></trkpt><trkpt lat="44.348209003045696" lon="8.467982473704751"><ele>416.6</ele><time>2026-04-03T14:21:25.001Z</time></trkpt><trkpt lat="44.348295712325566" lon="8.467846754486825"><ele>416.0</ele><time>2026-04-03T14:21:26.001Z</time></trkpt><trkpt lat="44.34836722715276" lon="8.46773042839918"><ele>415.99999999999994</ele><time>2026-04-03T14:21:27.001Z</time></trkpt><trkpt lat="44.34842605707636" lon="8.467625660355216"><ele>416.0</ele><time>2026-04-03T14:21:28.001Z</time></trkpt><trkpt lat="44.34847194214776" lon="8.467540818074315"><ele>416.0</ele><time>2026-04-03T14:21:29.001Z</time></trkpt><trkpt lat="44.3485213678414" lon="8.467448519823966"><ele>416.0</ele><time>2026-04-03T14:21:30Z</time></trkpt><trkpt lat="44.34857056219924" lon="8.467362892463367"><ele>415.99999999999994</ele><time>2026-04-03T14:21:31Z</time></trkpt><trkpt lat="44.34861819712034" lon="8.46728561522102"><ele>416.0</ele><time>2026-04-03T14:21:32Z</time></trkpt><trkpt lat="44.34866363984767" lon="8.467224350697308"><ele>415.99999999999994</ele><time>2026-04-03T14:21:33Z</time></trkpt><trkpt lat="44.34872106056548" lon="8.467170056274995"><ele>416.0</ele><time>2026-04-03T14:21:34Z</time></trkpt><trkpt lat="44.34879356905958" lon="8.467109137259907"><ele>416.0</ele><time>2026-04-03T14:21:35Z</time></trkpt><trkpt lat="44.34886189583851" lon="8.467066474105845"><ele>416.0</ele><time>2026-04-03T14:21:36Z</time></trkpt><trkpt lat="44.34895257946295" lon="8.466972062115197"><ele>415.99999999999994</ele><time>2026-04-03T14:21:38Z</time></trkpt><trkpt lat="44.34900013511119" lon="8.466911992417897"><ele>416.0</ele><time>2026-04-03T14:21:39Z</time></trkpt><trkpt lat="44.349049063314865" lon="8.46684684698"><ele>415.4</ele><time>2026-04-03T14:21:40Z</time></trkpt><trkpt lat="44.3490852721392" lon="8.46677049942274"><ele>414.8</ele><time>2026-04-03T14:21:41Z</time></trkpt><trkpt lat="44.349141935616366" lon="8.466635190643286"><ele>414.2</ele><time>2026-04-03T14:21:43Z</time></trkpt><trkpt lat="44.3492027188974" lon="8.466483568641074"><ele>413.59999999999997</ele><time>2026-04-03T14:21:45Z</time></trkpt><trkpt lat="44.349234442416886" lon="8.466380663803927"><ele>413.0</ele><time>2026-04-03T14:21:46Z</time></trkpt><trkpt lat="44.34928464286899" lon="8.46627694175522"><ele>412.99999999999994</ele><time>2026-04-03T14:21:47Z</time></trkpt><trkpt lat="44.34932638529769" lon="8.466175804237677"><ele>413.0</ele><time>2026-04-03T14:21:48Z</time></trkpt><trkpt lat="44.34935737397821" lon="8.466090824080862"><ele>413.0</ele><time>2026-04-03T14:21:49Z</time></trkpt><trkpt lat="44.34938711584764" lon="8.466010962379611"><ele>413.0</ele><time>2026-04-03T14:21:50Z</time></trkpt><trkpt lat="44.34944602644656" lon="8.465877264143263"><ele>412.99999999999994</ele><time>2026-04-03T14:21:52Z</time></trkpt><trkpt lat="44.34949897955345" lon="8.465772300148046"><ele>413.0</ele><time>2026-04-03T14:21:54Z</time></trkpt><trkpt lat="44.34956816665937" lon="8.465694598503442"><ele>412.99999999999994</ele><time>2026-04-03T14:21:56Z</time></trkpt><trkpt lat="44.34963776110469" lon="8.465629415171312"><ele>413.0</ele><time>2026-04-03T14:21:58Z</time></trkpt><trkpt lat="44.34971048638446" lon="8.465548947975767"><ele>413.0</ele><time>2026-04-03T14:22:00.001Z</time></trkpt><trkpt lat="44.349775096168194" lon="8.46542786703911"><ele>413.0</ele><time>2026-04-03T14:22:02.001Z</time></trkpt><trkpt lat="44.349809212118075" lon="8.465345543372617"><ele>412.99999999999994</ele><time>2026-04-03T14:22:03.001Z</time></trkpt><trkpt lat="44.34983593738246" lon="8.4652623939435"><ele>413.0</ele><time>2026-04-03T14:22:04.001Z</time></trkpt><trkpt lat="44.34987277079414" lon="8.46518320900113"><ele>408.3333333333333</ele><time>2026-04-03T14:22:05.001Z</time></trkpt><trkpt lat="44.34990537737467" lon="8.465099230228502"><ele>403.66666666666663</ele><time>2026-04-03T14:22:06.001Z</time></trkpt><trkpt lat="44.349972833089225" lon="8.46494888922945"><ele>399.0</ele><time>2026-04-03T14:22:08.001Z</time></trkpt><trkpt lat="44.34999264078395" lon="8.464850083709981"><ele>394.33333333333337</ele><time>2026-04-03T14:22:09.001Z</time></trkpt><trkpt lat="44.34999678577753" lon="8.464737434382325"><ele>389.6666666666667</ele><time>2026-04-03T14:22:10.001Z</time></trkpt><trkpt lat="44.34998386116154" lon="8.464613771931107"><ele>385.0</ele><time>2026-04-03T14:22:11.001Z</time></trkpt><trkpt lat="44.34999323857322" lon="8.464513136538251"><ele>385.00000000000006</ele><time>2026-04-03T14:22:12.001Z</time></trkpt><trkpt lat="44.350014210828014" lon="8.464420406329646"><ele>385.0</ele><time>2026-04-03T14:22:13.001Z</time></trkpt><trkpt lat="44.3500389826276" lon="8.464328232188983"><ele>385.0</ele><time>2026-04-03T14:22:14.001Z</time></trkpt><trkpt lat="44.35006871496405" lon="8.464234164443004"><ele>385.0</ele><time>2026-04-03T14:22:15.001Z</time></trkpt><trkpt lat="44.350114208394906" lon="8.46414064322117"><ele>385.00000000000006</ele><time>2026-04-03T14:22:16.001Z</time></trkpt><trkpt lat="44.35017620432458" lon="8.464030507172998"><ele>385.0</ele><time>2026-04-03T14:22:17.001Z</time></trkpt><trkpt lat="44.35022137540343" lon="8.46394168071249"><ele>385.00000000000006</ele><time>2026-04-03T14:22:18.001Z</time></trkpt><trkpt lat="44.350252541436625" lon="8.46385398871765"><ele>385.0</ele><time>2026-04-03T14:22:19.001Z</time></trkpt><trkpt lat="44.350290681139086" lon="8.463755970597287"><ele>385.0</ele><time>2026-04-03T14:22:20.001Z</time></trkpt><trkpt lat="44.35032274389298" lon="8.463658275776332"><ele>385.0</ele><time>2026-04-03T14:22:21.001Z</time></trkpt><trkpt lat="44.350373724960235" lon="8.463518886709034"><ele>385.00000000000006</ele><time>2026-04-03T14:22:23.001Z</time></trkpt><trkpt lat="44.35044640478771" lon="8.463414965588202"><ele>385.0</ele><time>2026-04-03T14:22:25.001Z</time></trkpt><trkpt lat="44.3505314980732" lon="8.463331754021068"><ele>380.6</ele><time>2026-04-03T14:22:27.001Z</time></trkpt><trkpt lat="44.350607592284916" lon="8.463216659921295"><ele>376.2</ele><time>2026-04-03T14:22:29.001Z</time></trkpt><trkpt lat="44.3506768335493" lon="8.463066902822215"><ele>371.79999999999995</ele><time>2026-04-03T14:22:31.001Z</time></trkpt><trkpt lat="44.35070622213947" lon="8.462988404143712"><ele>367.4</ele><time>2026-04-03T14:22:32.001Z</time></trkpt><trkpt lat="44.3507450039153" lon="8.462881399253858"><ele>363.0</ele><time>2026-04-03T14:22:33.001Z</time></trkpt><trkpt lat="44.35081210306726" lon="8.462800589999901"><ele>363.0</ele><time>2026-04-03T14:22:34.001Z</time></trkpt><trkpt lat="44.35085936033598" lon="8.462719958427396"><ele>363.0</ele><time>2026-04-03T14:22:35.001Z</time></trkpt><trkpt lat="44.3509045646222" lon="8.462624864551165"><ele>363.0</ele><time>2026-04-03T14:22:36.001Z</time></trkpt><trkpt lat="44.350944545226824" lon="8.462532494003066"><ele>363.0</ele><time>2026-04-03T14:22:37.001Z</time></trkpt><trkpt lat="44.350972706905736" lon="8.462443511052951"><ele>363.0</ele><time>2026-04-03T14:22:38.001Z</time></trkpt><trkpt lat="44.351030589085376" lon="8.462368487603595"><ele>363.0</ele><time>2026-04-03T14:22:39.001Z</time></trkpt><trkpt lat="44.35109695990544" lon="8.462283965202019"><ele>363.0</ele><time>2026-04-03T14:22:40.001Z</time></trkpt><trkpt lat="44.35116132537848" lon="8.462203286038658"><ele>363.0</ele><time>2026-04-03T14:22:41.001Z</time></trkpt><trkpt lat="44.35121559414364" lon="8.46213461704854"><ele>363.0</ele><time>2026-04-03T14:22:42.001Z</time></trkpt><trkpt lat="44.35127224480617" lon="8.46200529311345"><ele>363.0</ele><time>2026-04-03T14:22:44.001Z</time></trkpt><trkpt lat="44.351271801947796" lon="8.461820990507894"><ele>363.0</ele><time>2026-04-03T14:22:46.001Z</time></trkpt><trkpt lat="44.35126834538463" lon="8.461664904721765"><ele>360.1666666666667</ele><time>2026-04-03T14:22:48.001Z</time></trkpt><trkpt lat="44.35133623507054" lon="8.461532926960489"><ele>357.3333333333333</ele><time>2026-04-03T14:22:50.001Z</time></trkpt><trkpt lat="44.351373453142706" lon="8.461446242234446"><ele>354.5</ele><time>2026-04-03T14:22:51.001Z</time></trkpt><trkpt lat="44.35142783207849" lon="8.461363197058578"><ele>351.66666666666663</ele><time>2026-04-03T14:22:52.001Z</time></trkpt><trkpt lat="44.35146976855436" lon="8.461278579135204"><ele>348.8333333333333</ele><time>2026-04-03T14:22:53.001Z</time></trkpt><trkpt lat="44.35151409922426" lon="8.461201842352791"><ele>346.0</ele><time>2026-04-03T14:22:54.001Z</time></trkpt><trkpt lat="44.35152795579012" lon="8.461092571865276"><ele>350.0</ele><time>2026-04-03T14:22:55.001Z</time></trkpt><trkpt lat="44.35151883867348" lon="8.460956762874462"><ele>354.0</ele><time>2026-04-03T14:22:56.001Z</time></trkpt><trkpt lat="44.3514962506353" lon="8.46081433032325"><ele>358.0</ele><time>2026-04-03T14:22:57.001Z</time></trkpt><trkpt lat="44.351499110277366" lon="8.460697008943484"><ele>362.0</ele><time>2026-04-03T14:22:58.001Z</time></trkpt><trkpt lat="44.35152600295916" lon="8.460531074904377"><ele>366.0</ele><time>2026-04-03T14:23:00.001Z</time></trkpt><trkpt lat="44.351558352562314" lon="8.460423398361566"><ele>366.0</ele><time>2026-04-03T14:23:01.001Z</time></trkpt><trkpt lat="44.351603424990095" lon="8.460291278959083"><ele>366.0</ele><time>2026-04-03T14:23:02.001Z</time></trkpt><trkpt lat="44.35164487501313" lon="8.46015829419503"><ele>366.0</ele><time>2026-04-03T14:23:03.001Z</time></trkpt><trkpt lat="44.351673630989666" lon="8.460035856086227"><ele>366.0</ele><time>2026-04-03T14:23:04.001Z</time></trkpt><trkpt lat="44.35171027327613" lon="8.459945944497841"><ele>366.0</ele><time>2026-04-03T14:23:05.001Z</time></trkpt><trkpt lat="44.35174904793558" lon="8.459782674873093"><ele>366.0</ele><time>2026-04-03T14:23:07.001Z</time></trkpt><trkpt lat="44.35185171204322" lon="8.4596850439225"><ele>366.0</ele><time>2026-04-03T14:23:09.001Z</time></trkpt><trkpt lat="44.351920241439466" lon="8.459649096758028"><ele>366.0</ele><time>2026-04-03T14:23:10.001Z</time></trkpt><trkpt lat="44.35199385292388" lon="8.459619374350883"><ele>366.0</ele><time>2026-04-03T14:23:11.001Z</time></trkpt><trkpt lat="44.35206137459079" lon="8.459601734130704"><ele>366.0</ele><time>2026-04-03T14:23:12.001Z</time></trkpt><trkpt lat="44.352134585184004" lon="8.459594988062273"><ele>366.0</ele><time>2026-04-03T14:23:13.001Z</time></trkpt><trkpt lat="44.35221286413274" lon="8.459597042793622"><ele>365.6</ele><time>2026-04-03T14:23:14.001Z</time></trkpt><trkpt lat="44.352285325667545" lon="8.459610606268269"><ele>365.20000000000005</ele><time>2026-04-03T14:23:15.001Z</time></trkpt><trkpt lat="44.352391425453725" lon="8.459604724303276"><ele>364.79999999999995</ele><time>2026-04-03T14:23:17.001Z</time></trkpt><trkpt lat="44.352500826480224" lon="8.459542545562586"><ele>364.4</ele><time>2026-04-03T14:23:19.001Z</time></trkpt><trkpt lat="44.3525583233318" lon="8.459486226104408"><ele>364.0</ele><time>2026-04-03T14:23:20.001Z</time></trkpt><trkpt lat="44.35262923160039" lon="8.459379526156926"><ele>364.0</ele><time>2026-04-03T14:23:21.001Z</time></trkpt><trkpt lat="44.35268401178025" lon="8.459272881282523"><ele>364.0</ele><time>2026-04-03T14:23:22.001Z</time></trkpt><trkpt lat="44.35272527029235" lon="8.459181576931298"><ele>364.0</ele><time>2026-04-03T14:23:23.001Z</time></trkpt><trkpt lat="44.352755071752945" lon="8.459102579478346"><ele>364.0</ele><time>2026-04-03T14:23:24.001Z</time></trkpt><trkpt lat="44.35281251227266" lon="8.458971491521098"><ele>364.0</ele><time>2026-04-03T14:23:26.001Z</time></trkpt><trkpt lat="44.35291243823064" lon="8.45886172172853"><ele>364.0</ele><time>2026-04-03T14:23:28.001Z</time></trkpt><trkpt lat="44.352988929721704" lon="8.458834794781662"><ele>364.0</ele><time>2026-04-03T14:23:29.002Z</time></trkpt><trkpt lat="44.353076219101155" lon="8.458799656327953"><ele>364.0</ele><time>2026-04-03T14:23:30.002Z</time></trkpt><trkpt lat="44.353163227332445" lon="8.458757095271286"><ele>364.0</ele><time>2026-04-03T14:23:31.002Z</time></trkpt><trkpt lat="44.353234824627194" lon="8.458707229265716"><ele>364.0</ele><time>2026-04-03T14:23:32.002Z</time></trkpt><trkpt lat="44.35330122799365" lon="8.458666254437563"><ele>364.0</ele><time>2026-04-03T14:23:33.002Z</time></trkpt><trkpt lat="44.35337909348073" lon="8.458595018835924"><ele>363.2</ele><time>2026-04-03T14:23:34.002Z</time></trkpt><trkpt lat="44.35345137047145" lon="8.458519387558615"><ele>362.4</ele><time>2026-04-03T14:23:35.002Z</time></trkpt><trkpt lat="44.35351988688788" lon="8.45844140998589"><ele>361.6</ele><time>2026-04-03T14:23:36.001Z</time></trkpt><trkpt lat="44.3535926884653" lon="8.45835309193885"><ele>360.8</ele><time>2026-04-03T14:23:37.001Z</time></trkpt><trkpt lat="44.353663918534316" lon="8.458257276188435"><ele>360.0</ele><time>2026-04-03T14:23:38.001Z</time></trkpt><trkpt lat="44.353723227093425" lon="8.458158426910405"><ele>360.0</ele><time>2026-04-03T14:23:39.001Z</time></trkpt><trkpt lat="44.35376508406983" lon="8.458027208952437"><ele>360.0</ele><time>2026-04-03T14:23:40.001Z</time></trkpt><trkpt lat="44.35383271367011" lon="8.45788961412606"><ele>360.0</ele><time>2026-04-03T14:23:41.001Z</time></trkpt><trkpt lat="44.35390882214221" lon="8.457737036985318"><ele>360.0</ele><time>2026-04-03T14:23:42.001Z</time></trkpt><trkpt lat="44.35397858302211" lon="8.457597558842775"><ele>361.0</ele><time>2026-04-03T14:23:43.001Z</time></trkpt><trkpt lat="44.35405485805957" lon="8.457516985695873"><ele>362.0</ele><time>2026-04-03T14:23:44.001Z</time></trkpt><trkpt lat="44.35412014228078" lon="8.45741859936429"><ele>363.0</ele><time>2026-04-03T14:23:45.001Z</time></trkpt><trkpt lat="44.354182074237514" lon="8.457321468239675"><ele>364.0</ele><time>2026-04-03T14:23:46.001Z</time></trkpt><trkpt lat="44.35425079806746" lon="8.457221521338974"><ele>365.0</ele><time>2026-04-03T14:23:47.001Z</time></trkpt><trkpt lat="44.35433302004999" lon="8.457145155528991"><ele>364.5</ele><time>2026-04-03T14:23:48.001Z</time></trkpt><trkpt lat="44.354404229768065" lon="8.457082215469924"><ele>364.0</ele><time>2026-04-03T14:23:49.001Z</time></trkpt><trkpt lat="44.35446661385998" lon="8.457014838806508"><ele>363.5</ele><time>2026-04-03T14:23:50.001Z</time></trkpt><trkpt lat="44.3545217327028" lon="8.456938852581684"><ele>363.0</ele><time>2026-04-03T14:23:51.001Z</time></trkpt><trkpt lat="44.35455092360711" lon="8.456828059995937"><ele>362.5</ele><time>2026-04-03T14:23:52.001Z</time></trkpt><trkpt lat="44.35456877169514" lon="8.456717950105846"><ele>362.0</ele><time>2026-04-03T14:23:53.001Z</time></trkpt><trkpt lat="44.35457948998068" lon="8.456616942465422"><ele>362.0</ele><time>2026-04-03T14:23:54.001Z</time></trkpt><trkpt lat="44.35458324781245" lon="8.456500883248543"><ele>362.0</ele><time>2026-04-03T14:23:55.001Z</time></trkpt><trkpt lat="44.354568968409154" lon="8.456386919360849"><ele>362.0</ele><time>2026-04-03T14:23:56.001Z</time></trkpt><trkpt lat="44.3545520826988" lon="8.456274351160044"><ele>362.0</ele><time>2026-04-03T14:23:57.001Z</time></trkpt><trkpt lat="44.35453528993155" lon="8.456185449866584"><ele>362.0</ele><time>2026-04-03T14:23:58.001Z</time></trkpt><trkpt lat="44.35452132844589" lon="8.456081341532807"><ele>362.0</ele><time>2026-04-03T14:24:00.001Z</time></trkpt><trkpt lat="44.35459624113547" lon="8.456127969804292"><ele>362.0</ele><time>2026-04-03T14:24:03.001Z</time></trkpt><trkpt lat="44.354635812758545" lon="8.456214952381936"><ele>362.0</ele><time>2026-04-03T14:24:04.001Z</time></trkpt><trkpt lat="44.354690239890125" lon="8.456302249079116"><ele>362.0</ele><time>2026-04-03T14:24:05.001Z</time></trkpt><trkpt lat="44.35475915066811" lon="8.456354593373234"><ele>362.0</ele><time>2026-04-03T14:24:06.001Z</time></trkpt><trkpt lat="44.35483540881041" lon="8.45639161337662"><ele>362.0</ele><time>2026-04-03T14:24:07.001Z</time></trkpt><trkpt lat="44.35490042326538" lon="8.45639439564318"><ele>362.0</ele><time>2026-04-03T14:24:08.001Z</time></trkpt><trkpt lat="44.35496597615851" lon="8.456372908644344"><ele>362.0</ele><time>2026-04-03T14:24:09.001Z</time></trkpt><trkpt lat="44.355037358403365" lon="8.456350441739584"><ele>366.33333333333337</ele><time>2026-04-03T14:24:10.001Z</time></trkpt><trkpt lat="44.35511879757232" lon="8.456333308802144"><ele>370.6666666666667</ele><time>2026-04-03T14:24:11.001Z</time></trkpt><trkpt lat="44.35520352507429" lon="8.456327826074757"><ele>375.0</ele><time>2026-04-03T14:24:12.001Z</time></trkpt><trkpt lat="44.355281037223605" lon="8.456351070802631"><ele>379.33333333333337</ele><time>2026-04-03T14:24:13.001Z</time></trkpt><trkpt lat="44.35535573933879" lon="8.45638977067622"><ele>383.6666666666667</ele><time>2026-04-03T14:24:14.001Z</time></trkpt><trkpt lat="44.355421294229814" lon="8.456410953464944"><ele>388.0</ele><time>2026-04-03T14:24:15.001Z</time></trkpt><trkpt lat="44.35552968889397" lon="8.456385724107484"><ele>388.50000000000006</ele><time>2026-04-03T14:24:17.001Z</time></trkpt><trkpt lat="44.355631302365886" lon="8.456296999157297"><ele>389.0</ele><time>2026-04-03T14:24:19.001Z</time></trkpt><trkpt lat="44.35566187093991" lon="8.456217173731863"><ele>389.5</ele><time>2026-04-03T14:24:20.001Z</time></trkpt><trkpt lat="44.35567990586187" lon="8.456129440572282"><ele>390.0</ele><time>2026-04-03T14:24:21.001Z</time></trkpt><trkpt lat="44.35571987823616" lon="8.455970545586643"><ele>390.50000000000006</ele><time>2026-04-03T14:24:23.001Z</time></trkpt><trkpt lat="44.35573712152227" lon="8.45586930136692"><ele>391.0</ele><time>2026-04-03T14:24:24.001Z</time></trkpt><trkpt lat="44.35577129283103" lon="8.45577708589554"><ele>394.33333333333337</ele><time>2026-04-03T14:24:25.001Z</time></trkpt><trkpt lat="44.35581309430439" lon="8.455676934452551"><ele>397.6666666666667</ele><time>2026-04-03T14:24:26.001Z</time></trkpt><trkpt lat="44.35585750170114" lon="8.455585149959534"><ele>401.0</ele><time>2026-04-03T14:24:27.001Z</time></trkpt><trkpt lat="44.35590905846513" lon="8.455488080303116"><ele>404.33333333333337</ele><time>2026-04-03T14:24:28.001Z</time></trkpt><trkpt lat="44.355964612637784" lon="8.455390055450232"><ele>407.6666666666667</ele><time>2026-04-03T14:24:29.001Z</time></trkpt><trkpt lat="44.35603180942121" lon="8.455319225988383"><ele>411.0</ele><time>2026-04-03T14:24:30.001Z</time></trkpt><trkpt lat="44.35608205887069" lon="8.45525572113319"><ele>411.0</ele><time>2026-04-03T14:24:31.001Z</time></trkpt><trkpt lat="44.35613809640666" lon="8.455182698476252"><ele>411.0</ele><time>2026-04-03T14:24:32.001Z</time></trkpt><trkpt lat="44.356206003120626" lon="8.455120124800066"><ele>411.0</ele><time>2026-04-03T14:24:33.001Z</time></trkpt><trkpt lat="44.35627569530655" lon="8.455044898217867"><ele>411.0</ele><time>2026-04-03T14:24:34.001Z</time></trkpt><trkpt lat="44.35634045329182" lon="8.454969672193116"><ele>411.0</ele><time>2026-04-03T14:24:35.001Z</time></trkpt><trkpt lat="44.35640376865266" lon="8.454903989198895"><ele>411.0</ele><time>2026-04-03T14:24:36.001Z</time></trkpt><trkpt lat="44.35646590122451" lon="8.45484376293586"><ele>411.1666666666667</ele><time>2026-04-03T14:24:37.001Z</time></trkpt><trkpt lat="44.35654930326697" lon="8.454766523119305"><ele>411.33333333333337</ele><time>2026-04-03T14:24:39.001Z</time></trkpt><trkpt lat="44.35660647017501" lon="8.454711190734706"><ele>411.5</ele><time>2026-04-03T14:24:40.001Z</time></trkpt><trkpt lat="44.356663550210236" lon="8.454620757216569"><ele>411.6666666666667</ele><time>2026-04-03T14:24:41.001Z</time></trkpt><trkpt lat="44.35670859338421" lon="8.454548184909582"><ele>411.83333333333337</ele><time>2026-04-03T14:24:42.001Z</time></trkpt><trkpt lat="44.35675971143769" lon="8.45448004079899"><ele>412.0</ele><time>2026-04-03T14:24:43.001Z</time></trkpt><trkpt lat="44.356800887367235" lon="8.45440425956554"><ele>412.0</ele><time>2026-04-03T14:24:44.001Z</time></trkpt><trkpt lat="44.35686666665395" lon="8.454289336549055"><ele>412.0</ele><time>2026-04-03T14:24:46.001Z</time></trkpt><trkpt lat="44.356921141137065" lon="8.45417057528495"><ele>412.0</ele><time>2026-04-03T14:24:48.001Z</time></trkpt><trkpt lat="44.35699174886114" lon="8.454093176612329"><ele>412.0</ele><time>2026-04-03T14:24:50.001Z</time></trkpt><trkpt lat="44.35708486190051" lon="8.454036902146807"><ele>412.0</ele><time>2026-04-03T14:24:52.001Z</time></trkpt><trkpt lat="44.35715768363866" lon="8.453955666963319"><ele>412.25</ele><time>2026-04-03T14:24:54.001Z</time></trkpt><trkpt lat="44.357207456597045" lon="8.45381107497343"><ele>412.5</ele><time>2026-04-03T14:24:56.001Z</time></trkpt><trkpt lat="44.357226056090305" lon="8.453648699486376"><ele>412.75</ele><time>2026-04-03T14:24:58.001Z</time></trkpt><trkpt lat="44.3572363130304" lon="8.45349221588396"><ele>413.0</ele><time>2026-04-03T14:25:00.001Z</time></trkpt><trkpt lat="44.35724153812236" lon="8.453337161483322"><ele>412.99999999999994</ele><time>2026-04-03T14:25:02.001Z</time></trkpt><trkpt lat="44.357245215330174" lon="8.453245379033426"><ele>413.0</ele><time>2026-04-03T14:25:04.001Z</time></trkpt><trkpt lat="44.35725598718479" lon="8.453097300277584"><ele>413.0</ele><time>2026-04-03T14:25:15.002Z</time></trkpt><trkpt lat="44.35726790637429" lon="8.453007183023102"><ele>413.0</ele><time>2026-04-03T14:25:16.002Z</time></trkpt><trkpt lat="44.35728699287211" lon="8.452902926938357"><ele>412.99999999999994</ele><time>2026-04-03T14:25:17.002Z</time></trkpt><trkpt lat="44.357308884922126" lon="8.452759234269692"><ele>413.0</ele><time>2026-04-03T14:25:18.002Z</time></trkpt><trkpt lat="44.35736253530024" lon="8.452605146404666"><ele>412.99999999999994</ele><time>2026-04-03T14:25:19.002Z</time></trkpt><trkpt lat="44.35741986915158" lon="8.45248975664896"><ele>413.0</ele><time>2026-04-03T14:25:20.002Z</time></trkpt><trkpt lat="44.3574673951121" lon="8.452374176661856"><ele>413.0</ele><time>2026-04-03T14:25:21.002Z</time></trkpt><trkpt lat="44.35750899794925" lon="8.4522730012991"><ele>413.0</ele><time>2026-04-03T14:25:22.002Z</time></trkpt><trkpt lat="44.357548557926194" lon="8.452176794057005"><ele>412.99999999999994</ele><time>2026-04-03T14:25:23.002Z</time></trkpt><trkpt lat="44.35758933476997" lon="8.452086471415369"><ele>413.0</ele><time>2026-04-03T14:25:24.002Z</time></trkpt><trkpt lat="44.357612321500454" lon="8.45199254114437"><ele>412.79999999999995</ele><time>2026-04-03T14:25:25.002Z</time></trkpt><trkpt lat="44.35768299363248" lon="8.451863267876861"><ele>412.6</ele><time>2026-04-03T14:25:27.002Z</time></trkpt><trkpt lat="44.35770500230666" lon="8.451778711630066"><ele>412.4</ele><time>2026-04-03T14:25:28.002Z</time></trkpt><trkpt lat="44.357715399149576" lon="8.451690497965638"><ele>412.20000000000005</ele><time>2026-04-03T14:25:29.002Z</time></trkpt><trkpt lat="44.35770104707689" lon="8.451528235009613"><ele>412.0</ele><time>2026-04-03T14:25:31.002Z</time></trkpt><trkpt lat="44.35767269045084" lon="8.451383302823013"><ele>411.0</ele><time>2026-04-03T14:25:33.002Z</time></trkpt><trkpt lat="44.35763790511137" lon="8.451240617299735"><ele>410.0</ele><time>2026-04-03T14:25:35.002Z</time></trkpt><trkpt lat="44.35761763059311" lon="8.451156949623083"><ele>409.0</ele><time>2026-04-03T14:25:36.002Z</time></trkpt><trkpt lat="44.35760065740081" lon="8.451049953409987"><ele>408.0</ele><time>2026-04-03T14:25:37.002Z</time></trkpt><trkpt lat="44.35758828719925" lon="8.450912099252967"><ele>407.0</ele><time>2026-04-03T14:25:38.002Z</time></trkpt><trkpt lat="44.35756734095859" lon="8.450744272797326"><ele>407.0</ele><time>2026-04-03T14:25:39.002Z</time></trkpt><trkpt lat="44.35757199525962" lon="8.450600953917837"><ele>407.0</ele><time>2026-04-03T14:25:40.002Z</time></trkpt><trkpt lat="44.35757025796652" lon="8.450490288192487"><ele>407.0</ele><time>2026-04-03T14:25:41.002Z</time></trkpt><trkpt lat="44.35757703946068" lon="8.450338624944829"><ele>407.0</ele><time>2026-04-03T14:25:43.001Z</time></trkpt><trkpt lat="44.35760545827886" lon="8.45017257855674"><ele>407.0</ele><time>2026-04-03T14:25:45.001Z</time></trkpt><trkpt lat="44.35763035659856" lon="8.450075684938298"><ele>405.20000000000005</ele><time>2026-04-03T14:25:46.001Z</time></trkpt><trkpt lat="44.357688220575646" lon="8.449944761250595"><ele>403.4</ele><time>2026-04-03T14:25:48.001Z</time></trkpt><trkpt lat="44.35776695147833" lon="8.449804182723794"><ele>401.6</ele><time>2026-04-03T14:25:50.001Z</time></trkpt><trkpt lat="44.35783430756621" lon="8.449716470316517"><ele>399.79999999999995</ele><time>2026-04-03T14:25:51.001Z</time></trkpt><trkpt lat="44.35789850185834" lon="8.449638344668402"><ele>398.0</ele><time>2026-04-03T14:25:52.001Z</time></trkpt><trkpt lat="44.357935515790906" lon="8.449556260025622"><ele>396.49999999999994</ele><time>2026-04-03T14:25:53.001Z</time></trkpt><trkpt lat="44.357949585166324" lon="8.449455279520615"><ele>395.0</ele><time>2026-04-03T14:25:54.001Z</time></trkpt><trkpt lat="44.357959115329116" lon="8.449356006138093"><ele>393.5</ele><time>2026-04-03T14:25:55.001Z</time></trkpt><trkpt lat="44.35796338466483" lon="8.449234108248723"><ele>392.0</ele><time>2026-04-03T14:25:56.001Z</time></trkpt><trkpt lat="44.35796643566008" lon="8.449121435427505"><ele>390.49999999999994</ele><time>2026-04-03T14:25:57.001Z</time></trkpt><trkpt lat="44.35797008446389" lon="8.44901550892145"><ele>389.0</ele><time>2026-04-03T14:25:58.001Z</time></trkpt><trkpt lat="44.357979691622724" lon="8.448903536621097"><ele>388.99999999999994</ele><time>2026-04-03T14:25:59.001Z</time></trkpt><trkpt lat="44.35799666424714" lon="8.448808154225533"><ele>389.0</ele><time>2026-04-03T14:26:00.001Z</time></trkpt><trkpt lat="44.35801177279415" lon="8.44871988870752"><ele>389.0</ele><time>2026-04-03T14:26:01.001Z</time></trkpt><trkpt lat="44.35800490512689" lon="8.44853845515933"><ele>389.0</ele><time>2026-04-03T14:26:03.001Z</time></trkpt><trkpt lat="44.35797362388687" lon="8.448445763961287"><ele>388.99999999999994</ele><time>2026-04-03T14:26:04.001Z</time></trkpt><trkpt lat="44.357925973124985" lon="8.448338214716985"><ele>389.0</ele><time>2026-04-03T14:26:05.001Z</time></trkpt><trkpt lat="44.35788346943557" lon="8.44825855481789"><ele>389.99999999999994</ele><time>2026-04-03T14:26:06.001Z</time></trkpt><trkpt lat="44.35785029594978" lon="8.448145182374525"><ele>391.0</ele><time>2026-04-03T14:26:08.001Z</time></trkpt><trkpt lat="44.357883957389376" lon="8.44801675472304"><ele>392.0</ele><time>2026-04-03T14:26:10.001Z</time></trkpt><trkpt lat="44.35789414913978" lon="8.44791821199826"><ele>393.0</ele><time>2026-04-03T14:26:11.001Z</time></trkpt><trkpt lat="44.35792549660396" lon="8.447828478917142"><ele>393.99999999999994</ele><time>2026-04-03T14:26:12.001Z</time></trkpt><trkpt lat="44.35793928706635" lon="8.447711704587507"><ele>395.0</ele><time>2026-04-03T14:26:13.001Z</time></trkpt><trkpt lat="44.35792515272527" lon="8.447592395785627"><ele>398.3333333333333</ele><time>2026-04-03T14:26:14.001Z</time></trkpt><trkpt lat="44.35787893035842" lon="8.447484868084974"><ele>401.66666666666663</ele><time>2026-04-03T14:26:15.001Z</time></trkpt><trkpt lat="44.35783117524763" lon="8.447403943843197"><ele>405.0</ele><time>2026-04-03T14:26:16.001Z</time></trkpt><trkpt lat="44.35777546920557" lon="8.447329839529694"><ele>408.33333333333337</ele><time>2026-04-03T14:26:17.001Z</time></trkpt><trkpt lat="44.35770412613044" lon="8.447253773688203"><ele>411.6666666666667</ele><time>2026-04-03T14:26:18.001Z</time></trkpt><trkpt lat="44.35765258555817" lon="8.447185818984293"><ele>415.0</ele><time>2026-04-03T14:26:19.001Z</time></trkpt><trkpt lat="44.35760804386175" lon="8.447107703617323"><ele>417.33333333333337</ele><time>2026-04-03T14:26:20.001Z</time></trkpt><trkpt lat="44.3575573981295" lon="8.447008411092463"><ele>419.6666666666667</ele><time>2026-04-03T14:26:21.001Z</time></trkpt><trkpt lat="44.3575046141649" lon="8.446890733874387"><ele>422.0</ele><time>2026-04-03T14:26:22.001Z</time></trkpt><trkpt lat="44.35746956141545" lon="8.446800575874972"><ele>424.33333333333337</ele><time>2026-04-03T14:26:23.001Z</time></trkpt><trkpt lat="44.35743008889902" lon="8.4466774582925"><ele>426.6666666666667</ele><time>2026-04-03T14:26:25.001Z</time></trkpt><trkpt lat="44.35742523314327" lon="8.446565772030736"><ele>429.0</ele><time>2026-04-03T14:26:27.001Z</time></trkpt><trkpt lat="44.35749898133259" lon="8.446441691713689"><ele>429.0</ele><time>2026-04-03T14:26:29.001Z</time></trkpt><trkpt lat="44.35756444514497" lon="8.446359479778481"><ele>429.0</ele><time>2026-04-03T14:26:30.001Z</time></trkpt><trkpt lat="44.357650295164305" lon="8.446281301870714"><ele>429.0</ele><time>2026-04-03T14:26:31.001Z</time></trkpt><trkpt lat="44.3577123221471" lon="8.446173790178483"><ele>429.0</ele><time>2026-04-03T14:26:32.001Z</time></trkpt><trkpt lat="44.357755798676344" lon="8.446084414463238"><ele>429.0</ele><time>2026-04-03T14:26:33.001Z</time></trkpt><trkpt lat="44.35780357896609" lon="8.44596238272352"><ele>427.6</ele><time>2026-04-03T14:26:35.001Z</time></trkpt><trkpt lat="44.35774851661965" lon="8.445779226002825"><ele>426.2</ele><time>2026-04-03T14:26:37.001Z</time></trkpt><trkpt lat="44.35775207924675" lon="8.445688948971739"><ele>424.8</ele><time>2026-04-03T14:26:38.001Z</time></trkpt><trkpt lat="44.35774291206226" lon="8.44555422036576"><ele>423.40000000000003</ele><time>2026-04-03T14:26:40.001Z</time></trkpt><trkpt lat="44.35775359892664" lon="8.445408324794254"><ele>422.0</ele><time>2026-04-03T14:26:42.001Z</time></trkpt><trkpt lat="44.35782210404941" lon="8.445250565032218"><ele>424.8333333333333</ele><time>2026-04-03T14:26:44.001Z</time></trkpt><trkpt lat="44.35787224082566" lon="8.445115338878763"><ele>427.66666666666663</ele><time>2026-04-03T14:26:46.001Z</time></trkpt><trkpt lat="44.357844336709256" lon="8.444996361106774"><ele>430.5</ele><time>2026-04-03T14:26:48.001Z</time></trkpt><trkpt lat="44.35780587762327" lon="8.44492192712544"><ele>433.33333333333337</ele><time>2026-04-03T14:26:49.001Z</time></trkpt><trkpt lat="44.357735776186914" lon="8.444849847984493"><ele>436.1666666666667</ele><time>2026-04-03T14:26:50.001Z</time></trkpt><trkpt lat="44.35766167244289" lon="8.444801268137065"><ele>439.0</ele><time>2026-04-03T14:26:51.001Z</time></trkpt><trkpt lat="44.35760062738863" lon="8.444772616996994"><ele>439.00000000000006</ele><time>2026-04-03T14:26:52.001Z</time></trkpt><trkpt lat="44.35750103014053" lon="8.444721338628309"><ele>439.0</ele><time>2026-04-03T14:27:05.001Z</time></trkpt><trkpt lat="44.357432891816885" lon="8.444680280865807"><ele>439.0</ele><time>2026-04-03T14:27:06.001Z</time></trkpt><trkpt lat="44.357373290565334" lon="8.444635210781287"><ele>439.0</ele><time>2026-04-03T14:27:07.001Z</time></trkpt><trkpt lat="44.35731827364046" lon="8.44458505633464"><ele>439.00000000000006</ele><time>2026-04-03T14:27:08.001Z</time></trkpt><trkpt lat="44.35722449135546" lon="8.444483694334574"><ele>439.0</ele><time>2026-04-03T14:27:10.001Z</time></trkpt><trkpt lat="44.35713049715526" lon="8.444345757267357"><ele>437.1666666666667</ele><time>2026-04-03T14:27:12.001Z</time></trkpt><trkpt lat="44.35708024547879" lon="8.44425291595575"><ele>435.33333333333337</ele><time>2026-04-03T14:27:13.001Z</time></trkpt><trkpt lat="44.35703712681769" lon="8.444143280440981"><ele>433.5</ele><time>2026-04-03T14:27:14.001Z</time></trkpt><trkpt lat="44.35700656048368" lon="8.444034030726364"><ele>431.66666666666663</ele><time>2026-04-03T14:27:15.001Z</time></trkpt><trkpt lat="44.356961446648576" lon="8.44391384088605"><ele>429.8333333333333</ele><time>2026-04-03T14:27:16.001Z</time></trkpt><trkpt lat="44.35694335133689" lon="8.443805740784201"><ele>428.0</ele><time>2026-04-03T14:27:17.001Z</time></trkpt><trkpt lat="44.35691747298092" lon="8.44368125835293"><ele>428.0</ele><time>2026-04-03T14:27:19.001Z</time></trkpt><trkpt lat="44.35693036532371" lon="8.443576404996234"><ele>427.99999999999994</ele><time>2026-04-03T14:27:21.001Z</time></trkpt><trkpt lat="44.356993201808386" lon="8.443470329820997"><ele>427.99999999999994</ele><time>2026-04-03T14:27:23.001Z</time></trkpt><trkpt lat="44.35710042902588" lon="8.443349433383426"><ele>428.0</ele><time>2026-04-03T14:27:25.001Z</time></trkpt><trkpt lat="44.35718841936419" lon="8.44329964800488"><ele>428.0</ele><time>2026-04-03T14:27:26.001Z</time></trkpt><trkpt lat="44.35726777882451" lon="8.443218538984661"><ele>435.4</ele><time>2026-04-03T14:27:27.001Z</time></trkpt><trkpt lat="44.35735773522905" lon="8.4431581675823"><ele>442.79999999999995</ele><time>2026-04-03T14:27:28.001Z</time></trkpt><trkpt lat="44.357431267049094" lon="8.44307127539211"><ele>450.2</ele><time>2026-04-03T14:27:29.001Z</time></trkpt><trkpt lat="44.357503656216856" lon="8.44298600717632"><ele>457.6</ele><time>2026-04-03T14:27:31.001Z</time></trkpt><trkpt lat="44.35752264761906" lon="8.442827257281126"><ele>465.0</ele><time>2026-04-03T14:27:33.001Z</time></trkpt><trkpt lat="44.35746211711377" lon="8.442665078901808"><ele>465.0</ele><time>2026-04-03T14:27:35.001Z</time></trkpt><trkpt lat="44.3574286908183" lon="8.442585234711384"><ele>465.0</ele><time>2026-04-03T14:27:36.001Z</time></trkpt><trkpt lat="44.35738806337473" lon="8.44251005094795"><ele>465.0</ele><time>2026-04-03T14:27:37.001Z</time></trkpt><trkpt lat="44.35738120761259" lon="8.442419933949571"><ele>465.0</ele><time>2026-04-03T14:27:38.001Z</time></trkpt><trkpt lat="44.357385493374096" lon="8.442325922479496"><ele>465.0</ele><time>2026-04-03T14:27:39.001Z</time></trkpt><trkpt lat="44.357404049502364" lon="8.442227601225335"><ele>465.0</ele><time>2026-04-03T14:27:40.001Z</time></trkpt><trkpt lat="44.35743593562575" lon="8.442112409155353"><ele>465.0</ele><time>2026-04-03T14:27:41.001Z</time></trkpt><trkpt lat="44.35747883110081" lon="8.441993363354008"><ele>462.6666666666667</ele><time>2026-04-03T14:27:42.001Z</time></trkpt><trkpt lat="44.35751445279003" lon="8.441881217099414"><ele>460.33333333333337</ele><time>2026-04-03T14:27:43.001Z</time></trkpt><trkpt lat="44.35756336238821" lon="8.441805761007819"><ele>458.0</ele><time>2026-04-03T14:27:44.001Z</time></trkpt><trkpt lat="44.35759718412504" lon="8.441723703049856"><ele>455.6666666666667</ele><time>2026-04-03T14:27:45.001Z</time></trkpt><trkpt lat="44.357634890638195" lon="8.441628281568725"><ele>453.33333333333337</ele><time>2026-04-03T14:27:46.001Z</time></trkpt><trkpt lat="44.35765494907933" lon="8.441534639573526"><ele>451.0</ele><time>2026-04-03T14:27:47.001Z</time></trkpt><trkpt lat="44.3576957103931" lon="8.441444653106373"><ele>451.00000000000006</ele><time>2026-04-03T14:27:48.001Z</time></trkpt><trkpt lat="44.35774586810923" lon="8.441370561651297"><ele>451.0</ele><time>2026-04-03T14:27:49.001Z</time></trkpt><trkpt lat="44.35780492193629" lon="8.441303805753583"><ele>451.0</ele><time>2026-04-03T14:27:50.001Z</time></trkpt><trkpt lat="44.35788425825646" lon="8.44126629911996"><ele>451.0</ele><time>2026-04-03T14:27:51.001Z</time></trkpt><trkpt lat="44.357958449825254" lon="8.441186883421205"><ele>451.00000000000006</ele><time>2026-04-03T14:27:52.001Z</time></trkpt><trkpt lat="44.35802395152145" lon="8.441074267703002"><ele>451.0</ele><time>2026-04-03T14:27:53.001Z</time></trkpt><trkpt lat="44.35809682584805" lon="8.440994434675703"><ele>454.1666666666667</ele><time>2026-04-03T14:27:54.001Z</time></trkpt><trkpt lat="44.35815884934338" lon="8.4409084680489"><ele>457.33333333333337</ele><time>2026-04-03T14:27:55.001Z</time></trkpt><trkpt lat="44.3582074425066" lon="8.440828094289008"><ele>460.5</ele><time>2026-04-03T14:27:56.001Z</time></trkpt><trkpt lat="44.35825679257041" lon="8.440756030279196"><ele>463.66666666666663</ele><time>2026-04-03T14:27:57.001Z</time></trkpt><trkpt lat="44.35829328399611" lon="8.440667048061362"><ele>466.8333333333333</ele><time>2026-04-03T14:27:58.001Z</time></trkpt><trkpt lat="44.35834454175548" lon="8.44061066655203"><ele>470.0</ele><time>2026-04-03T14:27:59.001Z</time></trkpt><trkpt lat="44.35846453096789" lon="8.440553986929917"><ele>470.0</ele><time>2026-04-03T14:28:01.001Z</time></trkpt><trkpt lat="44.358528678528955" lon="8.440525471699802"><ele>470.0</ele><time>2026-04-03T14:28:02.001Z</time></trkpt><trkpt lat="44.35862039054599" lon="8.440429267945948"><ele>470.0</ele><time>2026-04-03T14:28:04.001Z</time></trkpt><trkpt lat="44.35865226753589" lon="8.440247358766431"><ele>470.0</ele><time>2026-04-03T14:28:06.001Z</time></trkpt><trkpt lat="44.358632293006124" lon="8.440134655315022"><ele>470.0</ele><time>2026-04-03T14:28:07.001Z</time></trkpt><trkpt lat="44.35862011630053" lon="8.440025798531616"><ele>468.3333333333333</ele><time>2026-04-03T14:28:08.001Z</time></trkpt><trkpt lat="44.35861093922768" lon="8.439903342993512"><ele>466.66666666666663</ele><time>2026-04-03T14:28:09.001Z</time></trkpt><trkpt lat="44.35861104756643" lon="8.4397819392888"><ele>465.0</ele><time>2026-04-03T14:28:10.001Z</time></trkpt><trkpt lat="44.35862206302566" lon="8.439668918638521"><ele>463.33333333333337</ele><time>2026-04-03T14:28:11.001Z</time></trkpt><trkpt lat="44.3586363761438" lon="8.43955527367699"><ele>461.6666666666667</ele><time>2026-04-03T14:28:12.001Z</time></trkpt><trkpt lat="44.358642192524215" lon="8.439457880830252"><ele>460.0</ele><time>2026-04-03T14:28:13.001Z</time></trkpt><trkpt lat="44.35867228852443" lon="8.4393539040931"><ele>459.0</ele><time>2026-04-03T14:28:14.001Z</time></trkpt><trkpt lat="44.35870480371354" lon="8.439240686208706"><ele>458.0</ele><time>2026-04-03T14:28:15.001Z</time></trkpt><trkpt lat="44.35872479775331" lon="8.439101966428534"><ele>457.0</ele><time>2026-04-03T14:28:16.001Z</time></trkpt><trkpt lat="44.35874642049279" lon="8.438940148315849"><ele>456.0</ele><time>2026-04-03T14:28:17.001Z</time></trkpt><trkpt lat="44.358769805738305" lon="8.438766113369573"><ele>455.0</ele><time>2026-04-03T14:28:18.001Z</time></trkpt><trkpt lat="44.35878652636278" lon="8.438604461739526"><ele>454.99999999999994</ele><time>2026-04-03T14:28:19.001Z</time></trkpt><trkpt lat="44.358811592806276" lon="8.43850448967846"><ele>455.0</ele><time>2026-04-03T14:28:20.001Z</time></trkpt><trkpt lat="44.35884014860963" lon="8.438410731120213"><ele>455.0</ele><time>2026-04-03T14:28:21.001Z</time></trkpt><trkpt lat="44.358849318300436" lon="8.438300339188793"><ele>455.0</ele><time>2026-04-03T14:28:22.001Z</time></trkpt><trkpt lat="44.35884553375825" lon="8.438194059632941"><ele>454.99999999999994</ele><time>2026-04-03T14:28:23.001Z</time></trkpt><trkpt lat="44.35882250108966" lon="8.43809285519844"><ele>455.0</ele><time>2026-04-03T14:28:24.001Z</time></trkpt><trkpt lat="44.35875185134413" lon="8.437931533581674"><ele>457.2</ele><time>2026-04-03T14:28:26.001Z</time></trkpt><trkpt lat="44.358744604054536" lon="8.43780009285021"><ele>459.4</ele><time>2026-04-03T14:28:27.001Z</time></trkpt><trkpt lat="44.358743352306085" lon="8.437679739889724"><ele>461.6</ele><time>2026-04-03T14:28:28.001Z</time></trkpt><trkpt lat="44.35874464459534" lon="8.437568283604818"><ele>463.8</ele><time>2026-04-03T14:28:29.001Z</time></trkpt><trkpt lat="44.35871820419601" lon="8.437385317481075"><ele>466.0</ele><time>2026-04-03T14:28:31.001Z</time></trkpt><trkpt lat="44.35863469581753" lon="8.437203531334942"><ele>467.83333333333337</ele><time>2026-04-03T14:28:33.001Z</time></trkpt><trkpt lat="44.358594291163406" lon="8.43710890794088"><ele>469.6666666666667</ele><time>2026-04-03T14:28:34.001Z</time></trkpt><trkpt lat="44.358546300369795" lon="8.437001350149357"><ele>471.5</ele><time>2026-04-03T14:28:35.001Z</time></trkpt><trkpt lat="44.35852116602925" lon="8.43690348082538"><ele>473.33333333333337</ele><time>2026-04-03T14:28:36.001Z</time></trkpt><trkpt lat="44.358501242689336" lon="8.436818481240929"><ele>475.1666666666667</ele><time>2026-04-03T14:28:37.001Z</time></trkpt><trkpt lat="44.35845331585084" lon="8.43665363722384"><ele>477.0</ele><time>2026-04-03T14:28:39.001Z</time></trkpt><trkpt lat="44.35844165032062" lon="8.436527946092022"><ele>477.0</ele><time>2026-04-03T14:28:40.001Z</time></trkpt><trkpt lat="44.35843820810239" lon="8.436409336911792"><ele>477.0</ele><time>2026-04-03T14:28:41.001Z</time></trkpt><trkpt lat="44.358444068130844" lon="8.436289953148666"><ele>477.0</ele><time>2026-04-03T14:28:42.001Z</time></trkpt><trkpt lat="44.358431108360506" lon="8.436178443132881"><ele>477.0</ele><time>2026-04-03T14:28:43.001Z</time></trkpt><trkpt lat="44.358433326034884" lon="8.43606239562902"><ele>477.0</ele><time>2026-04-03T14:28:44.001Z</time></trkpt><trkpt lat="44.35845383548174" lon="8.435955566168161"><ele>477.0</ele><time>2026-04-03T14:28:45.001Z</time></trkpt><trkpt lat="44.35847921046155" lon="8.435832429958577"><ele>478.40000000000003</ele><time>2026-04-03T14:28:46.001Z</time></trkpt><trkpt lat="44.358507429573834" lon="8.435713964242048"><ele>479.80000000000007</ele><time>2026-04-03T14:28:47.001Z</time></trkpt><trkpt lat="44.35853555444149" lon="8.435602153595179"><ele>481.2</ele><time>2026-04-03T14:28:48.001Z</time></trkpt><trkpt lat="44.358554765669226" lon="8.435483035436175"><ele>482.6</ele><time>2026-04-03T14:28:49.001Z</time></trkpt><trkpt lat="44.35857961710745" lon="8.435333445581549"><ele>484.0</ele><time>2026-04-03T14:28:50.001Z</time></trkpt><trkpt lat="44.35862661324386" lon="8.435195357168014"><ele>485.0</ele><time>2026-04-03T14:28:51.001Z</time></trkpt><trkpt lat="44.35867108463961" lon="8.43504053608973"><ele>486.0</ele><time>2026-04-03T14:28:52.001Z</time></trkpt><trkpt lat="44.358697564208924" lon="8.434907359041452"><ele>487.0</ele><time>2026-04-03T14:28:53.001Z</time></trkpt><trkpt lat="44.358630140979976" lon="8.434737345256208"><ele>488.0</ele><time>2026-04-03T14:28:55.001Z</time></trkpt><trkpt lat="44.358591583005996" lon="8.43458522999585"><ele>489.2857142857142</ele><time>2026-04-03T14:28:57.001Z</time></trkpt><trkpt lat="44.35855559886433" lon="8.434512230900603"><ele>490.57142857142856</ele><time>2026-04-03T14:28:58.001Z</time></trkpt><trkpt lat="44.35854076474159" lon="8.434413905243629"><ele>491.85714285714283</ele><time>2026-04-03T14:28:59.001Z</time></trkpt><trkpt lat="44.35850316390827" lon="8.434326865760552"><ele>493.1428571428571</ele><time>2026-04-03T14:29:00.001Z</time></trkpt><trkpt lat="44.358466041317804" lon="8.434239150952989"><ele>494.42857142857144</ele><time>2026-04-03T14:29:01.001Z</time></trkpt><trkpt lat="44.35848822019795" lon="8.43415569455985"><ele>495.7142857142857</ele><time>2026-04-03T14:29:02.001Z</time></trkpt><trkpt lat="44.35850026132338" lon="8.434059791126199"><ele>497.0</ele><time>2026-04-03T14:29:03.001Z</time></trkpt><trkpt lat="44.35854093255468" lon="8.433948579456567"><ele>497.0</ele><time>2026-04-03T14:29:04.001Z</time></trkpt><trkpt lat="44.35859316596263" lon="8.433849624550609"><ele>497.00000000000006</ele><time>2026-04-03T14:29:05.001Z</time></trkpt><trkpt lat="44.35862730686627" lon="8.433740026657048"><ele>497.00000000000006</ele><time>2026-04-03T14:29:06.001Z</time></trkpt><trkpt lat="44.358649723736946" lon="8.43360422154673"><ele>497.0</ele><time>2026-04-03T14:29:08.001Z</time></trkpt><trkpt lat="44.35864116610701" lon="8.433435828399443"><ele>497.0</ele><time>2026-04-03T14:29:10.001Z</time></trkpt><trkpt lat="44.35862614313193" lon="8.433342723648401"><ele>497.99999999999994</ele><time>2026-04-03T14:29:11.001Z</time></trkpt><trkpt lat="44.358605971237445" lon="8.433241257527477"><ele>499.0</ele><time>2026-04-03T14:29:12.001Z</time></trkpt><trkpt lat="44.35858390239555" lon="8.433132932442028"><ele>500.0</ele><time>2026-04-03T14:29:13.001Z</time></trkpt><trkpt lat="44.35856391826908" lon="8.43302644765808"><ele>501.0</ele><time>2026-04-03T14:29:14.001Z</time></trkpt><trkpt lat="44.35855143004239" lon="8.432924487484783"><ele>501.99999999999994</ele><time>2026-04-03T14:29:15.001Z</time></trkpt><trkpt lat="44.35854671793274" lon="8.432812234953765"><ele>503.0</ele><time>2026-04-03T14:29:16.001Z</time></trkpt><trkpt lat="44.358581966567655" lon="8.43269670091348"><ele>504.4</ele><time>2026-04-03T14:29:17.001Z</time></trkpt><trkpt lat="44.358629477480626" lon="8.432578218317214"><ele>505.79999999999995</ele><time>2026-04-03T14:29:18.001Z</time></trkpt><trkpt lat="44.35868864171154" lon="8.432452937192918"><ele>507.2</ele><time>2026-04-03T14:29:19.001Z</time></trkpt><trkpt lat="44.35875418827913" lon="8.432370515000711"><ele>508.6</ele><time>2026-04-03T14:29:20.001Z</time></trkpt><trkpt lat="44.358844730446414" lon="8.432256301982534"><ele>510.0</ele><time>2026-04-03T14:29:22.001Z</time></trkpt><trkpt lat="44.35889998085948" lon="8.432203700652193"><ele>513.6</ele><time>2026-04-03T14:29:23.001Z</time></trkpt><trkpt lat="44.358984063633656" lon="8.432161184509992"><ele>517.2</ele><time>2026-04-03T14:29:24.001Z</time></trkpt><trkpt lat="44.35907616559542" lon="8.432133715625605"><ele>520.8</ele><time>2026-04-03T14:29:25.001Z</time></trkpt><trkpt lat="44.35916174815941" lon="8.432080087352844"><ele>524.4</ele><time>2026-04-03T14:29:26.001Z</time></trkpt><trkpt lat="44.35924494594675" lon="8.431991964110134"><ele>528.0</ele><time>2026-04-03T14:29:27.001Z</time></trkpt><trkpt lat="44.359329858375744" lon="8.431878768376427"><ele>528.0</ele><time>2026-04-03T14:29:28.001Z</time></trkpt><trkpt lat="44.35939966778592" lon="8.431739236924273"><ele>528.0</ele><time>2026-04-03T14:29:29.001Z</time></trkpt><trkpt lat="44.35947522163451" lon="8.431599751345301"><ele>528.0</ele><time>2026-04-03T14:29:30.001Z</time></trkpt><trkpt lat="44.35956872804772" lon="8.431536785831879"><ele>528.0</ele><time>2026-04-03T14:29:31.001Z</time></trkpt><trkpt lat="44.35963186057049" lon="8.431458004106727"><ele>528.0</ele><time>2026-04-03T14:29:32.001Z</time></trkpt><trkpt lat="44.35972231026964" lon="8.431424065771495"><ele>531.75</ele><time>2026-04-03T14:29:33.001Z</time></trkpt><trkpt lat="44.35980249813003" lon="8.431321608084271"><ele>535.5</ele><time>2026-04-03T14:29:34.001Z</time></trkpt><trkpt lat="44.35987745321579" lon="8.431239577668588"><ele>539.25</ele><time>2026-04-03T14:29:35.001Z</time></trkpt><trkpt lat="44.35996675942637" lon="8.43108202698272"><ele>543.0</ele><time>2026-04-03T14:29:36.001Z</time></trkpt><trkpt lat="44.36005741840712" lon="8.430990693549267"><ele>543.0</ele><time>2026-04-03T14:29:37.001Z</time></trkpt><trkpt lat="44.36014364365916" lon="8.430882911129093"><ele>543.0</ele><time>2026-04-03T14:29:38.001Z</time></trkpt><trkpt lat="44.3602357426683" lon="8.43076400209097"><ele>543.0</ele><time>2026-04-03T14:29:39.001Z</time></trkpt><trkpt lat="44.36032402834074" lon="8.430636675745864"><ele>543.0</ele><time>2026-04-03T14:29:40.001Z</time></trkpt><trkpt lat="44.36042375742729" lon="8.430515160827987"><ele>540.0</ele><time>2026-04-03T14:29:41.001Z</time></trkpt><trkpt lat="44.36050854793443" lon="8.430387930628896"><ele>537.0</ele><time>2026-04-03T14:29:42.001Z</time></trkpt><trkpt lat="44.36059110188825" lon="8.430254543666116"><ele>534.0</ele><time>2026-04-03T14:29:43.001Z</time></trkpt><trkpt lat="44.36065953542854" lon="8.430093048769594"><ele>531.0</ele><time>2026-04-03T14:29:44.001Z</time></trkpt><trkpt lat="44.36073424833349" lon="8.429960399185235"><ele>535.0</ele><time>2026-04-03T14:29:45.001Z</time></trkpt><trkpt lat="44.36079573039902" lon="8.429868511745541"><ele>539.0</ele><time>2026-04-03T14:29:46.001Z</time></trkpt><trkpt lat="44.36086979625515" lon="8.429826754527078"><ele>543.0</ele><time>2026-04-03T14:29:47.001Z</time></trkpt><trkpt lat="44.36095336268821" lon="8.429811577842017"><ele>547.0</ele><time>2026-04-03T14:29:48.001Z</time></trkpt><trkpt lat="44.361040953771194" lon="8.429803378916917"><ele>551.0</ele><time>2026-04-03T14:29:49.001Z</time></trkpt><trkpt lat="44.36112582569453" lon="8.429761608141735"><ele>555.0</ele><time>2026-04-03T14:29:50.001Z</time></trkpt><trkpt lat="44.3612051535582" lon="8.42969553862427"><ele>555.0</ele><time>2026-04-03T14:29:51.001Z</time></trkpt><trkpt lat="44.36127899474704" lon="8.429672223335555"><ele>555.0</ele><time>2026-04-03T14:29:52.001Z</time></trkpt><trkpt lat="44.36136680684896" lon="8.42954748303965"><ele>555.0</ele><time>2026-04-03T14:29:54.001Z</time></trkpt><trkpt lat="44.36139809182008" lon="8.429454311220708"><ele>555.0</ele><time>2026-04-03T14:29:55.001Z</time></trkpt><trkpt lat="44.3614138818243" lon="8.429345629941455"><ele>555.0</ele><time>2026-04-03T14:29:56.001Z</time></trkpt><trkpt lat="44.36144673094419" lon="8.429216261586438"><ele>557.8</ele><time>2026-04-03T14:29:57.001Z</time></trkpt><trkpt lat="44.36147133470239" lon="8.429066218203355"><ele>560.6</ele><time>2026-04-03T14:29:58.001Z</time></trkpt><trkpt lat="44.36149036285043" lon="8.428919626268867"><ele>563.4</ele><time>2026-04-03T14:29:59.001Z</time></trkpt><trkpt lat="44.361507341994624" lon="8.428768447161344"><ele>566.2</ele><time>2026-04-03T14:30:00.001Z</time></trkpt><trkpt lat="44.361507262857266" lon="8.428604264928543"><ele>569.0</ele><time>2026-04-03T14:30:01.001Z</time></trkpt><trkpt lat="44.36153144266783" lon="8.428437808233916"><ele>572.0</ele><time>2026-04-03T14:30:02.001Z</time></trkpt><trkpt lat="44.36154723315625" lon="8.42827356130818"><ele>575.0</ele><time>2026-04-03T14:30:03.001Z</time></trkpt><trkpt lat="44.36156122425881" lon="8.428106024470807"><ele>578.0</ele><time>2026-04-03T14:30:04.001Z</time></trkpt><trkpt lat="44.36157421095555" lon="8.427964027523515"><ele>581.0</ele><time>2026-04-03T14:30:05.001Z</time></trkpt><trkpt lat="44.36159154544098" lon="8.427841128348723"><ele>584.0</ele><time>2026-04-03T14:30:06.001Z</time></trkpt><trkpt lat="44.36161674628698" lon="8.42770189998605"><ele>585.4</ele><time>2026-04-03T14:30:07.001Z</time></trkpt><trkpt lat="44.361639812575056" lon="8.427586296911453"><ele>586.8</ele><time>2026-04-03T14:30:08.001Z</time></trkpt><trkpt lat="44.36167251218207" lon="8.427451598202696"><ele>588.2</ele><time>2026-04-03T14:30:09.001Z</time></trkpt><trkpt lat="44.361708870688105" lon="8.42731449618423"><ele>589.6</ele><time>2026-04-03T14:30:10.001Z</time></trkpt><trkpt lat="44.36175892769225" lon="8.427201285512187"><ele>591.0</ele><time>2026-04-03T14:30:11.001Z</time></trkpt><trkpt lat="44.36181165507263" lon="8.427101125603276"><ele>592.5</ele><time>2026-04-03T14:30:12.001Z</time></trkpt><trkpt lat="44.36184184167442" lon="8.427023347065546"><ele>594.0</ele><time>2026-04-03T14:30:13.001Z</time></trkpt><trkpt lat="44.361874475389776" lon="8.42684750484066"><ele>595.5</ele><time>2026-04-03T14:30:15.001Z</time></trkpt><trkpt lat="44.361818631590104" lon="8.426749075080867"><ele>597.0</ele><time>2026-04-03T14:30:16.001Z</time></trkpt><trkpt lat="44.361759957403514" lon="8.426664362964146"><ele>598.5</ele><time>2026-04-03T14:30:17.001Z</time></trkpt><trkpt lat="44.36171949049822" lon="8.42658544294145"><ele>600.0</ele><time>2026-04-03T14:30:18.001Z</time></trkpt><trkpt lat="44.36169676328518" lon="8.42648388781239"><ele>600.0</ele><time>2026-04-03T14:30:19.001Z</time></trkpt><trkpt lat="44.361679324748174" lon="8.426371468804527"><ele>600.0</ele><time>2026-04-03T14:30:20.001Z</time></trkpt><trkpt lat="44.36169154685552" lon="8.42622658678309"><ele>600.0</ele><time>2026-04-03T14:30:21.001Z</time></trkpt><trkpt lat="44.36169756162149" lon="8.426070346212763"><ele>600.0</ele><time>2026-04-03T14:30:22.001Z</time></trkpt><trkpt lat="44.36172574200521" lon="8.425900248996712"><ele>600.0</ele><time>2026-04-03T14:30:23.001Z</time></trkpt><trkpt lat="44.36174277513046" lon="8.425732526421571"><ele>602.0</ele><time>2026-04-03T14:30:24.001Z</time></trkpt><trkpt lat="44.361763391450246" lon="8.425564223391678"><ele>604.0</ele><time>2026-04-03T14:30:25.001Z</time></trkpt><trkpt lat="44.361770310839574" lon="8.42540485999629"><ele>606.0</ele><time>2026-04-03T14:30:26.001Z</time></trkpt><trkpt lat="44.361812968400066" lon="8.425261693529492"><ele>608.0</ele><time>2026-04-03T14:30:27.001Z</time></trkpt><trkpt lat="44.36187077408928" lon="8.425110825727886"><ele>607.75</ele><time>2026-04-03T14:30:28.001Z</time></trkpt><trkpt lat="44.36194358782811" lon="8.424965451652188"><ele>607.5</ele><time>2026-04-03T14:30:29.001Z</time></trkpt><trkpt lat="44.362004764090976" lon="8.424811469428661"><ele>607.25</ele><time>2026-04-03T14:30:30.001Z</time></trkpt><trkpt lat="44.362045853213885" lon="8.42464953479276"><ele>607.0</ele><time>2026-04-03T14:30:31.001Z</time></trkpt><trkpt lat="44.36207605286689" lon="8.424480114844812"><ele>607.0</ele><time>2026-04-03T14:30:32.001Z</time></trkpt><trkpt lat="44.36210282339597" lon="8.424314358987704"><ele>607.0</ele><time>2026-04-03T14:30:33.001Z</time></trkpt><trkpt lat="44.36213254287036" lon="8.424183508652169"><ele>607.0</ele><time>2026-04-03T14:30:34.001Z</time></trkpt><trkpt lat="44.36217713140998" lon="8.42409886669275"><ele>607.0</ele><time>2026-04-03T14:30:35.001Z</time></trkpt><trkpt lat="44.362228023861206" lon="8.424015600819425"><ele>607.0</ele><time>2026-04-03T14:30:36.001Z</time></trkpt><trkpt lat="44.362281270268646" lon="8.423923870408814"><ele>609.2</ele><time>2026-04-03T14:30:37.001Z</time></trkpt><trkpt lat="44.36235163938866" lon="8.42382642906054"><ele>611.4000000000001</ele><time>2026-04-03T14:30:38.001Z</time></trkpt><trkpt lat="44.362431199970096" lon="8.423723059063892"><ele>613.5999999999999</ele><time>2026-04-03T14:30:39.001Z</time></trkpt><trkpt lat="44.362511058913135" lon="8.42361868137222"><ele>615.8</ele><time>2026-04-03T14:30:40.001Z</time></trkpt><trkpt lat="44.362582018036676" lon="8.423530202073943"><ele>618.0</ele><time>2026-04-03T14:30:41.001Z</time></trkpt><trkpt lat="44.36264459690685" lon="8.423445561610531"><ele>618.0</ele><time>2026-04-03T14:30:42.001Z</time></trkpt><trkpt lat="44.36271710890288" lon="8.423367947927591"><ele>618.0</ele><time>2026-04-03T14:30:44.001Z</time></trkpt><trkpt lat="44.36280067836718" lon="8.423452972236799"><ele>618.0</ele><time>2026-04-03T14:30:46.001Z</time></trkpt><trkpt lat="44.362774183319054" lon="8.423556783923182"><ele>618.0</ele><time>2026-04-03T14:30:47.001Z</time></trkpt><trkpt lat="44.36270364868037" lon="8.42359176304956"><ele>618.0</ele><time>2026-04-03T14:30:48.001Z</time></trkpt><trkpt lat="44.36265991722725" lon="8.423670252758901"><ele>618.0</ele><time>2026-04-03T14:30:49.001Z</time></trkpt><trkpt lat="44.36261200714201" lon="8.423764213990555"><ele>621.6</ele><time>2026-04-03T14:30:50.001Z</time></trkpt><trkpt lat="44.36257109700419" lon="8.423893040806906"><ele>625.1999999999999</ele><time>2026-04-03T14:30:51.001Z</time></trkpt><trkpt lat="44.36254495832563" lon="8.424032192469145"><ele>628.8</ele><time>2026-04-03T14:30:52.001Z</time></trkpt><trkpt lat="44.362528762895785" lon="8.424167784603364"><ele>632.4</ele><time>2026-04-03T14:30:53.001Z</time></trkpt><trkpt lat="44.36252144121284" lon="8.424314044289627"><ele>636.0</ele><time>2026-04-03T14:30:54.001Z</time></trkpt><trkpt lat="44.36252261288847" lon="8.42445522824509"><ele>636.0</ele><time>2026-04-03T14:30:55.001Z</time></trkpt><trkpt lat="44.362542304663954" lon="8.42457054198013"><ele>636.0</ele><time>2026-04-03T14:30:56.001Z</time></trkpt><trkpt lat="44.362586541293545" lon="8.424653173209066"><ele>636.0</ele><time>2026-04-03T14:30:57.001Z</time></trkpt><trkpt lat="44.36268833199549" lon="8.424705804092431"><ele>636.0</ele><time>2026-04-03T14:30:59.001Z</time></trkpt><trkpt lat="44.3627698621291" lon="8.424643956062535"><ele>636.0</ele><time>2026-04-03T14:31:01.001Z</time></trkpt><trkpt lat="44.362808481380995" lon="8.424474890162161"><ele>636.0</ele><time>2026-04-03T14:31:03.001Z</time></trkpt><trkpt lat="44.3628241748224" lon="8.424369263235086"><ele>636.0</ele><time>2026-04-03T14:31:04.001Z</time></trkpt><trkpt lat="44.36284871435745" lon="8.424254768935185"><ele>636.0</ele><time>2026-04-03T14:31:05.001Z</time></trkpt><trkpt lat="44.36287846183681" lon="8.42415910176265"><ele>636.0</ele><time>2026-04-03T14:31:06.001Z</time></trkpt><trkpt lat="44.362928984303714" lon="8.424035567161264"><ele>636.0</ele><time>2026-04-03T14:31:08.001Z</time></trkpt><trkpt lat="44.36298250647103" lon="8.423965270890564"><ele>636.0</ele><time>2026-04-03T14:31:09.001Z</time></trkpt><trkpt lat="44.36307084325948" lon="8.423945227439928"><ele>640.6</ele><time>2026-04-03T14:31:10.001Z</time></trkpt><trkpt lat="44.36316755926173" lon="8.423941538646625"><ele>645.2</ele><time>2026-04-03T14:31:11.001Z</time></trkpt><trkpt lat="44.3632667278889" lon="8.423935405294378"><ele>649.8000000000001</ele><time>2026-04-03T14:31:12.001Z</time></trkpt><trkpt lat="44.36337423496836" lon="8.423922436593113"><ele>654.4000000000001</ele><time>2026-04-03T14:31:13.001Z</time></trkpt><trkpt lat="44.363490777790666" lon="8.423912291221438"><ele>659.0</ele><time>2026-04-03T14:31:14.001Z</time></trkpt><trkpt lat="44.36360460243013" lon="8.423919003673653"><ele>659.0</ele><time>2026-04-03T14:31:15.001Z</time></trkpt><trkpt lat="44.36371776759804" lon="8.423932289198223"><ele>659.0</ele><time>2026-04-03T14:31:16.001Z</time></trkpt><trkpt lat="44.36383407965532" lon="8.423954675789899"><ele>659.0</ele><time>2026-04-03T14:31:17.001Z</time></trkpt><trkpt lat="44.36394590159649" lon="8.42395963570646"><ele>659.0</ele><time>2026-04-03T14:31:18.001Z</time></trkpt><trkpt lat="44.36404231579678" lon="8.423947744370706"><ele>659.0</ele><time>2026-04-03T14:31:19.001Z</time></trkpt><trkpt lat="44.364132381235386" lon="8.42392978844921"><ele>660.5</ele><time>2026-04-03T14:31:20.001Z</time></trkpt><trkpt lat="44.364225185169005" lon="8.42389380630163"><ele>662.0</ele><time>2026-04-03T14:31:21.001Z</time></trkpt><trkpt lat="44.36434062000554" lon="8.423873759615901"><ele>663.5</ele><time>2026-04-03T14:31:22.001Z</time></trkpt><trkpt lat="44.364449839227326" lon="8.423811039796597"><ele>665.0</ele><time>2026-04-03T14:31:23.001Z</time></trkpt><trkpt lat="44.36455684782362" lon="8.423738734744303"><ele>664.0</ele><time>2026-04-03T14:31:24.001Z</time></trkpt><trkpt lat="44.364660418260044" lon="8.423645729172378"><ele>663.0</ele><time>2026-04-03T14:31:25.001Z</time></trkpt><trkpt lat="44.364775926442526" lon="8.423581632035866"><ele>662.0</ele><time>2026-04-03T14:31:26.001Z</time></trkpt><trkpt lat="44.36489727993997" lon="8.423530148894516"><ele>661.0</ele><time>2026-04-03T14:31:27.001Z</time></trkpt><trkpt lat="44.36501109788547" lon="8.423474539212402"><ele>661.0</ele><time>2026-04-03T14:31:28.001Z</time></trkpt><trkpt lat="44.365112134759435" lon="8.42344431487322"><ele>661.0</ele><time>2026-04-03T14:31:29.001Z</time></trkpt><trkpt lat="44.3652048094865" lon="8.423415198031382"><ele>661.0</ele><time>2026-04-03T14:31:30.001Z</time></trkpt><trkpt lat="44.365300082033585" lon="8.423410516568376"><ele>661.0</ele><time>2026-04-03T14:31:31.001Z</time></trkpt><trkpt lat="44.36539985975369" lon="8.423420261410289"><ele>661.0</ele><time>2026-04-03T14:31:32.001Z</time></trkpt><trkpt lat="44.36548911207813" lon="8.423429963250479"><ele>664.4</ele><time>2026-04-03T14:31:33.001Z</time></trkpt><trkpt lat="44.365599283104174" lon="8.423449947533262"><ele>667.8</ele><time>2026-04-03T14:31:35.001Z</time></trkpt><trkpt lat="44.365699839625556" lon="8.423447138084974"><ele>671.1999999999999</ele><time>2026-04-03T14:31:37.001Z</time></trkpt><trkpt lat="44.36581107477596" lon="8.423400634711781"><ele>674.5999999999999</ele><time>2026-04-03T14:31:39.001Z</time></trkpt><trkpt lat="44.36587460966878" lon="8.423368247344097"><ele>678.0</ele><time>2026-04-03T14:31:40.001Z</time></trkpt><trkpt lat="44.36594219350414" lon="8.423330067068283"><ele>678.0</ele><time>2026-04-03T14:31:41.001Z</time></trkpt><trkpt lat="44.36601683094649" lon="8.423318257792424"><ele>678.0</ele><time>2026-04-03T14:31:42.001Z</time></trkpt><trkpt lat="44.366096228225956" lon="8.423290558119518"><ele>678.0</ele><time>2026-04-03T14:31:43.001Z</time></trkpt><trkpt lat="44.366175304872826" lon="8.423253005509112"><ele>678.0</ele><time>2026-04-03T14:31:44.001Z</time></trkpt><trkpt lat="44.36623947470899" lon="8.423211438518885"><ele>678.0</ele><time>2026-04-03T14:31:45.001Z</time></trkpt><trkpt lat="44.36630193905663" lon="8.423160507676233"><ele>678.0</ele><time>2026-04-03T14:31:46.001Z</time></trkpt><trkpt lat="44.366361087960826" lon="8.42308755637629"><ele>677.0</ele><time>2026-04-03T14:31:47.001Z</time></trkpt><trkpt lat="44.36643470162716" lon="8.423024621019916"><ele>676.0</ele><time>2026-04-03T14:31:48.001Z</time></trkpt><trkpt lat="44.366506585504595" lon="8.422942557870583"><ele>675.0</ele><time>2026-04-03T14:31:49.001Z</time></trkpt><trkpt lat="44.366574061834086" lon="8.422846700674501"><ele>674.0</ele><time>2026-04-03T14:31:50.001Z</time></trkpt><trkpt lat="44.36664414643576" lon="8.42274183385766"><ele>673.0</ele><time>2026-04-03T14:31:51.001Z</time></trkpt><trkpt lat="44.36670128150764" lon="8.422662366818738"><ele>672.4</ele><time>2026-04-03T14:31:52.001Z</time></trkpt><trkpt lat="44.36674707284512" lon="8.422599633353666"><ele>671.8</ele><time>2026-04-03T14:31:53.001Z</time></trkpt><trkpt lat="44.36684214728237" lon="8.422480198073465"><ele>671.2</ele><time>2026-04-03T14:31:55.001Z</time></trkpt><trkpt lat="44.36689982191171" lon="8.422425492751342"><ele>670.6</ele><time>2026-04-03T14:31:56.001Z</time></trkpt><trkpt lat="44.3669590846188" lon="8.422375152690835"><ele>670.0</ele><time>2026-04-03T14:31:57.001Z</time></trkpt><trkpt lat="44.36707976466757" lon="8.422300167967729"><ele>670.0</ele><time>2026-04-03T14:31:59.001Z</time></trkpt><trkpt lat="44.36715140721393" lon="8.422253361834025"><ele>670.0</ele><time>2026-04-03T14:32:00.001Z</time></trkpt><trkpt lat="44.36723099265727" lon="8.422208366873955"><ele>670.0</ele><time>2026-04-03T14:32:01.001Z</time></trkpt><trkpt lat="44.36731334830039" lon="8.422163194168872"><ele>670.0</ele><time>2026-04-03T14:32:02.001Z</time></trkpt><trkpt lat="44.36740233938873" lon="8.422106526453243"><ele>670.0</ele><time>2026-04-03T14:32:03.001Z</time></trkpt><trkpt lat="44.367493779408825" lon="8.422032152983853"><ele>667.25</ele><time>2026-04-03T14:32:04.001Z</time></trkpt><trkpt lat="44.36760713662306" lon="8.421952183776316"><ele>664.5</ele><time>2026-04-03T14:32:05.001Z</time></trkpt><trkpt lat="44.36774110154068" lon="8.421859648314081"><ele>661.75</ele><time>2026-04-03T14:32:06.001Z</time></trkpt><trkpt lat="44.36787646920428" lon="8.42178552613641"><ele>659.0</ele><time>2026-04-03T14:32:07.001Z</time></trkpt><trkpt lat="44.36798479545857" lon="8.421726876836464"><ele>661.3333333333333</ele><time>2026-04-03T14:32:08.001Z</time></trkpt><trkpt lat="44.368061044049476" lon="8.42167996765513"><ele>663.6666666666666</ele><time>2026-04-03T14:32:09.001Z</time></trkpt><trkpt lat="44.368127910258785" lon="8.421647404440185"><ele>666.0</ele><time>2026-04-03T14:32:10.001Z</time></trkpt><trkpt lat="44.36818231588334" lon="8.421579383437715"><ele>668.3333333333334</ele><time>2026-04-03T14:32:11.001Z</time></trkpt><trkpt lat="44.36823589705926" lon="8.421478947462939"><ele>670.6666666666667</ele><time>2026-04-03T14:32:12.001Z</time></trkpt><trkpt lat="44.36829163359176" lon="8.421363616084419"><ele>673.0</ele><time>2026-04-03T14:32:13.001Z</time></trkpt><trkpt lat="44.36834640180503" lon="8.421228492385591"><ele>673.0</ele><time>2026-04-03T14:32:14.001Z</time></trkpt><trkpt lat="44.36841988972355" lon="8.421091861882033"><ele>673.0</ele><time>2026-04-03T14:32:15Z</time></trkpt><trkpt lat="44.368500572468115" lon="8.420949290752548"><ele>673.0</ele><time>2026-04-03T14:32:16Z</time></trkpt><trkpt lat="44.36858351283945" lon="8.4207986868349"><ele>673.0</ele><time>2026-04-03T14:32:17Z</time></trkpt><trkpt lat="44.368655035305004" lon="8.420638769797778"><ele>669.0</ele><time>2026-04-03T14:32:18Z</time></trkpt><trkpt lat="44.36871658770512" lon="8.420455627173565"><ele>665.0</ele><time>2026-04-03T14:32:19Z</time></trkpt><trkpt lat="44.368766972421334" lon="8.42025881581111"><ele>661.0</ele><time>2026-04-03T14:32:20Z</time></trkpt><trkpt lat="44.36883487691719" lon="8.42007280925245"><ele>657.0</ele><time>2026-04-03T14:32:21Z</time></trkpt><trkpt lat="44.368896543129104" lon="8.419893569006193"><ele>663.8</ele><time>2026-04-03T14:32:22Z</time></trkpt><trkpt lat="44.36895195023947" lon="8.419737931705617"><ele>670.6</ele><time>2026-04-03T14:32:23Z</time></trkpt><trkpt lat="44.369005026711115" lon="8.419641577754208"><ele>677.4</ele><time>2026-04-03T14:32:24Z</time></trkpt><trkpt lat="44.369068337513696" lon="8.419565092402461"><ele>684.1999999999999</ele><time>2026-04-03T14:32:25Z</time></trkpt><trkpt lat="44.36913053550327" lon="8.419524422693174"><ele>691.0</ele><time>2026-04-03T14:32:26Z</time></trkpt><trkpt lat="44.36922516043749" lon="8.419456084979961"><ele>691.0</ele><time>2026-04-03T14:32:28Z</time></trkpt><trkpt lat="44.369378737804" lon="8.419258973342806"><ele>691.0</ele><time>2026-04-03T14:32:29Z</time></trkpt><trkpt lat="44.3694240773171" lon="8.419132755513765"><ele>691.0</ele><time>2026-04-03T14:32:30Z</time></trkpt><trkpt lat="44.36948329967095" lon="8.41901987918045"><ele>691.0</ele><time>2026-04-03T14:32:31Z</time></trkpt><trkpt lat="44.369565233674194" lon="8.418927417393908"><ele>691.0</ele><time>2026-04-03T14:32:32Z</time></trkpt><trkpt lat="44.36965998245725" lon="8.418837662657824"><ele>691.0</ele><time>2026-04-03T14:32:33Z</time></trkpt><trkpt lat="44.369757895108854" lon="8.418751462342223"><ele>691.0</ele><time>2026-04-03T14:32:34Z</time></trkpt><trkpt lat="44.36985634301259" lon="8.41865840194534"><ele>691.0</ele><time>2026-04-03T14:32:35Z</time></trkpt><trkpt lat="44.369925786090086" lon="8.418558952008622"><ele>691.0</ele><time>2026-04-03T14:32:36Z</time></trkpt><trkpt lat="44.36997440391902" lon="8.418437865321447"><ele>694.1999999999999</ele><time>2026-04-03T14:32:37Z</time></trkpt><trkpt lat="44.369992444275915" lon="8.418302359846415"><ele>697.4</ele><time>2026-04-03T14:32:38Z</time></trkpt><trkpt lat="44.370002894542935" lon="8.418168624445956"><ele>700.6</ele><time>2026-04-03T14:32:39Z</time></trkpt><trkpt lat="44.37000257760126" lon="8.418031662241725"><ele>703.8</ele><time>2026-04-03T14:32:40Z</time></trkpt><trkpt lat="44.37000980840163" lon="8.417874085524693"><ele>707.0</ele><time>2026-04-03T14:32:41Z</time></trkpt><trkpt lat="44.37001550532046" lon="8.417716183567185"><ele>707.0</ele><time>2026-04-03T14:32:42Z</time></trkpt><trkpt lat="44.37004538659382" lon="8.417586287947804"><ele>707.0</ele><time>2026-04-03T14:32:43.001Z</time></trkpt><trkpt lat="44.37010952940263" lon="8.417457884604682"><ele>707.0</ele><time>2026-04-03T14:32:44.001Z</time></trkpt><trkpt lat="44.370137328686326" lon="8.417324283430638"><ele>707.0</ele><time>2026-04-03T14:32:45.001Z</time></trkpt><trkpt lat="44.37011207765065" lon="8.417199624301423"><ele>707.0</ele><time>2026-04-03T14:32:46.001Z</time></trkpt><trkpt lat="44.37006583514731" lon="8.41708443514823"><ele>708.4000000000001</ele><time>2026-04-03T14:32:47.001Z</time></trkpt><trkpt lat="44.369995504219624" lon="8.416991268448271"><ele>709.8000000000001</ele><time>2026-04-03T14:32:48.001Z</time></trkpt><trkpt lat="44.369938005113006" lon="8.4168769214069"><ele>711.2</ele><time>2026-04-03T14:32:49.001Z</time></trkpt><trkpt lat="44.36990811434179" lon="8.416771272962041"><ele>712.6</ele><time>2026-04-03T14:32:50.001Z</time></trkpt><trkpt lat="44.36990041277784" lon="8.416659988104861"><ele>714.0</ele><time>2026-04-03T14:32:51.001Z</time></trkpt><trkpt lat="44.36989814689085" lon="8.416518399068638"><ele>714.0</ele><time>2026-04-03T14:32:52.001Z</time></trkpt><trkpt lat="44.36991410616647" lon="8.416366931760773"><ele>714.0</ele><time>2026-04-03T14:32:53.001Z</time></trkpt><trkpt lat="44.3699327203522" lon="8.416198338950487"><ele>714.0</ele><time>2026-04-03T14:32:54.001Z</time></trkpt><trkpt lat="44.36995781231949" lon="8.416020139601677"><ele>714.0</ele><time>2026-04-03T14:32:55.001Z</time></trkpt><trkpt lat="44.369970945277124" lon="8.415816932637709"><ele>714.6</ele><time>2026-04-03T14:32:56.001Z</time></trkpt><trkpt lat="44.36995399091538" lon="8.415615557704955"><ele>715.2</ele><time>2026-04-03T14:32:57.001Z</time></trkpt><trkpt lat="44.36993757120432" lon="8.41546135834765"><ele>715.8000000000001</ele><time>2026-04-03T14:32:58.001Z</time></trkpt><trkpt lat="44.36992634069511" lon="8.415330293135074"><ele>716.4000000000001</ele><time>2026-04-03T14:32:59.001Z</time></trkpt><trkpt lat="44.369904707621" lon="8.415197917818984"><ele>717.0</ele><time>2026-04-03T14:33:00.001Z</time></trkpt><trkpt lat="44.36990686665752" lon="8.415086011231176"><ele>717.2</ele><time>2026-04-03T14:33:01.001Z</time></trkpt><trkpt lat="44.3699564651868" lon="8.414934450188035"><ele>717.4000000000001</ele><time>2026-04-03T14:33:03.001Z</time></trkpt><trkpt lat="44.37001187886668" lon="8.414867586062174"><ele>717.5999999999999</ele><time>2026-04-03T14:33:04.001Z</time></trkpt><trkpt lat="44.370087119336844" lon="8.414809269118237"><ele>717.8</ele><time>2026-04-03T14:33:05.001Z</time></trkpt><trkpt lat="44.37018101261618" lon="8.414744509392536"><ele>718.0</ele><time>2026-04-03T14:33:06.001Z</time></trkpt><trkpt lat="44.37028699614817" lon="8.414676322053761"><ele>720.5</ele><time>2026-04-03T14:33:07.001Z</time></trkpt><trkpt lat="44.370395800014016" lon="8.414586659002184"><ele>723.0</ele><time>2026-04-03T14:33:08.001Z</time></trkpt><trkpt lat="44.37050600033725" lon="8.414484284822164"><ele>725.5</ele><time>2026-04-03T14:33:09.001Z</time></trkpt><trkpt lat="44.37062171859319" lon="8.41437928777057"><ele>728.0</ele><time>2026-04-03T14:33:10.001Z</time></trkpt><trkpt lat="44.37070141534466" lon="8.41427185598835"><ele>728.0</ele><time>2026-04-03T14:33:11.001Z</time></trkpt><trkpt lat="44.37076192321681" lon="8.414199982064929"><ele>728.0</ele><time>2026-04-03T14:33:12.001Z</time></trkpt><trkpt lat="44.3708154483968" lon="8.414130627428962"><ele>728.0</ele><time>2026-04-03T14:33:13.001Z</time></trkpt><trkpt lat="44.37087190008681" lon="8.41407575290298"><ele>728.0</ele><time>2026-04-03T14:33:14.001Z</time></trkpt><trkpt lat="44.370929080720444" lon="8.414026599342604"><ele>728.0</ele><time>2026-04-03T14:33:15.001Z</time></trkpt><trkpt lat="44.371021900221905" lon="8.41392883229966"><ele>728.0</ele><time>2026-04-03T14:33:17.001Z</time></trkpt><trkpt lat="44.371077298989455" lon="8.413810326063427"><ele>726.2</ele><time>2026-04-03T14:33:19.001Z</time></trkpt><trkpt lat="44.371088642240906" lon="8.413651242355954"><ele>724.4</ele><time>2026-04-03T14:33:21.001Z</time></trkpt><trkpt lat="44.37108276358165" lon="8.41350195411104"><ele>722.6</ele><time>2026-04-03T14:33:23.001Z</time></trkpt><trkpt lat="44.37104769582582" lon="8.413364123232249"><ele>720.8000000000001</ele><time>2026-04-03T14:33:25.001Z</time></trkpt><trkpt lat="44.37101573930536" lon="8.413243953960869"><ele>719.0</ele><time>2026-04-03T14:33:27.001Z</time></trkpt><trkpt lat="44.37098313136094" lon="8.413135448735236"><ele>719.0</ele><time>2026-04-03T14:33:29.001Z</time></trkpt><trkpt lat="44.370937581757794" lon="8.413015944552459"><ele>719.0</ele><time>2026-04-03T14:33:31.001Z</time></trkpt><trkpt lat="44.370948392105525" lon="8.412892542893287"><ele>719.0</ele><time>2026-04-03T14:33:33.001Z</time></trkpt><trkpt lat="44.370944068548916" lon="8.412799086434212"><ele>719.0</ele><time>2026-04-03T14:33:35.001Z</time></trkpt><trkpt lat="44.371072733098224" lon="8.412744974954025"><ele>719.0</ele><time>2026-04-03T14:33:36.001Z</time></trkpt><trkpt lat="44.371155792645425" lon="8.412723756326399"><ele>718.75</ele><time>2026-04-03T14:33:37.001Z</time></trkpt><trkpt lat="44.37125150798719" lon="8.412697985763579"><ele>718.5</ele><time>2026-04-03T14:33:38.001Z</time></trkpt><trkpt lat="44.37136716437302" lon="8.412661036560761"><ele>718.25</ele><time>2026-04-03T14:33:39.001Z</time></trkpt><trkpt lat="44.371485096355336" lon="8.412610015195604"><ele>718.0</ele><time>2026-04-03T14:33:40.001Z</time></trkpt><trkpt lat="44.37161441761156" lon="8.412539919540782"><ele>717.75</ele><time>2026-04-03T14:33:41.001Z</time></trkpt><trkpt lat="44.37173350002042" lon="8.412447083928715"><ele>717.5</ele><time>2026-04-03T14:33:42.001Z</time></trkpt><trkpt lat="44.37183527261765" lon="8.412329842424867"><ele>717.25</ele><time>2026-04-03T14:33:43.001Z</time></trkpt><trkpt lat="44.371926856780654" lon="8.412181748020469"><ele>717.0</ele><time>2026-04-03T14:33:44.001Z</time></trkpt><trkpt lat="44.37201112834789" lon="8.41202195927799"><ele>714.6666666666666</ele><time>2026-04-03T14:33:45.001Z</time></trkpt><trkpt lat="44.37210452647969" lon="8.4118462886538"><ele>712.3333333333333</ele><time>2026-04-03T14:33:46.001Z</time></trkpt><trkpt lat="44.372215204451045" lon="8.411686728983456"><ele>710.0</ele><time>2026-04-03T14:33:47.001Z</time></trkpt><trkpt lat="44.37232701817803" lon="8.411560422125907"><ele>711.0</ele><time>2026-04-03T14:33:48.001Z</time></trkpt><trkpt lat="44.37245774457928" lon="8.411457708691485"><ele>712.0</ele><time>2026-04-03T14:33:49.001Z</time></trkpt><trkpt lat="44.37260389709185" lon="8.41138190805217"><ele>713.0</ele><time>2026-04-03T14:33:50.001Z</time></trkpt><trkpt lat="44.37275281475227" lon="8.411298386945788"><ele>713.0</ele><time>2026-04-03T14:33:51.001Z</time></trkpt><trkpt lat="44.37289553871921" lon="8.411190607916435"><ele>713.0</ele><time>2026-04-03T14:33:52.001Z</time></trkpt><trkpt lat="44.37302541087971" lon="8.41105812490338"><ele>713.0</ele><time>2026-04-03T14:33:53.001Z</time></trkpt><trkpt lat="44.373144237177684" lon="8.41090404839134"><ele>716.5</ele><time>2026-04-03T14:33:54.001Z</time></trkpt><trkpt lat="44.37326002599841" lon="8.410749634255911"><ele>720.0</ele><time>2026-04-03T14:33:55.001Z</time></trkpt><trkpt lat="44.37337272768328" lon="8.410632013162058"><ele>723.5</ele><time>2026-04-03T14:33:56.001Z</time></trkpt><trkpt lat="44.373487848694786" lon="8.410557679999629"><ele>727.0</ele><time>2026-04-03T14:33:57.001Z</time></trkpt><trkpt lat="44.37361364532401" lon="8.410508197363757"><ele>726.5</ele><time>2026-04-03T14:33:58.001Z</time></trkpt><trkpt lat="44.37375623830643" lon="8.41049007150607"><ele>726.0</ele><time>2026-04-03T14:33:59.001Z</time></trkpt><trkpt lat="44.3739015415899" lon="8.410481374219806"><ele>725.5</ele><time>2026-04-03T14:34:00.001Z</time></trkpt><trkpt lat="44.374044852358324" lon="8.41047326522018"><ele>725.0</ele><time>2026-04-03T14:34:01.001Z</time></trkpt><trkpt lat="44.37419672312896" lon="8.410451315312354"><ele>725.0</ele><time>2026-04-03T14:34:02.001Z</time></trkpt><trkpt lat="44.374349017269274" lon="8.41043112254981"><ele>725.0</ele><time>2026-04-03T14:34:03.001Z</time></trkpt><trkpt lat="44.37450292890315" lon="8.410426517459765"><ele>725.0</ele><time>2026-04-03T14:34:04.001Z</time></trkpt><trkpt lat="44.374654762989486" lon="8.41038800415845"><ele>728.3333333333333</ele><time>2026-04-03T14:34:05Z</time></trkpt><trkpt lat="44.37480505997933" lon="8.410313392007813"><ele>731.6666666666666</ele><time>2026-04-03T14:34:06Z</time></trkpt><trkpt lat="44.37494710559805" lon="8.410216824632904"><ele>735.0</ele><time>2026-04-03T14:34:07Z</time></trkpt><trkpt lat="44.37509429175238" lon="8.410109453785696"><ele>735.0</ele><time>2026-04-03T14:34:08Z</time></trkpt><trkpt lat="44.37524112193347" lon="8.410016606121939"><ele>735.0</ele><time>2026-04-03T14:34:09Z</time></trkpt><trkpt lat="44.37539655904396" lon="8.40994386561337"><ele>735.0</ele><time>2026-04-03T14:34:10Z</time></trkpt><trkpt lat="44.37555819749159" lon="8.409870588257078"><ele>738.3333333333334</ele><time>2026-04-03T14:34:11Z</time></trkpt><trkpt lat="44.375722536401085" lon="8.409798670337677"><ele>741.6666666666667</ele><time>2026-04-03T14:34:12Z</time></trkpt><trkpt lat="44.37589497822805" lon="8.409738493689073"><ele>745.0</ele><time>2026-04-03T14:34:13Z</time></trkpt><trkpt lat="44.37607593464661" lon="8.409696740098806"><ele>745.0</ele><time>2026-04-03T14:34:14Z</time></trkpt><trkpt lat="44.37624983671032" lon="8.409683575326532"><ele>745.0</ele><time>2026-04-03T14:34:15Z</time></trkpt><trkpt lat="44.376404963204" lon="8.409671828003487"><ele>745.0</ele><time>2026-04-03T14:34:16Z</time></trkpt><trkpt lat="44.37654470045411" lon="8.409636729473819"><ele>742.25</ele><time>2026-04-03T14:34:17Z</time></trkpt><trkpt lat="44.37667842104281" lon="8.409581331390722"><ele>739.5</ele><time>2026-04-03T14:34:18Z</time></trkpt><trkpt lat="44.3767913779399" lon="8.409488055088826"><ele>736.75</ele><time>2026-04-03T14:34:19Z</time></trkpt><trkpt lat="44.37688024683267" lon="8.4093562571364"><ele>734.0</ele><time>2026-04-03T14:34:20Z</time></trkpt><trkpt lat="44.37694914955831" lon="8.409205506994232"><ele>734.0</ele><time>2026-04-03T14:34:21Z</time></trkpt><trkpt lat="44.376991395479365" lon="8.409034851349968"><ele>734.0</ele><time>2026-04-03T14:34:22Z</time></trkpt><trkpt lat="44.37701471704698" lon="8.408843547232223"><ele>734.0</ele><time>2026-04-03T14:34:23Z</time></trkpt><trkpt lat="44.377047132170794" lon="8.408648293402287"><ele>734.0</ele><time>2026-04-03T14:34:24Z</time></trkpt><trkpt lat="44.377072040078005" lon="8.408449324509009"><ele>730.6666666666666</ele><time>2026-04-03T14:34:25Z</time></trkpt><trkpt lat="44.377093904762326" lon="8.408237861721517"><ele>727.3333333333334</ele><time>2026-04-03T14:34:26Z</time></trkpt><trkpt lat="44.37714979191864" lon="8.40803110501666"><ele>724.0</ele><time>2026-04-03T14:34:27Z</time></trkpt><trkpt lat="44.3772342842159" lon="8.407832064803534"><ele>731.0</ele><time>2026-04-03T14:34:28Z</time></trkpt><trkpt lat="44.37729818797631" lon="8.407605042395646"><ele>738.0</ele><time>2026-04-03T14:34:29Z</time></trkpt><trkpt lat="44.37737460507309" lon="8.407393823104172"><ele>745.0</ele><time>2026-04-03T14:34:30Z</time></trkpt><trkpt lat="44.37744935833858" lon="8.407217760434307"><ele>740.25</ele><time>2026-04-03T14:34:31Z</time></trkpt><trkpt lat="44.37754083394112" lon="8.40708360731161"><ele>735.5</ele><time>2026-04-03T14:34:32Z</time></trkpt><trkpt lat="44.377656618094456" lon="8.406990269291173"><ele>730.75</ele><time>2026-04-03T14:34:33Z</time></trkpt><trkpt lat="44.377783463893635" lon="8.406946993353886"><ele>726.0</ele><time>2026-04-03T14:34:34Z</time></trkpt><trkpt lat="44.37791705704644" lon="8.406939570668769"><ele>727.75</ele><time>2026-04-03T14:34:35Z</time></trkpt><trkpt lat="44.37804155093099" lon="8.406963455796586"><ele>729.5</ele><time>2026-04-03T14:34:36Z</time></trkpt><trkpt lat="44.37815764409384" lon="8.40701907223988"><ele>731.25</ele><time>2026-04-03T14:34:37Z</time></trkpt><trkpt lat="44.378263031115296" lon="8.407111309176958"><ele>733.0</ele><time>2026-04-03T14:34:38Z</time></trkpt><trkpt lat="44.37836772290131" lon="8.407237918591647"><ele>738.0</ele><time>2026-04-03T14:34:39Z</time></trkpt><trkpt lat="44.37847314909515" lon="8.407376266596009"><ele>743.0</ele><time>2026-04-03T14:34:40Z</time></trkpt><trkpt lat="44.37857278609704" lon="8.40753743898679"><ele>748.0</ele><time>2026-04-03T14:34:41Z</time></trkpt><trkpt lat="44.37866657202236" lon="8.407717028944791"><ele>748.0</ele><time>2026-04-03T14:34:42Z</time></trkpt><trkpt lat="44.3787346502431" lon="8.407900719203395"><ele>748.0</ele><time>2026-04-03T14:34:43Z</time></trkpt><trkpt lat="44.378782831555185" lon="8.40805505500981"><ele>748.0</ele><time>2026-04-03T14:34:44Z</time></trkpt><trkpt lat="44.378829910177686" lon="8.408153688468236"><ele>748.0</ele><time>2026-04-03T14:34:45Z</time></trkpt><trkpt lat="44.37889250084341" lon="8.408237917548998"><ele>748.0</ele><time>2026-04-03T14:34:46Z</time></trkpt><trkpt lat="44.37895998132563" lon="8.408261011092966"><ele>748.0</ele><time>2026-04-03T14:34:47Z</time></trkpt><trkpt lat="44.37903156462063" lon="8.40824205779475"><ele>748.0</ele><time>2026-04-03T14:34:48Z</time></trkpt><trkpt lat="44.37908389821415" lon="8.408174816845019"><ele>748.0</ele><time>2026-04-03T14:34:49Z</time></trkpt><trkpt lat="44.37912435614761" lon="8.408062143515627"><ele>748.0</ele><time>2026-04-03T14:34:50Z</time></trkpt><trkpt lat="44.37914907407271" lon="8.40791981066741"><ele>748.0</ele><time>2026-04-03T14:34:51Z</time></trkpt><trkpt lat="44.37917096474438" lon="8.407761347369394"><ele>746.25</ele><time>2026-04-03T14:34:52Z</time></trkpt><trkpt lat="44.3791771328218" lon="8.407586135138605"><ele>744.5</ele><time>2026-04-03T14:34:53Z</time></trkpt><trkpt lat="44.379152636708014" lon="8.407395050789235"><ele>742.75</ele><time>2026-04-03T14:34:54Z</time></trkpt><trkpt lat="44.37910912988331" lon="8.407188261580494"><ele>741.0</ele><time>2026-04-03T14:34:55Z</time></trkpt><trkpt lat="44.379101122357156" lon="8.407006014755655"><ele>738.5</ele><time>2026-04-03T14:34:56Z</time></trkpt><trkpt lat="44.379089159141245" lon="8.40683796257297"><ele>736.0</ele><time>2026-04-03T14:34:57Z</time></trkpt><trkpt lat="44.37911466924963" lon="8.406660759462516"><ele>733.5</ele><time>2026-04-03T14:34:58Z</time></trkpt><trkpt lat="44.37915622750656" lon="8.406476110267416"><ele>731.0</ele><time>2026-04-03T14:34:59Z</time></trkpt><trkpt lat="44.379226139318014" lon="8.406281317094546"><ele>724.3333333333333</ele><time>2026-04-03T14:35:00Z</time></trkpt><trkpt lat="44.37931337847111" lon="8.406066245945917"><ele>717.6666666666666</ele><time>2026-04-03T14:35:01Z</time></trkpt><trkpt lat="44.37939368164672" lon="8.405842717090266"><ele>711.0</ele><time>2026-04-03T14:35:02Z</time></trkpt><trkpt lat="44.37946663137557" lon="8.405644204617097"><ele>713.25</ele><time>2026-04-03T14:35:03Z</time></trkpt><trkpt lat="44.379539197703174" lon="8.405486590186953"><ele>715.5</ele><time>2026-04-03T14:35:04Z</time></trkpt><trkpt lat="44.37962766557691" lon="8.405352947314054"><ele>717.75</ele><time>2026-04-03T14:35:05Z</time></trkpt><trkpt lat="44.37972883961255" lon="8.405256770462959"><ele>720.0</ele><time>2026-04-03T14:35:06Z</time></trkpt><trkpt lat="44.37984989960863" lon="8.405193334257868"><ele>720.0</ele><time>2026-04-03T14:35:07Z</time></trkpt><trkpt lat="44.37997645717475" lon="8.40513543737402"><ele>720.0</ele><time>2026-04-03T14:35:08Z</time></trkpt><trkpt lat="44.380114065722495" lon="8.405083888248102"><ele>720.0</ele><time>2026-04-03T14:35:09Z</time></trkpt><trkpt lat="44.38026581121" lon="8.405031586494065"><ele>720.0</ele><time>2026-04-03T14:35:10Z</time></trkpt><trkpt lat="44.38042326182536" lon="8.404971729976777"><ele>720.0</ele><time>2026-04-03T14:35:11Z</time></trkpt><trkpt lat="44.380589159499735" lon="8.404904713545703"><ele>720.0</ele><time>2026-04-03T14:35:12Z</time></trkpt><trkpt lat="44.380766976579544" lon="8.404834473055693"><ele>720.0</ele><time>2026-04-03T14:35:13Z</time></trkpt><trkpt lat="44.38095671535488" lon="8.404792557328358"><ele>720.0</ele><time>2026-04-03T14:35:14Z</time></trkpt><trkpt lat="44.38115803924779" lon="8.404777097285763"><ele>720.0</ele><time>2026-04-03T14:35:15Z</time></trkpt><trkpt lat="44.381361069002224" lon="8.40477545225584"><ele>720.0</ele><time>2026-04-03T14:35:16Z</time></trkpt><trkpt lat="44.38156425052535" lon="8.404756219543636"><ele>720.3333333333334</ele><time>2026-04-03T14:35:17Z</time></trkpt><trkpt lat="44.38175038683824" lon="8.404719647041322"><ele>720.6666666666667</ele><time>2026-04-03T14:35:18Z</time></trkpt><trkpt lat="44.38192570478885" lon="8.404676481897758"><ele>721.0</ele><time>2026-04-03T14:35:19Z</time></trkpt><trkpt lat="44.382078245446976" lon="8.404628038360494"><ele>717.75</ele><time>2026-04-03T14:35:20Z</time></trkpt><trkpt lat="44.382216434934016" lon="8.404570092623853"><ele>714.5</ele><time>2026-04-03T14:35:21Z</time></trkpt><trkpt lat="44.382340727928366" lon="8.404480098509044"><ele>711.25</ele><time>2026-04-03T14:35:22Z</time></trkpt><trkpt lat="44.382464023591695" lon="8.404359640276905"><ele>708.0</ele><time>2026-04-03T14:35:23Z</time></trkpt><trkpt lat="44.382592359933696" lon="8.404229863752695"><ele>708.0</ele><time>2026-04-03T14:35:24Z</time></trkpt><trkpt lat="44.382726784837956" lon="8.404113062783955"><ele>708.0</ele><time>2026-04-03T14:35:25Z</time></trkpt><trkpt lat="44.38286341104751" lon="8.404006843181799"><ele>708.0</ele><time>2026-04-03T14:35:26Z</time></trkpt><trkpt lat="44.38300981045719" lon="8.403912568752526"><ele>710.3333333333334</ele><time>2026-04-03T14:35:27Z</time></trkpt><trkpt lat="44.38316557370538" lon="8.403839921366709"><ele>712.6666666666667</ele><time>2026-04-03T14:35:28Z</time></trkpt><trkpt lat="44.38333385474717" lon="8.403776381310461"><ele>715.0</ele><time>2026-04-03T14:35:29Z</time></trkpt><trkpt lat="44.38351473105083" lon="8.403713738649763"><ele>709.6666666666667</ele><time>2026-04-03T14:35:30Z</time></trkpt><trkpt lat="44.38369952750418" lon="8.40365448650677"><ele>704.3333333333334</ele><time>2026-04-03T14:35:31Z</time></trkpt><trkpt lat="44.383893289008064" lon="8.403597968438588"><ele>699.0</ele><time>2026-04-03T14:35:32Z</time></trkpt><trkpt lat="44.38409649183889" lon="8.40352880726237"><ele>699.0</ele><time>2026-04-03T14:35:33Z</time></trkpt><trkpt lat="44.38430153504733" lon="8.403445058683744"><ele>699.0</ele><time>2026-04-03T14:35:34Z</time></trkpt><trkpt lat="44.38450676486697" lon="8.403355003085583"><ele>699.0</ele><time>2026-04-03T14:35:35Z</time></trkpt><trkpt lat="44.38469190666085" lon="8.403274539183863"><ele>701.0</ele><time>2026-04-03T14:35:36Z</time></trkpt><trkpt lat="44.384867540704626" lon="8.403178221849059"><ele>703.0</ele><time>2026-04-03T14:35:37Z</time></trkpt><trkpt lat="44.38503375103377" lon="8.403059196837798"><ele>705.0</ele><time>2026-04-03T14:35:38Z</time></trkpt><trkpt lat="44.38518448062986" lon="8.402940999252664"><ele>704.5</ele><time>2026-04-03T14:35:39Z</time></trkpt><trkpt lat="44.385317800670954" lon="8.402831531331802"><ele>704.0</ele><time>2026-04-03T14:35:40Z</time></trkpt><trkpt lat="44.38542749805664" lon="8.402741799060312"><ele>703.5</ele><time>2026-04-03T14:35:41Z</time></trkpt><trkpt lat="44.38552617750595" lon="8.402664665120511"><ele>703.0</ele><time>2026-04-03T14:35:42Z</time></trkpt><trkpt lat="44.385610611275524" lon="8.40258053037862"><ele>703.0</ele><time>2026-04-03T14:35:43Z</time></trkpt><trkpt lat="44.385683439124314" lon="8.402499097686835"><ele>703.0</ele><time>2026-04-03T14:35:44Z</time></trkpt><trkpt lat="44.38570868837118" lon="8.402335385408504"><ele>703.0</ele><time>2026-04-03T14:35:45Z</time></trkpt><trkpt lat="44.38575655753454" lon="8.402181375627858"><ele>703.0</ele><time>2026-04-03T14:35:46Z</time></trkpt><trkpt lat="44.385737137093074" lon="8.402031810047964"><ele>703.0</ele><time>2026-04-03T14:35:47Z</time></trkpt><trkpt lat="44.38578263513986" lon="8.401880479561981"><ele>700.4</ele><time>2026-04-03T14:35:48Z</time></trkpt><trkpt lat="44.385842642883475" lon="8.401789410686774"><ele>697.8</ele><time>2026-04-03T14:35:49.001Z</time></trkpt><trkpt lat="44.38591132916065" lon="8.401725194673862"><ele>695.2</ele><time>2026-04-03T14:35:50.001Z</time></trkpt><trkpt lat="44.38600601920632" lon="8.4017167620788"><ele>692.6</ele><time>2026-04-03T14:35:51.001Z</time></trkpt><trkpt lat="44.38611172169991" lon="8.401727363096251"><ele>690.0</ele><time>2026-04-03T14:35:52.001Z</time></trkpt><trkpt lat="44.38620233902223" lon="8.401705787823284"><ele>690.0</ele><time>2026-04-03T14:35:53.001Z</time></trkpt><trkpt lat="44.38628614374124" lon="8.401595046560653"><ele>690.0</ele><time>2026-04-03T14:35:54.001Z</time></trkpt><trkpt lat="44.386351428801134" lon="8.401464483377772"><ele>690.0</ele><time>2026-04-03T14:35:55.001Z</time></trkpt><trkpt lat="44.38641719748148" lon="8.401352320284255"><ele>690.0</ele><time>2026-04-03T14:35:56.001Z</time></trkpt><trkpt lat="44.386503927228155" lon="8.401294797330623"><ele>690.0</ele><time>2026-04-03T14:35:57.001Z</time></trkpt><trkpt lat="44.38660428601863" lon="8.401278657826134"><ele>690.0</ele><time>2026-04-03T14:35:58.001Z</time></trkpt><trkpt lat="44.38671853109415" lon="8.401322327203166"><ele>690.0</ele><time>2026-04-03T14:35:59.001Z</time></trkpt><trkpt lat="44.3868572024888" lon="8.401375274361566"><ele>690.0</ele><time>2026-04-03T14:36:00.001Z</time></trkpt><trkpt lat="44.386989241265205" lon="8.401465726164517"><ele>690.0</ele><time>2026-04-03T14:36:01.001Z</time></trkpt><trkpt lat="44.38710493460921" lon="8.401609760510198"><ele>684.6666666666666</ele><time>2026-04-03T14:36:02.001Z</time></trkpt><trkpt lat="44.38723507125719" lon="8.401779338863372"><ele>679.3333333333333</ele><time>2026-04-03T14:36:03.001Z</time></trkpt><trkpt lat="44.38735591723513" lon="8.40194119033623"><ele>674.0</ele><time>2026-04-03T14:36:04.001Z</time></trkpt><trkpt lat="44.387438960368186" lon="8.40208585867895"><ele>676.2</ele><time>2026-04-03T14:36:05.001Z</time></trkpt><trkpt lat="44.38747334984529" lon="8.402222064411234"><ele>678.4000000000001</ele><time>2026-04-03T14:36:06.001Z</time></trkpt><trkpt lat="44.387487838065375" lon="8.402370850828277"><ele>680.6</ele><time>2026-04-03T14:36:07.001Z</time></trkpt><trkpt lat="44.387525279331356" lon="8.402520788546976"><ele>682.8</ele><time>2026-04-03T14:36:08.001Z</time></trkpt><trkpt lat="44.38757637771956" lon="8.402640606730161"><ele>685.0</ele><time>2026-04-03T14:36:09.001Z</time></trkpt><trkpt lat="44.38766367140289" lon="8.402694657810748"><ele>685.0</ele><time>2026-04-03T14:36:10.001Z</time></trkpt><trkpt lat="44.387743968821674" lon="8.402708464149853"><ele>685.0</ele><time>2026-04-03T14:36:11Z</time></trkpt><trkpt lat="44.3878176941577" lon="8.402697435821018"><ele>685.0</ele><time>2026-04-03T14:36:12Z</time></trkpt><trkpt lat="44.38791199039544" lon="8.402642806118418"><ele>685.0</ele><time>2026-04-03T14:36:13Z</time></trkpt><trkpt lat="44.387967274566236" lon="8.402445642269816"><ele>685.0</ele><time>2026-04-03T14:36:14Z</time></trkpt><trkpt lat="44.3880755468789" lon="8.402357960415848"><ele>682.0</ele><time>2026-04-03T14:36:15Z</time></trkpt><trkpt lat="44.388189810398686" lon="8.40228134197025"><ele>679.0</ele><time>2026-04-03T14:36:16Z</time></trkpt><trkpt lat="44.38830186275835" lon="8.402257988776576"><ele>676.0</ele><time>2026-04-03T14:36:17Z</time></trkpt><trkpt lat="44.388430057395" lon="8.402309654087915"><ele>673.0</ele><time>2026-04-03T14:36:18Z</time></trkpt><trkpt lat="44.38855725748639" lon="8.402340662396924"><ele>673.0</ele><time>2026-04-03T14:36:19Z</time></trkpt><trkpt lat="44.388684654517476" lon="8.402409960624858"><ele>673.0</ele><time>2026-04-03T14:36:20Z</time></trkpt><trkpt lat="44.38882422761843" lon="8.402529966511285"><ele>673.0</ele><time>2026-04-03T14:36:21Z</time></trkpt><trkpt lat="44.38900090519961" lon="8.402569671996206"><ele>669.3333333333334</ele><time>2026-04-03T14:36:22Z</time></trkpt><trkpt lat="44.38917523189275" lon="8.402629198399953"><ele>665.6666666666666</ele><time>2026-04-03T14:36:23Z</time></trkpt><trkpt lat="44.38933524075713" lon="8.40267030363012"><ele>662.0</ele><time>2026-04-03T14:36:24Z</time></trkpt><trkpt lat="44.38945917556163" lon="8.40269859486233"><ele>662.0</ele><time>2026-04-03T14:36:25Z</time></trkpt><trkpt lat="44.38955740918461" lon="8.4027308179874"><ele>662.0</ele><time>2026-04-03T14:36:26Z</time></trkpt><trkpt lat="44.389640922468615" lon="8.402788945627387"><ele>662.0</ele><time>2026-04-03T14:36:27Z</time></trkpt><trkpt lat="44.389710522408286" lon="8.402845133861312"><ele>662.0</ele><time>2026-04-03T14:36:28Z</time></trkpt><trkpt lat="44.38977487220041" lon="8.402889469115367"><ele>662.0</ele><time>2026-04-03T14:36:29Z</time></trkpt><trkpt lat="44.389889781196906" lon="8.402946114086046"><ele>661.8</ele><time>2026-04-03T14:36:31Z</time></trkpt><trkpt lat="44.39001403602662" lon="8.403008820140027"><ele>661.6</ele><time>2026-04-03T14:36:33Z</time></trkpt><trkpt lat="44.39008518096839" lon="8.403063516304286"><ele>661.4</ele><time>2026-04-03T14:36:34Z</time></trkpt><trkpt lat="44.39016590543205" lon="8.403135864160912"><ele>661.1999999999999</ele><time>2026-04-03T14:36:35Z</time></trkpt><trkpt lat="44.390266153868176" lon="8.403205073989337"><ele>661.0</ele><time>2026-04-03T14:36:36Z</time></trkpt><trkpt lat="44.39038007623553" lon="8.403272880132468"><ele>657.6666666666667</ele><time>2026-04-03T14:36:37Z</time></trkpt><trkpt lat="44.390508215878995" lon="8.403353206971492"><ele>654.3333333333334</ele><time>2026-04-03T14:36:38Z</time></trkpt><trkpt lat="44.39064722186806" lon="8.40345471744355"><ele>651.0</ele><time>2026-04-03T14:36:39Z</time></trkpt><trkpt lat="44.3907957281866" lon="8.403564964892896"><ele>651.0</ele><time>2026-04-03T14:36:40Z</time></trkpt><trkpt lat="44.39095122000555" lon="8.40368032055108"><ele>651.0</ele><time>2026-04-03T14:36:41Z</time></trkpt><trkpt lat="44.391105955860155" lon="8.403801293693666"><ele>651.0</ele><time>2026-04-03T14:36:42Z</time></trkpt><trkpt lat="44.391258250222215" lon="8.403942412694501"><ele>651.3333333333334</ele><time>2026-04-03T14:36:43Z</time></trkpt><trkpt lat="44.39139573629148" lon="8.404093571413755"><ele>651.6666666666667</ele><time>2026-04-03T14:36:44Z</time></trkpt><trkpt lat="44.391517369783756" lon="8.404238724376016"><ele>652.0</ele><time>2026-04-03T14:36:45Z</time></trkpt><trkpt lat="44.39163052378661" lon="8.404393379348162"><ele>652.0</ele><time>2026-04-03T14:36:46Z</time></trkpt><trkpt lat="44.391725696319554" lon="8.4045865504144"><ele>652.0</ele><time>2026-04-03T14:36:47Z</time></trkpt><trkpt lat="44.39181738870256" lon="8.404787737143728"><ele>652.0</ele><time>2026-04-03T14:36:48Z</time></trkpt><trkpt lat="44.39191277615018" lon="8.40499275366994"><ele>653.0</ele><time>2026-04-03T14:36:49Z</time></trkpt><trkpt lat="44.392020565659486" lon="8.405196624165724"><ele>654.0</ele><time>2026-04-03T14:36:50Z</time></trkpt><trkpt lat="44.39214016289735" lon="8.405381546626716"><ele>655.0</ele><time>2026-04-03T14:36:51Z</time></trkpt><trkpt lat="44.392269454533306" lon="8.405540957283042"><ele>655.0</ele><time>2026-04-03T14:36:52Z</time></trkpt><trkpt lat="44.392421510363995" lon="8.405681728912516"><ele>655.0</ele><time>2026-04-03T14:36:53Z</time></trkpt><trkpt lat="44.39259011506444" lon="8.405806698477184"><ele>655.0</ele><time>2026-04-03T14:36:54Z</time></trkpt><trkpt lat="44.39276697804866" lon="8.405924879129957"><ele>655.0</ele><time>2026-04-03T14:36:55Z</time></trkpt><trkpt lat="44.39294856313427" lon="8.406035031455206"><ele>655.0</ele><time>2026-04-03T14:36:56Z</time></trkpt><trkpt lat="44.39313713486631" lon="8.406148980588641"><ele>655.0</ele><time>2026-04-03T14:36:57Z</time></trkpt><trkpt lat="44.39331596270387" lon="8.406251735660408"><ele>657.3333333333334</ele><time>2026-04-03T14:36:58Z</time></trkpt><trkpt lat="44.393470741763764" lon="8.406328647142036"><ele>659.6666666666666</ele><time>2026-04-03T14:36:59Z</time></trkpt><trkpt lat="44.393613785210675" lon="8.406374970519197"><ele>662.0</ele><time>2026-04-03T14:37:00Z</time></trkpt><trkpt lat="44.393778277046096" lon="8.406384595251676"><ele>660.0</ele><time>2026-04-03T14:37:01Z</time></trkpt><trkpt lat="44.39395387213323" lon="8.406363511235824"><ele>658.0</ele><time>2026-04-03T14:37:02Z</time></trkpt><trkpt lat="44.39413732778777" lon="8.406340008283168"><ele>656.0</ele><time>2026-04-03T14:37:03Z</time></trkpt><trkpt lat="44.39432569436363" lon="8.406341691598772"><ele>656.0</ele><time>2026-04-03T14:37:04Z</time></trkpt><trkpt lat="44.394521312147006" lon="8.406365189716384"><ele>656.0</ele><time>2026-04-03T14:37:05Z</time></trkpt><trkpt lat="44.394697283664144" lon="8.406390257355449"><ele>656.0</ele><time>2026-04-03T14:37:06Z</time></trkpt><trkpt lat="44.394859111878965" lon="8.406438083634674"><ele>654.5</ele><time>2026-04-03T14:37:07Z</time></trkpt><trkpt lat="44.39500552113169" lon="8.406499136392286"><ele>653.0</ele><time>2026-04-03T14:37:08Z</time></trkpt><trkpt lat="44.39513359071893" lon="8.406574433959829"><ele>651.5</ele><time>2026-04-03T14:37:09Z</time></trkpt><trkpt lat="44.39526122109526" lon="8.40667521693884"><ele>650.0</ele><time>2026-04-03T14:37:10Z</time></trkpt><trkpt lat="44.39538812497179" lon="8.406801427776427"><ele>648.0</ele><time>2026-04-03T14:37:11Z</time></trkpt><trkpt lat="44.39551514315596" lon="8.406944456830601"><ele>646.0</ele><time>2026-04-03T14:37:12Z</time></trkpt><trkpt lat="44.39564228725413" lon="8.407099838122402"><ele>644.0</ele><time>2026-04-03T14:37:13Z</time></trkpt><trkpt lat="44.3957611783928" lon="8.407267075057938"><ele>644.0</ele><time>2026-04-03T14:37:14Z</time></trkpt><trkpt lat="44.39586812962688" lon="8.407465253761268"><ele>644.0</ele><time>2026-04-03T14:37:15Z</time></trkpt><trkpt lat="44.39596374266148" lon="8.40768514685002"><ele>644.0</ele><time>2026-04-03T14:37:16Z</time></trkpt><trkpt lat="44.39606376785112" lon="8.407916235023311"><ele>642.0</ele><time>2026-04-03T14:37:17Z</time></trkpt><trkpt lat="44.396168136765326" lon="8.408131956120178"><ele>640.0</ele><time>2026-04-03T14:37:18Z</time></trkpt><trkpt lat="44.396271749942564" lon="8.408310247252194"><ele>638.0</ele><time>2026-04-03T14:37:19Z</time></trkpt><trkpt lat="44.39638479568695" lon="8.408452297323281"><ele>638.0</ele><time>2026-04-03T14:37:20Z</time></trkpt><trkpt lat="44.39651623812392" lon="8.408567687378603"><ele>638.0</ele><time>2026-04-03T14:37:21Z</time></trkpt><trkpt lat="44.39666299296124" lon="8.408654658047526"><ele>638.0</ele><time>2026-04-03T14:37:22Z</time></trkpt><trkpt lat="44.396811533900994" lon="8.408718114187309"><ele>638.0</ele><time>2026-04-03T14:37:23Z</time></trkpt><trkpt lat="44.39694447548085" lon="8.408774462346505"><ele>638.0</ele><time>2026-04-03T14:37:24Z</time></trkpt><trkpt lat="44.397053387627075" lon="8.408847734845928"><ele>638.0</ele><time>2026-04-03T14:37:25Z</time></trkpt><trkpt lat="44.39712965851122" lon="8.408956825423461"><ele>638.0</ele><time>2026-04-03T14:37:26Z</time></trkpt><trkpt lat="44.39718069696223" lon="8.40903633395075"><ele>638.0</ele><time>2026-04-03T14:37:27Z</time></trkpt><trkpt lat="44.39724371015857" lon="8.409128491637741"><ele>637.5</ele><time>2026-04-03T14:37:29Z</time></trkpt><trkpt lat="44.39724658080647" lon="8.409241257896673"><ele>637.0</ele><time>2026-04-03T14:37:31Z</time></trkpt><trkpt lat="44.397275794630964" lon="8.409323231600144"><ele>636.5</ele><time>2026-04-03T14:38:05Z</time></trkpt><trkpt lat="44.397296213950824" lon="8.409438443545588"><ele>636.0</ele><time>2026-04-03T14:38:07Z</time></trkpt><trkpt lat="44.39722902160897" lon="8.409418592168853"><ele>635.5</ele><time>2026-04-03T14:38:18Z</time></trkpt><trkpt lat="44.39723454367164" lon="8.40931612623206"><ele>635.0</ele><time>2026-04-03T14:38:20Z</time></trkpt><trkpt lat="44.39724471623135" lon="8.409196823969648"><ele>635.0</ele><time>2026-04-03T14:38:23Z</time></trkpt><trkpt lat="44.39722414311134" lon="8.409043926625035"><ele>635.0</ele><time>2026-04-03T14:38:26Z</time></trkpt><trkpt lat="44.397172697769065" lon="8.408969161064903"><ele>635.0</ele><time>2026-04-03T14:38:27Z</time></trkpt><trkpt lat="44.397099970096754" lon="8.408894661746917"><ele>635.0</ele><time>2026-04-03T14:38:28Z</time></trkpt><trkpt lat="44.39701369887631" lon="8.408823727050763"><ele>635.0</ele><time>2026-04-03T14:38:29Z</time></trkpt><trkpt lat="44.396905881862146" lon="8.408765407476707"><ele>635.75</ele><time>2026-04-03T14:38:30Z</time></trkpt><trkpt lat="44.39678030971765" lon="8.408708939523875"><ele>636.5</ele><time>2026-04-03T14:38:31Z</time></trkpt><trkpt lat="44.3966461472003" lon="8.408639983539762"><ele>637.25</ele><time>2026-04-03T14:38:32Z</time></trkpt><trkpt lat="44.396515457308126" lon="8.408519096392594"><ele>638.0</ele><time>2026-04-03T14:38:33Z</time></trkpt><trkpt lat="44.39638149227115" lon="8.408399710847691"><ele>640.0</ele><time>2026-04-03T14:38:34Z</time></trkpt><trkpt lat="44.39627526122897" lon="8.408265042533777"><ele>642.0</ele><time>2026-04-03T14:38:35Z</time></trkpt><trkpt lat="44.39618102203411" lon="8.40810957616197"><ele>644.0</ele><time>2026-04-03T14:38:36Z</time></trkpt><trkpt lat="44.39608978847089" lon="8.407921918658786"><ele>644.0</ele><time>2026-04-03T14:38:37Z</time></trkpt><trkpt lat="44.3960083111241" lon="8.407711635750955"><ele>644.0</ele><time>2026-04-03T14:38:38Z</time></trkpt><trkpt lat="44.39591464655839" lon="8.407500326338107"><ele>644.0</ele><time>2026-04-03T14:38:39Z</time></trkpt><trkpt lat="44.39580330989037" lon="8.407292734344313"><ele>644.0</ele><time>2026-04-03T14:38:40Z</time></trkpt><trkpt lat="44.395681958432675" lon="8.407104592204352"><ele>644.0</ele><time>2026-04-03T14:38:41Z</time></trkpt><trkpt lat="44.39554887372564" lon="8.406938541231959"><ele>644.0</ele><time>2026-04-03T14:38:42Z</time></trkpt><trkpt lat="44.39540752663437" lon="8.406776120377314"><ele>646.0</ele><time>2026-04-03T14:38:43Z</time></trkpt><trkpt lat="44.39525823904318" lon="8.4066280906622"><ele>648.0</ele><time>2026-04-03T14:38:44Z</time></trkpt><trkpt lat="44.39510763871685" lon="8.406515297544285"><ele>650.0</ele><time>2026-04-03T14:38:45Z</time></trkpt><trkpt lat="44.39496297622237" lon="8.4064375630753"><ele>650.0</ele><time>2026-04-03T14:38:46Z</time></trkpt><trkpt lat="44.394805552650844" lon="8.406369126836545"><ele>650.0</ele><time>2026-04-03T14:38:47Z</time></trkpt><trkpt lat="44.39463189503221" lon="8.40632891791878"><ele>650.0</ele><time>2026-04-03T14:38:48Z</time></trkpt><trkpt lat="44.3944514519272" lon="8.406303383332657"><ele>650.3333333333333</ele><time>2026-04-03T14:38:49Z</time></trkpt><trkpt lat="44.39426289734124" lon="8.406286781901546"><ele>650.6666666666666</ele><time>2026-04-03T14:38:50Z</time></trkpt><trkpt lat="44.394067744644396" lon="8.406296206199647"><ele>651.0</ele><time>2026-04-03T14:38:51Z</time></trkpt><trkpt lat="44.39387311572168" lon="8.40632591902589"><ele>649.6666666666666</ele><time>2026-04-03T14:38:52Z</time></trkpt><trkpt lat="44.39367505481998" lon="8.406351351165751"><ele>648.3333333333333</ele><time>2026-04-03T14:38:53Z</time></trkpt><trkpt lat="44.39351675134433" lon="8.406310086026492"><ele>647.0</ele><time>2026-04-03T14:38:54Z</time></trkpt><trkpt lat="44.393365888428555" lon="8.406220759371305"><ele>647.0</ele><time>2026-04-03T14:38:55Z</time></trkpt><trkpt lat="44.39320018293432" lon="8.40612776880852"><ele>647.0</ele><time>2026-04-03T14:38:56Z</time></trkpt><trkpt lat="44.393029116745694" lon="8.406032153389996"><ele>647.0</ele><time>2026-04-03T14:38:57Z</time></trkpt><trkpt lat="44.39285468086093" lon="8.405920134046903"><ele>649.6666666666666</ele><time>2026-04-03T14:38:58Z</time></trkpt><trkpt lat="44.392679639310856" lon="8.405805762364539"><ele>652.3333333333334</ele><time>2026-04-03T14:38:59Z</time></trkpt><trkpt lat="44.39250598286597" lon="8.40568184525626"><ele>655.0</ele><time>2026-04-03T14:39:00Z</time></trkpt><trkpt lat="44.39233518803934" lon="8.405541036549193"><ele>657.0</ele><time>2026-04-03T14:39:01Z</time></trkpt><trkpt lat="44.3921795593603" lon="8.405363441416776"><ele>659.0</ele><time>2026-04-03T14:39:02Z</time></trkpt><trkpt lat="44.39204407839175" lon="8.40516320195015"><ele>661.0</ele><time>2026-04-03T14:39:03Z</time></trkpt><trkpt lat="44.39193016172847" lon="8.40494914876731"><ele>661.0</ele><time>2026-04-03T14:39:04Z</time></trkpt><trkpt lat="44.39181741552416" lon="8.40471496267711"><ele>661.0</ele><time>2026-04-03T14:39:05Z</time></trkpt><trkpt lat="44.391704379469765" lon="8.404478078980471"><ele>661.0</ele><time>2026-04-03T14:39:06Z</time></trkpt><trkpt lat="44.39156720908279" lon="8.404255877423449"><ele>660.0</ele><time>2026-04-03T14:39:07Z</time></trkpt><trkpt lat="44.39142422589409" lon="8.404076241158622"><ele>659.0</ele><time>2026-04-03T14:39:08Z</time></trkpt><trkpt lat="44.39128915326742" lon="8.403917331818374"><ele>658.0</ele><time>2026-04-03T14:39:09Z</time></trkpt><trkpt lat="44.39115198861488" lon="8.403776933149146"><ele>655.6666666666667</ele><time>2026-04-03T14:39:10Z</time></trkpt><trkpt lat="44.39101723390736" lon="8.403668783520995"><ele>653.3333333333334</ele><time>2026-04-03T14:39:11Z</time></trkpt><trkpt lat="44.39088189533798" lon="8.403562180142185"><ele>651.0</ele><time>2026-04-03T14:39:12Z</time></trkpt><trkpt lat="44.39074793476963" lon="8.403461430602302"><ele>651.0</ele><time>2026-04-03T14:39:13Z</time></trkpt><trkpt lat="44.3906266004805" lon="8.403370494060695"><ele>651.0</ele><time>2026-04-03T14:39:14Z</time></trkpt><trkpt lat="44.39050835873643" lon="8.403281875376088"><ele>651.0</ele><time>2026-04-03T14:39:15Z</time></trkpt><trkpt lat="44.39039617416817" lon="8.403199871774405"><ele>651.0</ele><time>2026-04-03T14:39:16Z</time></trkpt><trkpt lat="44.39031034144128" lon="8.403141033872291"><ele>652.1999999999999</ele><time>2026-04-03T14:39:17Z</time></trkpt><trkpt lat="44.39022154318803" lon="8.403081146740288"><ele>653.4</ele><time>2026-04-03T14:39:18Z</time></trkpt><trkpt lat="44.39014109709502" lon="8.40302479022916"><ele>654.6</ele><time>2026-04-03T14:39:19Z</time></trkpt><trkpt lat="44.390023181857245" lon="8.402927772051875"><ele>655.8</ele><time>2026-04-03T14:39:20Z</time></trkpt><trkpt lat="44.38995281800932" lon="8.402842190276212"><ele>657.0</ele><time>2026-04-03T14:39:21Z</time></trkpt><trkpt lat="44.389883132032175" lon="8.402747460003063"><ele>657.0</ele><time>2026-04-03T14:39:22Z</time></trkpt><trkpt lat="44.38981151632388" lon="8.40265099954428"><ele>657.0</ele><time>2026-04-03T14:39:23Z</time></trkpt><trkpt lat="44.389729185086004" lon="8.402557599153777"><ele>657.0</ele><time>2026-04-03T14:39:24Z</time></trkpt><trkpt lat="44.389646530561336" lon="8.402471859198688"><ele>657.0</ele><time>2026-04-03T14:39:25Z</time></trkpt><trkpt lat="44.38955189182876" lon="8.402375983088044"><ele>657.0</ele><time>2026-04-03T14:39:26Z</time></trkpt><trkpt lat="44.38945151650709" lon="8.402275541383473"><ele>657.75</ele><time>2026-04-03T14:39:27Z</time></trkpt><trkpt lat="44.38934568983973" lon="8.40216964488758"><ele>658.5</ele><time>2026-04-03T14:39:28Z</time></trkpt><trkpt lat="44.38923899267677" lon="8.402058760540973"><ele>659.25</ele><time>2026-04-03T14:39:29Z</time></trkpt><trkpt lat="44.38912899907935" lon="8.401942789687878"><ele>660.0</ele><time>2026-04-03T14:39:30Z</time></trkpt><trkpt lat="44.389010096357985" lon="8.401819372936925"><ele>660.0</ele><time>2026-04-03T14:39:31Z</time></trkpt><trkpt lat="44.388885704095614" lon="8.401693251049169"><ele>660.0</ele><time>2026-04-03T14:39:32Z</time></trkpt><trkpt lat="44.38876113621392" lon="8.40155864683115"><ele>660.0</ele><time>2026-04-03T14:39:33Z</time></trkpt><trkpt lat="44.38864392967004" lon="8.40141038728383"><ele>659.3333333333334</ele><time>2026-04-03T14:39:34Z</time></trkpt><trkpt lat="44.388537746557056" lon="8.401236636968447"><ele>658.6666666666667</ele><time>2026-04-03T14:39:35Z</time></trkpt><trkpt lat="44.388449015409016" lon="8.401043438025559"><ele>658.0</ele><time>2026-04-03T14:39:36Z</time></trkpt><trkpt lat="44.38835430204626" lon="8.40085047969109"><ele>658.0</ele><time>2026-04-03T14:39:37Z</time></trkpt><trkpt lat="44.388243269837375" lon="8.400738423663377"><ele>658.0</ele><time>2026-04-03T14:39:38Z</time></trkpt><trkpt lat="44.38817244107833" lon="8.400638311646532"><ele>658.0</ele><time>2026-04-03T14:39:39Z</time></trkpt><trkpt lat="44.38809530175818" lon="8.40056858533737"><ele>658.0</ele><time>2026-04-03T14:39:40Z</time></trkpt><trkpt lat="44.38802259379158" lon="8.400498784729987"><ele>658.0</ele><time>2026-04-03T14:39:41Z</time></trkpt><trkpt lat="44.38795679046208" lon="8.400453546371958"><ele>658.8333333333334</ele><time>2026-04-03T14:39:42Z</time></trkpt><trkpt lat="44.387891860623405" lon="8.400445063731615"><ele>659.6666666666667</ele><time>2026-04-03T14:39:43Z</time></trkpt><trkpt lat="44.387814436229334" lon="8.400463247728398"><ele>660.5</ele><time>2026-04-03T14:39:44Z</time></trkpt><trkpt lat="44.38772708278996" lon="8.400466087484299"><ele>661.3333333333334</ele><time>2026-04-03T14:39:45Z</time></trkpt><trkpt lat="44.38763851079437" lon="8.400486758105723"><ele>662.1666666666666</ele><time>2026-04-03T14:39:46Z</time></trkpt><trkpt lat="44.38754699345343" lon="8.40050359153566"><ele>663.0</ele><time>2026-04-03T14:39:47Z</time></trkpt><trkpt lat="44.38744335269075" lon="8.400511384506451"><ele>663.0</ele><time>2026-04-03T14:39:48Z</time></trkpt><trkpt lat="44.38733485640943" lon="8.400496793524866"><ele>663.0</ele><time>2026-04-03T14:39:49Z</time></trkpt><trkpt lat="44.387219005182764" lon="8.400463948059224"><ele>663.0</ele><time>2026-04-03T14:39:50Z</time></trkpt><trkpt lat="44.387106013090154" lon="8.400413045706106"><ele>663.0</ele><time>2026-04-03T14:39:51Z</time></trkpt><trkpt lat="44.38698469762969" lon="8.400349925507184"><ele>664.3333333333334</ele><time>2026-04-03T14:39:52Z</time></trkpt><trkpt lat="44.386852174932436" lon="8.400279704028513"><ele>665.6666666666667</ele><time>2026-04-03T14:39:53Z</time></trkpt><trkpt lat="44.38670484795128" lon="8.400201638024283"><ele>667.0</ele><time>2026-04-03T14:39:54Z</time></trkpt><trkpt lat="44.38654813966569" lon="8.400118147728886"><ele>667.0</ele><time>2026-04-03T14:39:55Z</time></trkpt><trkpt lat="44.38639164406944" lon="8.400042590674861"><ele>667.0</ele><time>2026-04-03T14:39:56Z</time></trkpt><trkpt lat="44.386258119207184" lon="8.399991177947259"><ele>667.0</ele><time>2026-04-03T14:39:57Z</time></trkpt><trkpt lat="44.38614375648815" lon="8.399978617939128"><ele>667.0</ele><time>2026-04-03T14:39:58Z</time></trkpt><trkpt lat="44.38602582613956" lon="8.399960184533793"><ele>667.8</ele><time>2026-04-03T14:39:59Z</time></trkpt><trkpt lat="44.38590499628857" lon="8.399967825486407"><ele>668.6</ele><time>2026-04-03T14:40:00Z</time></trkpt><trkpt lat="44.385808743892035" lon="8.399979429688212"><ele>669.4</ele><time>2026-04-03T14:40:01Z</time></trkpt><trkpt lat="44.38572063906816" lon="8.399991792448954"><ele>670.1999999999999</ele><time>2026-04-03T14:40:02Z</time></trkpt><trkpt lat="44.385630281133146" lon="8.400003680626718"><ele>671.0</ele><time>2026-04-03T14:40:03Z</time></trkpt><trkpt lat="44.38554581361989" lon="8.400002162169411"><ele>673.1666666666666</ele><time>2026-04-03T14:40:04Z</time></trkpt><trkpt lat="44.38546605758084" lon="8.399981875807416"><ele>675.3333333333333</ele><time>2026-04-03T14:40:05Z</time></trkpt><trkpt lat="44.38539164701012" lon="8.399937525104278"><ele>677.5</ele><time>2026-04-03T14:40:06Z</time></trkpt><trkpt lat="44.3853418759303" lon="8.399854388143996"><ele>679.6666666666666</ele><time>2026-04-03T14:40:07Z</time></trkpt><trkpt lat="44.38530014552172" lon="8.399739630337374"><ele>681.8333333333334</ele><time>2026-04-03T14:40:08Z</time></trkpt><trkpt lat="44.3852884404539" lon="8.39962931960966"><ele>684.0</ele><time>2026-04-03T14:40:09Z</time></trkpt><trkpt lat="44.38527823965662" lon="8.399503910526734"><ele>684.6</ele><time>2026-04-03T14:40:10Z</time></trkpt><trkpt lat="44.38526503187209" lon="8.399383001196586"><ele>685.2</ele><time>2026-04-03T14:40:11Z</time></trkpt><trkpt lat="44.385249749075435" lon="8.399257875482627"><ele>685.8000000000001</ele><time>2026-04-03T14:40:12Z</time></trkpt><trkpt lat="44.38522649745053" lon="8.399122795235593"><ele>686.4000000000001</ele><time>2026-04-03T14:40:13Z</time></trkpt><trkpt lat="44.38518592943548" lon="8.398975261151326"><ele>687.0</ele><time>2026-04-03T14:40:14Z</time></trkpt><trkpt lat="44.385128737980665" lon="8.398822313208923"><ele>687.0</ele><time>2026-04-03T14:40:15Z</time></trkpt><trkpt lat="44.38506168453012" lon="8.398671186604577"><ele>687.0</ele><time>2026-04-03T14:40:16Z</time></trkpt><trkpt lat="44.38499188842487" lon="8.398522651696805"><ele>687.0</ele><time>2026-04-03T14:40:17Z</time></trkpt><trkpt lat="44.38491450141411" lon="8.39837228330874"><ele>687.0</ele><time>2026-04-03T14:40:18Z</time></trkpt><trkpt lat="44.38483439732735" lon="8.398216020138658"><ele>687.0</ele><time>2026-04-03T14:40:19Z</time></trkpt><trkpt lat="44.38475136100221" lon="8.398053325538026"><ele>687.0</ele><time>2026-04-03T14:40:20Z</time></trkpt><trkpt lat="44.38466434443799" lon="8.397882706623365"><ele>687.0</ele><time>2026-04-03T14:40:21Z</time></trkpt><trkpt lat="44.384572333197895" lon="8.397704415621709"><ele>691.0</ele><time>2026-04-03T14:40:22Z</time></trkpt><trkpt lat="44.38446981314092" lon="8.397533652119272"><ele>695.0</ele><time>2026-04-03T14:40:22.999Z</time></trkpt><trkpt lat="44.38434805260175" lon="8.397387588968092"><ele>699.0</ele><time>2026-04-03T14:40:23.999Z</time></trkpt><trkpt lat="44.384225907196715" lon="8.39729325320289"><ele>699.0</ele><time>2026-04-03T14:40:24.999Z</time></trkpt><trkpt lat="44.384139360177116" lon="8.397211681886331"><ele>699.0</ele><time>2026-04-03T14:40:25.999Z</time></trkpt><trkpt lat="44.38407443678421" lon="8.397118303639632"><ele>699.0</ele><time>2026-04-03T14:40:26.999Z</time></trkpt><trkpt lat="44.38402276823555" lon="8.396998441819653"><ele>699.0</ele><time>2026-04-03T14:40:27.999Z</time></trkpt><trkpt lat="44.383996840134884" lon="8.396862138145925"><ele>699.0</ele><time>2026-04-03T14:40:28.999Z</time></trkpt><trkpt lat="44.38400117994936" lon="8.396708067834313"><ele>698.5</ele><time>2026-04-03T14:40:29.999Z</time></trkpt><trkpt lat="44.384041061912605" lon="8.396550076831836"><ele>698.0</ele><time>2026-04-03T14:40:30.999Z</time></trkpt><trkpt lat="44.384084113810964" lon="8.39638607329623"><ele>697.5</ele><time>2026-04-03T14:40:31.999Z</time></trkpt><trkpt lat="44.384113835001905" lon="8.396205923563768"><ele>697.0</ele><time>2026-04-03T14:40:32.999Z</time></trkpt><trkpt lat="44.384176051798846" lon="8.396036988831893"><ele>697.0</ele><time>2026-04-03T14:40:33.999Z</time></trkpt><trkpt lat="44.384245386640046" lon="8.395867894890019"><ele>697.0</ele><time>2026-04-03T14:40:34.999Z</time></trkpt><trkpt lat="44.38432316873535" lon="8.395704407387642"><ele>697.0</ele><time>2026-04-03T14:40:35.999Z</time></trkpt><trkpt lat="44.38441122690035" lon="8.395543799189404"><ele>697.0</ele><time>2026-04-03T14:40:36.999Z</time></trkpt><trkpt lat="44.38450890625655" lon="8.395404143695744"><ele>698.75</ele><time>2026-04-03T14:40:37.999Z</time></trkpt><trkpt lat="44.384604692539945" lon="8.395258924577213"><ele>700.5</ele><time>2026-04-03T14:40:38.999Z</time></trkpt><trkpt lat="44.38469439699505" lon="8.395107936781585"><ele>702.25</ele><time>2026-04-03T14:40:39.999Z</time></trkpt><trkpt lat="44.384778896366335" lon="8.394954232138842"><ele>704.0</ele><time>2026-04-03T14:40:40.999Z</time></trkpt><trkpt lat="44.38486582253356" lon="8.394797898705237"><ele>706.0</ele><time>2026-04-03T14:40:41.999Z</time></trkpt><trkpt lat="44.3849542889088" lon="8.394646648128724"><ele>708.0</ele><time>2026-04-03T14:40:42.999Z</time></trkpt><trkpt lat="44.38503949495208" lon="8.394503131921812"><ele>710.0</ele><time>2026-04-03T14:40:43.999Z</time></trkpt><trkpt lat="44.38510326450987" lon="8.39437004943991"><ele>712.0</ele><time>2026-04-03T14:40:44.999Z</time></trkpt><trkpt lat="44.38514580025002" lon="8.394243100683742"><ele>712.0</ele><time>2026-04-03T14:40:45.999Z</time></trkpt><trkpt lat="44.38517968101461" lon="8.394099546473669"><ele>712.0</ele><time>2026-04-03T14:40:46.999Z</time></trkpt><trkpt lat="44.38521711462768" lon="8.393949288707685"><ele>712.0</ele><time>2026-04-03T14:40:47.999Z</time></trkpt><trkpt lat="44.385263988426054" lon="8.39379915003829"><ele>712.0</ele><time>2026-04-03T14:40:48.999Z</time></trkpt><trkpt lat="44.385321082497825" lon="8.39365398087544"><ele>709.75</ele><time>2026-04-03T14:40:49.999Z</time></trkpt><trkpt lat="44.38539662539463" lon="8.393511838144946"><ele>707.5</ele><time>2026-04-03T14:40:50.999Z</time></trkpt><trkpt lat="44.3854905835985" lon="8.393375718146842"><ele>705.25</ele><time>2026-04-03T14:40:51.999Z</time></trkpt><trkpt lat="44.385573653648045" lon="8.3932383411976"><ele>703.0</ele><time>2026-04-03T14:40:52.999Z</time></trkpt><trkpt lat="44.38562821529627" lon="8.393085885682678"><ele>706.25</ele><time>2026-04-03T14:40:53.999Z</time></trkpt><trkpt lat="44.38566245219509" lon="8.392919857580331"><ele>709.5</ele><time>2026-04-03T14:40:54.999Z</time></trkpt><trkpt lat="44.38567592888545" lon="8.39275002740107"><ele>712.75</ele><time>2026-04-03T14:40:55.999Z</time></trkpt><trkpt lat="44.385677564804766" lon="8.392587604795558"><ele>716.0</ele><time>2026-04-03T14:40:56.999Z</time></trkpt><trkpt lat="44.38564152302645" lon="8.392408795491743"><ele>716.0</ele><time>2026-04-03T14:40:57.999Z</time></trkpt><trkpt lat="44.38556564414925" lon="8.39223612373492"><ele>716.0</ele><time>2026-04-03T14:40:58.999Z</time></trkpt><trkpt lat="44.3854966208621" lon="8.39209037636949"><ele>716.0</ele><time>2026-04-03T14:40:59.999Z</time></trkpt><trkpt lat="44.38545676110723" lon="8.39193322292294"><ele>716.0</ele><time>2026-04-03T14:41:01Z</time></trkpt><trkpt lat="44.38545914686091" lon="8.391761256070033"><ele>715.5</ele><time>2026-04-03T14:41:02Z</time></trkpt><trkpt lat="44.385461170230705" lon="8.391569486826741"><ele>715.0</ele><time>2026-04-03T14:41:03Z</time></trkpt><trkpt lat="44.38548723518683" lon="8.391370272430638"><ele>714.5</ele><time>2026-04-03T14:41:04Z</time></trkpt><trkpt lat="44.38551514463547" lon="8.391163685694766"><ele>714.0</ele><time>2026-04-03T14:41:05Z</time></trkpt><trkpt lat="44.38555112803135" lon="8.390946345531754"><ele>714.0</ele><time>2026-04-03T14:41:06Z</time></trkpt><trkpt lat="44.38558818264768" lon="8.3907179630531"><ele>714.0</ele><time>2026-04-03T14:41:07Z</time></trkpt><trkpt lat="44.38562129012175" lon="8.39048115165998"><ele>714.0</ele><time>2026-04-03T14:41:08Z</time></trkpt><trkpt lat="44.385653223006116" lon="8.390233196870346"><ele>714.75</ele><time>2026-04-03T14:41:09Z</time></trkpt><trkpt lat="44.3856722790815" lon="8.390012519512853"><ele>715.5</ele><time>2026-04-03T14:41:10Z</time></trkpt><trkpt lat="44.38568638629899" lon="8.389824131855566"><ele>716.25</ele><time>2026-04-03T14:41:11Z</time></trkpt><trkpt lat="44.38564210479594" lon="8.389641602248002"><ele>717.0</ele><time>2026-04-03T14:41:12Z</time></trkpt><trkpt lat="44.38558751187745" lon="8.389451142653751"><ele>719.6666666666666</ele><time>2026-04-03T14:41:13Z</time></trkpt><trkpt lat="44.3855177330312" lon="8.389263584278472"><ele>722.3333333333333</ele><time>2026-04-03T14:41:14Z</time></trkpt><trkpt lat="44.38546142745831" lon="8.389061994133819"><ele>725.0</ele><time>2026-04-03T14:41:15Z</time></trkpt><trkpt lat="44.38538118328254" lon="8.38886149656387"><ele>720.3333333333333</ele><time>2026-04-03T14:41:16Z</time></trkpt><trkpt lat="44.38528575693984" lon="8.388670893073296"><ele>715.6666666666666</ele><time>2026-04-03T14:41:17Z</time></trkpt><trkpt lat="44.3851775190608" lon="8.388477147150404"><ele>711.0</ele><time>2026-04-03T14:41:18Z</time></trkpt><trkpt lat="44.38505986866389" lon="8.388283003849402"><ele>711.0</ele><time>2026-04-03T14:41:19Z</time></trkpt><trkpt lat="44.38494029415311" lon="8.38808456884935"><ele>711.0</ele><time>2026-04-03T14:41:20Z</time></trkpt><trkpt lat="44.384822269890705" lon="8.387872728601863"><ele>711.0</ele><time>2026-04-03T14:41:21Z</time></trkpt><trkpt lat="44.384691287262015" lon="8.387655475836793"><ele>712.6666666666666</ele><time>2026-04-03T14:41:22Z</time></trkpt><trkpt lat="44.38453516654686" lon="8.387468749251473"><ele>714.3333333333333</ele><time>2026-04-03T14:41:23Z</time></trkpt><trkpt lat="44.38437051402797" lon="8.387312173674136"><ele>716.0</ele><time>2026-04-03T14:41:24Z</time></trkpt><trkpt lat="44.38422652947902" lon="8.38717230394365"><ele>716.0</ele><time>2026-04-03T14:41:25Z</time></trkpt><trkpt lat="44.38410442343607" lon="8.387030702035542"><ele>716.0</ele><time>2026-04-03T14:41:26Z</time></trkpt><trkpt lat="44.384027531670874" lon="8.386892384470215"><ele>716.0</ele><time>2026-04-03T14:41:27Z</time></trkpt><trkpt lat="44.383983726446566" lon="8.386737146237435"><ele>716.0</ele><time>2026-04-03T14:41:28Z</time></trkpt><trkpt lat="44.383951414400194" lon="8.386547964993202"><ele>719.0</ele><time>2026-04-03T14:41:29Z</time></trkpt><trkpt lat="44.383909533901786" lon="8.386336603185043"><ele>722.0</ele><time>2026-04-03T14:41:30Z</time></trkpt><trkpt lat="44.3838470430181" lon="8.386116344499936"><ele>725.0</ele><time>2026-04-03T14:41:31Z</time></trkpt><trkpt lat="44.38374341339682" lon="8.385913379535694"><ele>718.5</ele><time>2026-04-03T14:41:32Z</time></trkpt><trkpt lat="44.38363942248124" lon="8.385739633880327"><ele>712.0</ele><time>2026-04-03T14:41:33Z</time></trkpt><trkpt lat="44.38356880833078" lon="8.385595310621714"><ele>705.5</ele><time>2026-04-03T14:41:34Z</time></trkpt><trkpt lat="44.38352922340411" lon="8.385426095744663"><ele>699.0</ele><time>2026-04-03T14:41:35Z</time></trkpt><trkpt lat="44.38350698249938" lon="8.385236133210523"><ele>699.0</ele><time>2026-04-03T14:41:36Z</time></trkpt><trkpt lat="44.38348168732314" lon="8.385061012910084"><ele>699.0</ele><time>2026-04-03T14:41:37Z</time></trkpt><trkpt lat="44.38350298128829" lon="8.384918796350764"><ele>699.0</ele><time>2026-04-03T14:41:38Z</time></trkpt><trkpt lat="44.38356308653319" lon="8.38480447715463"><ele>699.0</ele><time>2026-04-03T14:41:39Z</time></trkpt><trkpt lat="44.38364284211388" lon="8.384736335904948"><ele>699.0</ele><time>2026-04-03T14:41:40Z</time></trkpt><trkpt lat="44.38374141143224" lon="8.38471469578062"><ele>702.75</ele><time>2026-04-03T14:41:41Z</time></trkpt><trkpt lat="44.383854191218326" lon="8.38472766000233"><ele>706.5</ele><time>2026-04-03T14:41:42Z</time></trkpt><trkpt lat="44.383979809921435" lon="8.384753063094173"><ele>710.25</ele><time>2026-04-03T14:41:43Z</time></trkpt><trkpt lat="44.38411539851681" lon="8.384752753714789"><ele>714.0</ele><time>2026-04-03T14:41:44Z</time></trkpt><trkpt lat="44.38424135449294" lon="8.384729154403455"><ele>714.0</ele><time>2026-04-03T14:41:45Z</time></trkpt><trkpt lat="44.38435342472911" lon="8.384706791296312"><ele>714.0</ele><time>2026-04-03T14:41:46Z</time></trkpt><trkpt lat="44.384442752665095" lon="8.384680691437955"><ele>714.0</ele><time>2026-04-03T14:41:47Z</time></trkpt><trkpt lat="44.384506807700376" lon="8.384636889540408"><ele>714.0</ele><time>2026-04-03T14:41:48Z</time></trkpt><trkpt lat="44.384546271290205" lon="8.384555835048651"><ele>714.0</ele><time>2026-04-03T14:41:49Z</time></trkpt><trkpt lat="44.38458425096724" lon="8.384471184615393"><ele>714.0</ele><time>2026-04-03T14:41:50Z</time></trkpt><trkpt lat="44.38454668598974" lon="8.384335846198942"><ele>708.25</ele><time>2026-04-03T14:41:51Z</time></trkpt><trkpt lat="44.38444136887534" lon="8.384266969710392"><ele>702.5</ele><time>2026-04-03T14:41:52Z</time></trkpt><trkpt lat="44.38434682314673" lon="8.384189079734428"><ele>696.75</ele><time>2026-04-03T14:41:53Z</time></trkpt><trkpt lat="44.384241598027025" lon="8.384107847751755"><ele>691.0</ele><time>2026-04-03T14:41:54Z</time></trkpt><trkpt lat="44.38413054598117" lon="8.384001897944781"><ele>691.0</ele><time>2026-04-03T14:41:55Z</time></trkpt><trkpt lat="44.384014669382175" lon="8.383871332875406"><ele>691.0</ele><time>2026-04-03T14:41:56Z</time></trkpt><trkpt lat="44.3838974388635" lon="8.38370374396888"><ele>691.0</ele><time>2026-04-03T14:41:57Z</time></trkpt><trkpt lat="44.383776250388316" lon="8.383516031065218"><ele>691.6666666666667</ele><time>2026-04-03T14:41:58Z</time></trkpt><trkpt lat="44.3836469863316" lon="8.38330824245458"><ele>692.3333333333334</ele><time>2026-04-03T14:41:59Z</time></trkpt><trkpt lat="44.383514985256426" lon="8.383092806746761"><ele>693.0</ele><time>2026-04-03T14:42:00Z</time></trkpt><trkpt lat="44.383377156057804" lon="8.382867225966669"><ele>687.3333333333334</ele><time>2026-04-03T14:42:01Z</time></trkpt><trkpt lat="44.38323538715812" lon="8.382636905742604"><ele>681.6666666666667</ele><time>2026-04-03T14:42:02Z</time></trkpt><trkpt lat="44.38308763456358" lon="8.38240319880752"><ele>676.0</ele><time>2026-04-03T14:42:03Z</time></trkpt><trkpt lat="44.38292848856308" lon="8.382175053256637"><ele>676.0</ele><time>2026-04-03T14:42:04Z</time></trkpt><trkpt lat="44.38275894226101" lon="8.381952575007984"><ele>676.0</ele><time>2026-04-03T14:42:05Z</time></trkpt><trkpt lat="44.38258340345342" lon="8.381729513868823"><ele>676.0</ele><time>2026-04-03T14:42:06Z</time></trkpt><trkpt lat="44.38240782838269" lon="8.381506406563522"><ele>676.0</ele><time>2026-04-03T14:42:07Z</time></trkpt><trkpt lat="44.38224835142676" lon="8.38130464699886"><ele>677.25</ele><time>2026-04-03T14:42:08Z</time></trkpt><trkpt lat="44.382118459093086" lon="8.381141179648736"><ele>678.5</ele><time>2026-04-03T14:42:09Z</time></trkpt><trkpt lat="44.382022585272914" lon="8.38100494074135"><ele>679.75</ele><time>2026-04-03T14:42:10Z</time></trkpt><trkpt lat="44.3819425719992" lon="8.380850851522023"><ele>681.0</ele><time>2026-04-03T14:42:11Z</time></trkpt><trkpt lat="44.381880068899584" lon="8.380663177083198"><ele>678.0</ele><time>2026-04-03T14:42:12Z</time></trkpt><trkpt lat="44.38182221269438" lon="8.380465278417391"><ele>675.0</ele><time>2026-04-03T14:42:13Z</time></trkpt><trkpt lat="44.38180184665998" lon="8.380269704903515"><ele>672.0</ele><time>2026-04-03T14:42:14Z</time></trkpt><trkpt lat="44.38179383397224" lon="8.380104513555125"><ele>669.0</ele><time>2026-04-03T14:42:15Z</time></trkpt><trkpt lat="44.381782412123485" lon="8.379978404963476"><ele>669.0</ele><time>2026-04-03T14:42:16Z</time></trkpt><trkpt lat="44.38175916810754" lon="8.379865729857531"><ele>669.0</ele><time>2026-04-03T14:42:17Z</time></trkpt><trkpt lat="44.381678400953774" lon="8.379777104201512"><ele>669.0</ele><time>2026-04-03T14:42:18Z</time></trkpt><trkpt lat="44.38157265529068" lon="8.379703509395648"><ele>669.0</ele><time>2026-04-03T14:42:19Z</time></trkpt><trkpt lat="44.3814625682977" lon="8.37961346802094"><ele>669.0</ele><time>2026-04-03T14:42:20Z</time></trkpt><trkpt lat="44.3813583237878" lon="8.379508534665494"><ele>669.0</ele><time>2026-04-03T14:42:21Z</time></trkpt><trkpt lat="44.38125097250045" lon="8.379365090249422"><ele>669.0</ele><time>2026-04-03T14:42:22Z</time></trkpt><trkpt lat="44.381147692437615" lon="8.379209339481983"><ele>669.0</ele><time>2026-04-03T14:42:23Z</time></trkpt><trkpt lat="44.38103778986026" lon="8.379052560603224"><ele>669.0</ele><time>2026-04-03T14:42:24Z</time></trkpt><trkpt lat="44.38089248956619" lon="8.378919570090579"><ele>669.0</ele><time>2026-04-03T14:42:25Z</time></trkpt><trkpt lat="44.38073711676444" lon="8.378797386192192"><ele>669.0</ele><time>2026-04-03T14:42:26Z</time></trkpt><trkpt lat="44.380586018787135" lon="8.378673154604238"><ele>663.75</ele><time>2026-04-03T14:42:27Z</time></trkpt><trkpt lat="44.38045957188638" lon="8.378546380696282"><ele>658.5</ele><time>2026-04-03T14:42:28Z</time></trkpt><trkpt lat="44.38036749424179" lon="8.378429875613659"><ele>653.25</ele><time>2026-04-03T14:42:29Z</time></trkpt><trkpt lat="44.3802990319666" lon="8.37831397890263"><ele>648.0</ele><time>2026-04-03T14:42:30Z</time></trkpt><trkpt lat="44.380231026625935" lon="8.378218833156435"><ele>648.0</ele><time>2026-04-03T14:42:31Z</time></trkpt><trkpt lat="44.38017813758836" lon="8.378115539616264"><ele>648.0</ele><time>2026-04-03T14:42:32Z</time></trkpt><trkpt lat="44.380136989292176" lon="8.378036037128743"><ele>648.0</ele><time>2026-04-03T14:42:33Z</time></trkpt><trkpt lat="44.38006476406077" lon="8.37801035747794"><ele>648.0</ele><time>2026-04-03T14:42:34Z</time></trkpt><trkpt lat="44.379979641156396" lon="8.378059304270867"><ele>648.0</ele><time>2026-04-03T14:42:35Z</time></trkpt><trkpt lat="44.37991971126621" lon="8.378161624665838"><ele>648.0</ele><time>2026-04-03T14:42:36Z</time></trkpt><trkpt lat="44.379924901920845" lon="8.37831306121949"><ele>648.0</ele><time>2026-04-03T14:42:37Z</time></trkpt><trkpt lat="44.37991770869058" lon="8.378435452359527"><ele>648.0</ele><time>2026-04-03T14:42:38Z</time></trkpt><trkpt lat="44.379911575522115" lon="8.378614279911863"><ele>648.0</ele><time>2026-04-03T14:42:39Z</time></trkpt><trkpt lat="44.379895953190704" lon="8.378813118168116"><ele>648.0</ele><time>2026-04-03T14:42:40Z</time></trkpt><trkpt lat="44.37984022260989" lon="8.378957124997559"><ele>647.25</ele><time>2026-04-03T14:42:41Z</time></trkpt><trkpt lat="44.3797676431626" lon="8.379080440711348"><ele>646.5</ele><time>2026-04-03T14:42:42Z</time></trkpt><trkpt lat="44.37967066600169" lon="8.379168170067578"><ele>645.75</ele><time>2026-04-03T14:42:43Z</time></trkpt><trkpt lat="44.37956652314541" lon="8.3792252742822"><ele>645.0</ele><time>2026-04-03T14:42:44Z</time></trkpt><trkpt lat="44.37945278978026" lon="8.379243225655944"><ele>645.0</ele><time>2026-04-03T14:42:45Z</time></trkpt><trkpt lat="44.3793298165573" lon="8.379208261228644"><ele>645.0</ele><time>2026-04-03T14:42:46Z</time></trkpt><trkpt lat="44.37917575679986" lon="8.379154487165277"><ele>645.0</ele><time>2026-04-03T14:42:47Z</time></trkpt><trkpt lat="44.3790074240055" lon="8.379090174523206"><ele>641.6666666666666</ele><time>2026-04-03T14:42:48Z</time></trkpt><trkpt lat="44.37883591899357" lon="8.379025608939454"><ele>638.3333333333333</ele><time>2026-04-03T14:42:49Z</time></trkpt><trkpt lat="44.37866637074649" lon="8.378963898334213"><ele>635.0</ele><time>2026-04-03T14:42:50Z</time></trkpt><trkpt lat="44.37851688960552" lon="8.378911415947908"><ele>635.0</ele><time>2026-04-03T14:42:51Z</time></trkpt><trkpt lat="44.37838549105037" lon="8.378859428781867"><ele>635.0</ele><time>2026-04-03T14:42:52Z</time></trkpt><trkpt lat="44.37828225875964" lon="8.378809810957629"><ele>635.0</ele><time>2026-04-03T14:42:53Z</time></trkpt><trkpt lat="44.378194765088125" lon="8.378755076203763"><ele>635.0</ele><time>2026-04-03T14:42:54Z</time></trkpt><trkpt lat="44.37814615111153" lon="8.378653834506812"><ele>635.0</ele><time>2026-04-03T14:42:55Z</time></trkpt><trkpt lat="44.378090853256914" lon="8.378531889915893"><ele>635.0</ele><time>2026-04-03T14:42:56Z</time></trkpt><trkpt lat="44.37805719425213" lon="8.378374077075597"><ele>635.0</ele><time>2026-04-03T14:42:57Z</time></trkpt><trkpt lat="44.37802926332865" lon="8.378200706978184"><ele>635.0</ele><time>2026-04-03T14:42:58Z</time></trkpt><trkpt lat="44.377989129424336" lon="8.378015061952892"><ele>635.0</ele><time>2026-04-03T14:42:59Z</time></trkpt><trkpt lat="44.37792500948496" lon="8.377834175025999"><ele>632.6666666666666</ele><time>2026-04-03T14:43:00Z</time></trkpt><trkpt lat="44.37786187650213" lon="8.377638127334407"><ele>630.3333333333334</ele><time>2026-04-03T14:43:01Z</time></trkpt><trkpt lat="44.37778766704802" lon="8.37743416629273"><ele>628.0</ele><time>2026-04-03T14:43:02Z</time></trkpt><trkpt lat="44.37771111698021" lon="8.377227585647558"><ele>628.3333333333334</ele><time>2026-04-03T14:43:03Z</time></trkpt><trkpt lat="44.377635866807026" lon="8.377011246443756"><ele>628.6666666666666</ele><time>2026-04-03T14:43:04Z</time></trkpt><trkpt lat="44.37757501850069" lon="8.376773923603793"><ele>629.0</ele><time>2026-04-03T14:43:05Z</time></trkpt><trkpt lat="44.37747220335887" lon="8.37654549053569"><ele>628.0</ele><time>2026-04-03T14:43:06Z</time></trkpt><trkpt lat="44.37736925370786" lon="8.37629896707751"><ele>627.0</ele><time>2026-04-03T14:43:07Z</time></trkpt><trkpt lat="44.37725236974456" lon="8.376051252254316"><ele>626.0</ele><time>2026-04-03T14:43:08Z</time></trkpt><trkpt lat="44.37714270693503" lon="8.37582281371467"><ele>625.6666666666666</ele><time>2026-04-03T14:43:09Z</time></trkpt><trkpt lat="44.37705355280954" lon="8.375586239817688"><ele>625.3333333333334</ele><time>2026-04-03T14:43:10Z</time></trkpt><trkpt lat="44.37694695111031" lon="8.375352762513447"><ele>625.0</ele><time>2026-04-03T14:43:11Z</time></trkpt><trkpt lat="44.3768358582265" lon="8.375153730531819"><ele>625.0</ele><time>2026-04-03T14:43:12Z</time></trkpt><trkpt lat="44.376734654597065" lon="8.374970342513057"><ele>625.0</ele><time>2026-04-03T14:43:13Z</time></trkpt><trkpt lat="44.37661693557163" lon="8.374803079808188"><ele>625.0</ele><time>2026-04-03T14:43:14Z</time></trkpt><trkpt lat="44.37647926336055" lon="8.374664601452743"><ele>624.6666666666667</ele><time>2026-04-03T14:43:15Z</time></trkpt><trkpt lat="44.37631273800529" lon="8.374550321633576"><ele>624.3333333333334</ele><time>2026-04-03T14:43:16Z</time></trkpt><trkpt lat="44.37613585270902" lon="8.374463139001604"><ele>624.0</ele><time>2026-04-03T14:43:17Z</time></trkpt><trkpt lat="44.37596903598752" lon="8.374369164769378"><ele>624.0</ele><time>2026-04-03T14:43:18Z</time></trkpt><trkpt lat="44.37583266797975" lon="8.37431678095439"><ele>624.0</ele><time>2026-04-03T14:43:19Z</time></trkpt><trkpt lat="44.375726024468925" lon="8.374265375134897"><ele>624.0</ele><time>2026-04-03T14:43:20Z</time></trkpt><trkpt lat="44.3756396375726" lon="8.37420251962242"><ele>624.0</ele><time>2026-04-03T14:43:21Z</time></trkpt><trkpt lat="44.37556209158961" lon="8.374107978030802"><ele>619.75</ele><time>2026-04-03T14:43:22Z</time></trkpt><trkpt lat="44.37549672542195" lon="8.373965271383577"><ele>615.5</ele><time>2026-04-03T14:43:23Z</time></trkpt><trkpt lat="44.37543735571259" lon="8.373790556404828"><ele>611.25</ele><time>2026-04-03T14:43:24Z</time></trkpt><trkpt lat="44.37535762853121" lon="8.37361510678559"><ele>607.0</ele><time>2026-04-03T14:43:25Z</time></trkpt><trkpt lat="44.37526234880998" lon="8.373445188571141"><ele>607.0</ele><time>2026-04-03T14:43:26Z</time></trkpt><trkpt lat="44.37515435607779" lon="8.37326663167113"><ele>607.0</ele><time>2026-04-03T14:43:27Z</time></trkpt><trkpt lat="44.37499862379318" lon="8.373118807648469"><ele>607.0</ele><time>2026-04-03T14:43:28Z</time></trkpt><trkpt lat="44.374831292297024" lon="8.372974231885765"><ele>606.0</ele><time>2026-04-03T14:43:29Z</time></trkpt><trkpt lat="44.37465444317418" lon="8.372821432741336"><ele>605.0</ele><time>2026-04-03T14:43:30Z</time></trkpt><trkpt lat="44.37447287308892" lon="8.372662392408662"><ele>604.0</ele><time>2026-04-03T14:43:31Z</time></trkpt><trkpt lat="44.37429010981316" lon="8.372493082415877"><ele>604.0</ele><time>2026-04-03T14:43:32Z</time></trkpt><trkpt lat="44.374102919984686" lon="8.372315791019837"><ele>604.0</ele><time>2026-04-03T14:43:33Z</time></trkpt><trkpt lat="44.373918794220096" lon="8.37213616010938"><ele>607.0</ele><time>2026-04-03T14:43:34Z</time></trkpt><trkpt lat="44.37373788767923" lon="8.37195556226414"><ele>610.0</ele><time>2026-04-03T14:43:35Z</time></trkpt><trkpt lat="44.373579341080536" lon="8.371811973219085"><ele>613.0</ele><time>2026-04-03T14:43:36Z</time></trkpt><trkpt lat="44.37344453875249" lon="8.371712386421565"><ele>613.0</ele><time>2026-04-03T14:43:37Z</time></trkpt><trkpt lat="44.37331181829104" lon="8.371634647760155"><ele>613.0</ele><time>2026-04-03T14:43:38Z</time></trkpt><trkpt lat="44.373175093124374" lon="8.371572030936534"><ele>613.0</ele><time>2026-04-03T14:43:39Z</time></trkpt><trkpt lat="44.37303647044348" lon="8.371527853690338"><ele>613.0</ele><time>2026-04-03T14:43:40Z</time></trkpt><trkpt lat="44.37289799584331" lon="8.371490605634996"><ele>613.0</ele><time>2026-04-03T14:43:41Z</time></trkpt><trkpt lat="44.37276038398721" lon="8.371459053303239"><ele>613.0</ele><time>2026-04-03T14:43:42Z</time></trkpt><trkpt lat="44.37262222665707" lon="8.371430174649932"><ele>613.0</ele><time>2026-04-03T14:43:43Z</time></trkpt><trkpt lat="44.3724895452024" lon="8.371402477034993"><ele>613.0</ele><time>2026-04-03T14:43:44Z</time></trkpt><trkpt lat="44.372356545851616" lon="8.371349105942857"><ele>614.6666666666667</ele><time>2026-04-03T14:43:45Z</time></trkpt><trkpt lat="44.37222016568953" lon="8.37125973917372"><ele>616.3333333333334</ele><time>2026-04-03T14:43:46Z</time></trkpt><trkpt lat="44.372064617892015" lon="8.371163862330969"><ele>618.0</ele><time>2026-04-03T14:43:47Z</time></trkpt><trkpt lat="44.37190486130608" lon="8.371096248975315"><ele>618.0</ele><time>2026-04-03T14:43:48Z</time></trkpt><trkpt lat="44.371757159857395" lon="8.371047616251062"><ele>618.0</ele><time>2026-04-03T14:43:49Z</time></trkpt><trkpt lat="44.37162189202991" lon="8.37102191809192"><ele>618.0</ele><time>2026-04-03T14:43:50Z</time></trkpt><trkpt lat="44.3715136742648" lon="8.371025928815296"><ele>618.0</ele><time>2026-04-03T14:43:51Z</time></trkpt><trkpt lat="44.371435581329735" lon="8.370985846132823"><ele>619.4</ele><time>2026-04-03T14:43:52Z</time></trkpt><trkpt lat="44.37132004835298" lon="8.370927034599774"><ele>620.8</ele><time>2026-04-03T14:43:54Z</time></trkpt><trkpt lat="44.37129041341885" lon="8.37083290447183"><ele>622.2</ele><time>2026-04-03T14:43:55Z</time></trkpt><trkpt lat="44.371296738427944" lon="8.37071352839721"><ele>623.6</ele><time>2026-04-03T14:43:56Z</time></trkpt><trkpt lat="44.37132522634385" lon="8.370565419777677"><ele>625.0</ele><time>2026-04-03T14:43:57Z</time></trkpt><trkpt lat="44.37135938842754" lon="8.370408230231705"><ele>625.0</ele><time>2026-04-03T14:43:58Z</time></trkpt><trkpt lat="44.3713681719486" lon="8.370223234972595"><ele>625.0</ele><time>2026-04-03T14:43:59Z</time></trkpt><trkpt lat="44.371352451305626" lon="8.370029626584431"><ele>625.0</ele><time>2026-04-03T14:44:00Z</time></trkpt><trkpt lat="44.371309835114566" lon="8.369848719211946"><ele>625.0</ele><time>2026-04-03T14:44:01Z</time></trkpt><trkpt lat="44.37124383257852" lon="8.369684605122197"><ele>621.5</ele><time>2026-04-03T14:44:02Z</time></trkpt><trkpt lat="44.37114481363904" lon="8.369548693052513"><ele>618.0</ele><time>2026-04-03T14:44:03Z</time></trkpt><trkpt lat="44.37101817775601" lon="8.36943579813865"><ele>614.5</ele><time>2026-04-03T14:44:04Z</time></trkpt><trkpt lat="44.370887082302644" lon="8.369306687679057"><ele>611.0</ele><time>2026-04-03T14:44:05Z</time></trkpt><trkpt lat="44.3707233014738" lon="8.369235364315676"><ele>611.0</ele><time>2026-04-03T14:44:06Z</time></trkpt><trkpt lat="44.370551946914375" lon="8.369207515490052"><ele>611.0</ele><time>2026-04-03T14:44:07Z</time></trkpt><trkpt lat="44.3703913435991" lon="8.369166222645084"><ele>611.0</ele><time>2026-04-03T14:44:08Z</time></trkpt><trkpt lat="44.37023591350315" lon="8.369088200963152"><ele>615.0</ele><time>2026-04-03T14:44:09Z</time></trkpt><trkpt lat="44.370087818539325" lon="8.368991775185869"><ele>619.0</ele><time>2026-04-03T14:44:10Z</time></trkpt><trkpt lat="44.36993774611477" lon="8.368887022371835"><ele>623.0</ele><time>2026-04-03T14:44:11Z</time></trkpt><trkpt lat="44.36978019435779" lon="8.368773155104735"><ele>612.6666666666666</ele><time>2026-04-03T14:44:12Z</time></trkpt><trkpt lat="44.36962306022714" lon="8.368641733229973"><ele>602.3333333333334</ele><time>2026-04-03T14:44:13Z</time></trkpt><trkpt lat="44.36946916577647" lon="8.368476951045283"><ele>592.0</ele><time>2026-04-03T14:44:14Z</time></trkpt><trkpt lat="44.36931934755742" lon="8.368294143261311"><ele>592.0</ele><time>2026-04-03T14:44:15Z</time></trkpt><trkpt lat="44.36916062962951" lon="8.368109811254504"><ele>592.0</ele><time>2026-04-03T14:44:16Z</time></trkpt><trkpt lat="44.36900926168593" lon="8.367954342705042"><ele>592.0</ele><time>2026-04-03T14:44:17Z</time></trkpt><trkpt lat="44.36883404470136" lon="8.367828360429336"><ele>593.0</ele><time>2026-04-03T14:44:18Z</time></trkpt><trkpt lat="44.368652005321216" lon="8.367708274133651"><ele>594.0</ele><time>2026-04-03T14:44:19Z</time></trkpt><trkpt lat="44.36846062623021" lon="8.36758504486846"><ele>595.0</ele><time>2026-04-03T14:44:20Z</time></trkpt><trkpt lat="44.36826720062934" lon="8.367460497837893"><ele>595.0</ele><time>2026-04-03T14:44:21Z</time></trkpt><trkpt lat="44.36807800654417" lon="8.367351142124635"><ele>595.0</ele><time>2026-04-03T14:44:22Z</time></trkpt><trkpt lat="44.36790137097506" lon="8.367280639759274"><ele>595.0</ele><time>2026-04-03T14:44:23Z</time></trkpt><trkpt lat="44.367749100217374" lon="8.367229743539113"><ele>591.75</ele><time>2026-04-03T14:44:24Z</time></trkpt><trkpt lat="44.36760765160813" lon="8.367181398111375"><ele>588.5</ele><time>2026-04-03T14:44:25Z</time></trkpt><trkpt lat="44.36746572956661" lon="8.367138830612795"><ele>585.25</ele><time>2026-04-03T14:44:26Z</time></trkpt><trkpt lat="44.3673262644787" lon="8.36712317859098"><ele>582.0</ele><time>2026-04-03T14:44:27Z</time></trkpt><trkpt lat="44.36719835914851" lon="8.367113952180087"><ele>579.75</ele><time>2026-04-03T14:44:28Z</time></trkpt><trkpt lat="44.367072314367675" lon="8.367105258425443"><ele>577.5</ele><time>2026-04-03T14:44:29Z</time></trkpt><trkpt lat="44.36695161259278" lon="8.367099231530995"><ele>575.25</ele><time>2026-04-03T14:44:30Z</time></trkpt><trkpt lat="44.36683002815119" lon="8.367093160563774"><ele>573.0</ele><time>2026-04-03T14:44:31Z</time></trkpt><trkpt lat="44.36669999389953" lon="8.36708341515059"><ele>573.0</ele><time>2026-04-03T14:44:32Z</time></trkpt><trkpt lat="44.36654663423426" lon="8.367066438245343"><ele>573.0</ele><time>2026-04-03T14:44:33Z</time></trkpt><trkpt lat="44.36638478375131" lon="8.367040577826002"><ele>573.0</ele><time>2026-04-03T14:44:34Z</time></trkpt><trkpt lat="44.366244281867985" lon="8.367013264420768"><ele>572.8</ele><time>2026-04-03T14:44:35Z</time></trkpt><trkpt lat="44.3661179605294" lon="8.366987375647444"><ele>572.5999999999999</ele><time>2026-04-03T14:44:36Z</time></trkpt><trkpt lat="44.3660042922233" lon="8.366959584203686"><ele>572.4000000000001</ele><time>2026-04-03T14:44:37Z</time></trkpt><trkpt lat="44.36589898999485" lon="8.36692950717569"><ele>572.2</ele><time>2026-04-03T14:44:38Z</time></trkpt><trkpt lat="44.36580666783133" lon="8.366891586949938"><ele>572.0</ele><time>2026-04-03T14:44:39Z</time></trkpt><trkpt lat="44.36572226340039" lon="8.36684753142654"><ele>572.0</ele><time>2026-04-03T14:44:40Z</time></trkpt><trkpt lat="44.36565483643201" lon="8.36680340093049"><ele>572.0</ele><time>2026-04-03T14:44:41Z</time></trkpt><trkpt lat="44.36558657195209" lon="8.366755484004889"><ele>572.0</ele><time>2026-04-03T14:44:42Z</time></trkpt><trkpt lat="44.36550842454371" lon="8.366694861815963"><ele>572.0</ele><time>2026-04-03T14:44:43Z</time></trkpt><trkpt lat="44.365423506229966" lon="8.366624622499192"><ele>572.0</ele><time>2026-04-03T14:44:44Z</time></trkpt><trkpt lat="44.36533375307108" lon="8.366545471086626"><ele>572.0</ele><time>2026-04-03T14:44:45Z</time></trkpt><trkpt lat="44.365235918239" lon="8.366452472195954"><ele>573.75</ele><time>2026-04-03T14:44:46Z</time></trkpt><trkpt lat="44.36513976127516" lon="8.366349210751277"><ele>575.5</ele><time>2026-04-03T14:44:47Z</time></trkpt><trkpt lat="44.365049952336825" lon="8.366220756905394"><ele>577.25</ele><time>2026-04-03T14:44:48Z</time></trkpt><trkpt lat="44.364973625702284" lon="8.366047136556913"><ele>579.0</ele><time>2026-04-03T14:44:49Z</time></trkpt><trkpt lat="44.36491586842464" lon="8.365844178671354"><ele>579.0</ele><time>2026-04-03T14:44:50Z</time></trkpt><trkpt lat="44.364855114960925" lon="8.36563079435214"><ele>579.0</ele><time>2026-04-03T14:44:51Z</time></trkpt><trkpt lat="44.36478121577649" lon="8.36541442161466"><ele>579.0</ele><time>2026-04-03T14:44:52Z</time></trkpt><trkpt lat="44.36467551475397" lon="8.365208573984159"><ele>575.3333333333334</ele><time>2026-04-03T14:44:53Z</time></trkpt><trkpt lat="44.36458691136276" lon="8.364964537717574"><ele>571.6666666666667</ele><time>2026-04-03T14:44:54Z</time></trkpt><trkpt lat="44.36448193366217" lon="8.3647185495189"><ele>568.0</ele><time>2026-04-03T14:44:55Z</time></trkpt><trkpt lat="44.36437316413297" lon="8.364460485541157"><ele>568.0</ele><time>2026-04-03T14:44:56Z</time></trkpt><trkpt lat="44.36424754003544" lon="8.36421007775382"><ele>568.0</ele><time>2026-04-03T14:44:57Z</time></trkpt><trkpt lat="44.36410743825865" lon="8.36396915762466"><ele>568.0</ele><time>2026-04-03T14:44:58Z</time></trkpt><trkpt lat="44.36397120077407" lon="8.36373067325303"><ele>563.3333333333334</ele><time>2026-04-03T14:44:59Z</time></trkpt><trkpt lat="44.36384666063497" lon="8.36350759283735"><ele>558.6666666666666</ele><time>2026-04-03T14:45:00Z</time></trkpt><trkpt lat="44.363731460429264" lon="8.36330441229745"><ele>554.0</ele><time>2026-04-03T14:45:01Z</time></trkpt><trkpt lat="44.3636244800152" lon="8.363113274387427"><ele>557.0</ele><time>2026-04-03T14:45:02Z</time></trkpt><trkpt lat="44.3635216328443" lon="8.362925179605151"><ele>560.0</ele><time>2026-04-03T14:45:03Z</time></trkpt><trkpt lat="44.36340683835343" lon="8.36275246094698"><ele>563.0</ele><time>2026-04-03T14:45:04Z</time></trkpt><trkpt lat="44.36331773560097" lon="8.362558345153996"><ele>563.0</ele><time>2026-04-03T14:45:05Z</time></trkpt><trkpt lat="44.36321489638183" lon="8.362394023830108"><ele>563.0</ele><time>2026-04-03T14:45:06Z</time></trkpt><trkpt lat="44.3631013736781" lon="8.36225403939803"><ele>563.0</ele><time>2026-04-03T14:45:07Z</time></trkpt><trkpt lat="44.36298144064175" lon="8.362139589789702"><ele>562.0</ele><time>2026-04-03T14:45:08Z</time></trkpt><trkpt lat="44.36285294721632" lon="8.36204974085112"><ele>561.0</ele><time>2026-04-03T14:45:09Z</time></trkpt><trkpt lat="44.36271484229153" lon="8.361982827661745"><ele>560.0</ele><time>2026-04-03T14:45:10Z</time></trkpt><trkpt lat="44.36256557865523" lon="8.361948191547153"><ele>559.0</ele><time>2026-04-03T14:45:11Z</time></trkpt><trkpt lat="44.362419245046155" lon="8.361947133547561"><ele>559.0</ele><time>2026-04-03T14:45:12Z</time></trkpt><trkpt lat="44.362292537272424" lon="8.361942499649011"><ele>559.0</ele><time>2026-04-03T14:45:13Z</time></trkpt><trkpt lat="44.36220832269603" lon="8.361921657106723"><ele>559.0</ele><time>2026-04-03T14:45:14Z</time></trkpt><trkpt lat="44.36213926923549" lon="8.361815127067374"><ele>559.0</ele><time>2026-04-03T14:45:16Z</time></trkpt><trkpt lat="44.362105202535545" lon="8.36170944205877"><ele>559.0</ele><time>2026-04-03T14:45:17Z</time></trkpt><trkpt lat="44.36208073899435" lon="8.361554460633814"><ele>551.25</ele><time>2026-04-03T14:45:18Z</time></trkpt><trkpt lat="44.36207621790235" lon="8.361371191010427"><ele>543.5</ele><time>2026-04-03T14:45:19Z</time></trkpt><trkpt lat="44.36206321404727" lon="8.361176966675812"><ele>535.75</ele><time>2026-04-03T14:45:20Z</time></trkpt><trkpt lat="44.36201214373855" lon="8.360983316991176"><ele>528.0</ele><time>2026-04-03T14:45:21Z</time></trkpt><trkpt lat="44.36193936670286" lon="8.360780721393356"><ele>528.0</ele><time>2026-04-03T14:45:22Z</time></trkpt><trkpt lat="44.36187735284627" lon="8.360555237689034"><ele>528.0</ele><time>2026-04-03T14:45:23Z</time></trkpt><trkpt lat="44.361807525889944" lon="8.360323949431171"><ele>528.0</ele><time>2026-04-03T14:45:24Z</time></trkpt><trkpt lat="44.361715683566295" lon="8.360085572999195"><ele>528.0</ele><time>2026-04-03T14:45:25Z</time></trkpt><trkpt lat="44.361641389340164" lon="8.359818014219558"><ele>528.0</ele><time>2026-04-03T14:45:26Z</time></trkpt><trkpt lat="44.36158413478546" lon="8.359534187452766"><ele>528.0</ele><time>2026-04-03T14:45:27Z</time></trkpt><trkpt lat="44.36156061178321" lon="8.359226624134955"><ele>525.6666666666666</ele><time>2026-04-03T14:45:28Z</time></trkpt><trkpt lat="44.361564181491666" lon="8.358915810972206"><ele>523.3333333333333</ele><time>2026-04-03T14:45:29Z</time></trkpt><trkpt lat="44.36157699120007" lon="8.358598980263244"><ele>521.0</ele><time>2026-04-03T14:45:30Z</time></trkpt><trkpt lat="44.36158853795639" lon="8.358272132796381"><ele>516.5</ele><time>2026-04-03T14:45:31Z</time></trkpt><trkpt lat="44.361594109688205" lon="8.357941748343462"><ele>512.0</ele><time>2026-04-03T14:45:32Z</time></trkpt><trkpt lat="44.36159497523508" lon="8.357609854872358"><ele>512.0</ele><time>2026-04-03T14:45:33Z</time></trkpt><trkpt lat="44.36159509059004" lon="8.357314805042925"><ele>512.0</ele><time>2026-04-03T14:45:34Z</time></trkpt><trkpt lat="44.36159057614992" lon="8.357073778635966"><ele>512.0</ele><time>2026-04-03T14:45:35Z</time></trkpt><trkpt lat="44.36158536638269" lon="8.356870082602313"><ele>511.75</ele><time>2026-04-03T14:45:36Z</time></trkpt><trkpt lat="44.36157187779654" lon="8.356689539450198"><ele>511.5</ele><time>2026-04-03T14:45:37Z</time></trkpt><trkpt lat="44.36155617873184" lon="8.356530126165557"><ele>511.25</ele><time>2026-04-03T14:45:38Z</time></trkpt><trkpt lat="44.36148914500743" lon="8.356377894177378"><ele>511.0</ele><time>2026-04-03T14:45:39Z</time></trkpt><trkpt lat="44.36139715532344" lon="8.356254895690606"><ele>507.5</ele><time>2026-04-03T14:45:40Z</time></trkpt><trkpt lat="44.361294543384844" lon="8.356139393721115"><ele>504.0</ele><time>2026-04-03T14:45:41Z</time></trkpt><trkpt lat="44.36117811704231" lon="8.356031832483254"><ele>500.5</ele><time>2026-04-03T14:45:42Z</time></trkpt><trkpt lat="44.36107649046937" lon="8.355872036457079"><ele>497.0</ele><time>2026-04-03T14:45:43Z</time></trkpt><trkpt lat="44.360976349586274" lon="8.355676246571205"><ele>497.66666666666663</ele><time>2026-04-03T14:45:44Z</time></trkpt><trkpt lat="44.360881231725706" lon="8.35545435431668"><ele>498.33333333333337</ele><time>2026-04-03T14:45:45Z</time></trkpt><trkpt lat="44.36079616797884" lon="8.355220733372905"><ele>499.0</ele><time>2026-04-03T14:45:46Z</time></trkpt><trkpt lat="44.3607212997153" lon="8.355001803503146"><ele>499.0</ele><time>2026-04-03T14:45:47Z</time></trkpt><trkpt lat="44.36064721494853" lon="8.354787555924535"><ele>499.0</ele><time>2026-04-03T14:45:48Z</time></trkpt><trkpt lat="44.36057573631131" lon="8.354577858311327"><ele>499.0</ele><time>2026-04-03T14:45:49Z</time></trkpt><trkpt lat="44.36050851171716" lon="8.35438116844669"><ele>499.75</ele><time>2026-04-03T14:45:50Z</time></trkpt><trkpt lat="44.360465549022926" lon="8.354197268166773"><ele>500.5</ele><time>2026-04-03T14:45:51Z</time></trkpt><trkpt lat="44.36039059816454" lon="8.354031576569051"><ele>501.25</ele><time>2026-04-03T14:45:52Z</time></trkpt><trkpt lat="44.36029025737164" lon="8.353889712309359"><ele>502.0</ele><time>2026-04-03T14:45:53Z</time></trkpt><trkpt lat="44.36016862036167" lon="8.353772147504808"><ele>502.0</ele><time>2026-04-03T14:45:54Z</time></trkpt><trkpt lat="44.360037555366894" lon="8.353657086366194"><ele>502.0</ele><time>2026-04-03T14:45:55Z</time></trkpt><trkpt lat="44.35988152785073" lon="8.35355786763584"><ele>502.0</ele><time>2026-04-03T14:45:56Z</time></trkpt><trkpt lat="44.359725395927796" lon="8.353499950363705"><ele>495.75</ele><time>2026-04-03T14:45:57Z</time></trkpt><trkpt lat="44.35959206514604" lon="8.353459935106724"><ele>489.5</ele><time>2026-04-03T14:45:58Z</time></trkpt><trkpt lat="44.359482890480685" lon="8.353405987038123"><ele>483.25</ele><time>2026-04-03T14:45:59Z</time></trkpt><trkpt lat="44.35938042434171" lon="8.353290733830661"><ele>477.0</ele><time>2026-04-03T14:46:00Z</time></trkpt><trkpt lat="44.359268621918744" lon="8.353147468420744"><ele>483.66666666666663</ele><time>2026-04-03T14:46:01.001Z</time></trkpt><trkpt lat="44.35915711532882" lon="8.352981344633184"><ele>490.3333333333333</ele><time>2026-04-03T14:46:02.001Z</time></trkpt><trkpt lat="44.359038012522284" lon="8.352811629652859"><ele>497.0</ele><time>2026-04-03T14:46:03.001Z</time></trkpt><trkpt lat="44.35889971894382" lon="8.35268700396168"><ele>488.0</ele><time>2026-04-03T14:46:04.001Z</time></trkpt><trkpt lat="44.35874217131086" lon="8.352580924608299"><ele>479.0</ele><time>2026-04-03T14:46:05.001Z</time></trkpt><trkpt lat="44.358573278709635" lon="8.352501208149834"><ele>470.0</ele><time>2026-04-03T14:46:06.001Z</time></trkpt><trkpt lat="44.35842572757098" lon="8.35245705041569"><ele>470.0</ele><time>2026-04-03T14:46:07.001Z</time></trkpt><trkpt lat="44.35831134949865" lon="8.352454130679769"><ele>470.0</ele><time>2026-04-03T14:46:08.001Z</time></trkpt><trkpt lat="44.35823877722228" lon="8.352408049238779"><ele>470.0</ele><time>2026-04-03T14:46:09.001Z</time></trkpt><trkpt lat="44.358180448439214" lon="8.352364523733977"><ele>470.0</ele><time>2026-04-03T14:46:10.001Z</time></trkpt><trkpt lat="44.35815357120886" lon="8.352249034646325"><ele>470.0</ele><time>2026-04-03T14:46:11.001Z</time></trkpt><trkpt lat="44.35815605147889" lon="8.352098120115683"><ele>470.75</ele><time>2026-04-03T14:46:12.001Z</time></trkpt><trkpt lat="44.358187882881914" lon="8.35191880147925"><ele>471.5</ele><time>2026-04-03T14:46:13.001Z</time></trkpt><trkpt lat="44.358219404417284" lon="8.351717527539032"><ele>472.25</ele><time>2026-04-03T14:46:14.001Z</time></trkpt><trkpt lat="44.35823577072625" lon="8.351493492650638"><ele>473.0</ele><time>2026-04-03T14:46:15.001Z</time></trkpt><trkpt lat="44.35824519998674" lon="8.351277668706043"><ele>470.5</ele><time>2026-04-03T14:46:16.001Z</time></trkpt><trkpt lat="44.35824556381332" lon="8.351081345424106"><ele>468.0</ele><time>2026-04-03T14:46:17.001Z</time></trkpt><trkpt lat="44.35825831677951" lon="8.35090956639543"><ele>465.5</ele><time>2026-04-03T14:46:18.001Z</time></trkpt><trkpt lat="44.35823550780575" lon="8.350756015567473"><ele>463.0</ele><time>2026-04-03T14:46:19.001Z</time></trkpt><trkpt lat="44.35823027588951" lon="8.35062673154869"><ele>462.00000000000006</ele><time>2026-04-03T14:46:20.001Z</time></trkpt><trkpt lat="44.35822371909184" lon="8.350515295769583"><ele>461.0</ele><time>2026-04-03T14:46:21.001Z</time></trkpt><trkpt lat="44.35823032522793" lon="8.350409512148515"><ele>460.0</ele><time>2026-04-03T14:46:22.001Z</time></trkpt><trkpt lat="44.358241097882775" lon="8.350314535239251"><ele>459.0</ele><time>2026-04-03T14:46:23.001Z</time></trkpt><trkpt lat="44.358289392003364" lon="8.350177821371132"><ele>458.00000000000006</ele><time>2026-04-03T14:46:24.001Z</time></trkpt><trkpt lat="44.35838893943015" lon="8.350125977867872"><ele>457.0</ele><time>2026-04-03T14:46:25.001Z</time></trkpt><trkpt lat="44.35848651996155" lon="8.350056990547678"><ele>457.0</ele><time>2026-04-03T14:46:26.001Z</time></trkpt><trkpt lat="44.35861371167054" lon="8.349991280178902"><ele>457.0</ele><time>2026-04-03T14:46:27.001Z</time></trkpt><trkpt lat="44.358751576278244" lon="8.349911552174035"><ele>457.0</ele><time>2026-04-03T14:46:28.001Z</time></trkpt><trkpt lat="44.358906864911994" lon="8.34982028868468"><ele>457.6666666666667</ele><time>2026-04-03T14:46:29.001Z</time></trkpt><trkpt lat="44.35907354224523" lon="8.349725078791169"><ele>458.33333333333337</ele><time>2026-04-03T14:46:30.001Z</time></trkpt><trkpt lat="44.35925273932448" lon="8.349626195679253"><ele>459.0</ele><time>2026-04-03T14:46:31.001Z</time></trkpt><trkpt lat="44.35943178493295" lon="8.349529931566064"><ele>457.0</ele><time>2026-04-03T14:46:32.001Z</time></trkpt><trkpt lat="44.35959653820467" lon="8.349441670073626"><ele>455.0</ele><time>2026-04-03T14:46:33.001Z</time></trkpt><trkpt lat="44.359755463407055" lon="8.349350482175359"><ele>453.0</ele><time>2026-04-03T14:46:34.001Z</time></trkpt><trkpt lat="44.35991551700803" lon="8.349287293339243"><ele>451.0</ele><time>2026-04-03T14:46:35.001Z</time></trkpt><trkpt lat="44.360061682771246" lon="8.349204889343836"><ele>449.0</ele><time>2026-04-03T14:46:36.001Z</time></trkpt><trkpt lat="44.36020405876468" lon="8.34911581986399"><ele>447.0</ele><time>2026-04-03T14:46:37.001Z</time></trkpt><trkpt lat="44.36034492067605" lon="8.349014882264314"><ele>447.0</ele><time>2026-04-03T14:46:38.001Z</time></trkpt><trkpt lat="44.36048898033986" lon="8.34889017629172"><ele>447.0</ele><time>2026-04-03T14:46:39.001Z</time></trkpt><trkpt lat="44.36062139396166" lon="8.348707324954653"><ele>447.0</ele><time>2026-04-03T14:46:40.001Z</time></trkpt><trkpt lat="44.36076143097693" lon="8.348521944928516"><ele>444.0</ele><time>2026-04-03T14:46:41.001Z</time></trkpt><trkpt lat="44.36091827706003" lon="8.34834508345758"><ele>441.0</ele><time>2026-04-03T14:46:42.001Z</time></trkpt><trkpt lat="44.361067578255856" lon="8.348149227877594"><ele>438.0</ele><time>2026-04-03T14:46:43.001Z</time></trkpt><trkpt lat="44.361223963358974" lon="8.34794407949572"><ele>437.0</ele><time>2026-04-03T14:46:44.001Z</time></trkpt><trkpt lat="44.36138433878762" lon="8.347733678822157"><ele>436.0</ele><time>2026-04-03T14:46:45.001Z</time></trkpt><trkpt lat="44.36154857738703" lon="8.34751814688897"><ele>435.0</ele><time>2026-04-03T14:46:46.001Z</time></trkpt><trkpt lat="44.36170423916856" lon="8.347283615801759"><ele>432.66666666666663</ele><time>2026-04-03T14:46:47.001Z</time></trkpt><trkpt lat="44.361858081836466" lon="8.347082869950878"><ele>430.3333333333333</ele><time>2026-04-03T14:46:48.001Z</time></trkpt><trkpt lat="44.3620041305022" lon="8.346889011395925"><ele>428.0</ele><time>2026-04-03T14:46:49.001Z</time></trkpt><trkpt lat="44.36215588109026" lon="8.346718808255082"><ele>428.3333333333333</ele><time>2026-04-03T14:46:50.001Z</time></trkpt><trkpt lat="44.362296962446784" lon="8.346529115777612"><ele>428.66666666666663</ele><time>2026-04-03T14:46:51.001Z</time></trkpt><trkpt lat="44.36243194690649" lon="8.346323557357698"><ele>429.0</ele><time>2026-04-03T14:46:52.001Z</time></trkpt><trkpt lat="44.36255714909533" lon="8.346104884527104"><ele>428.0</ele><time>2026-04-03T14:46:53.001Z</time></trkpt><trkpt lat="44.362666781182256" lon="8.345891035986485"><ele>427.0</ele><time>2026-04-03T14:46:54.001Z</time></trkpt><trkpt lat="44.36276973597774" lon="8.345682441996814"><ele>426.0</ele><time>2026-04-03T14:46:55.001Z</time></trkpt><trkpt lat="44.362869985433974" lon="8.345479329234488"><ele>426.0</ele><time>2026-04-03T14:46:56.001Z</time></trkpt><trkpt lat="44.36296915503072" lon="8.345286144595534"><ele>426.0</ele><time>2026-04-03T14:46:57.001Z</time></trkpt><trkpt lat="44.36306452458428" lon="8.345088157662214"><ele>426.0</ele><time>2026-04-03T14:46:58.001Z</time></trkpt><trkpt lat="44.3631984361125" lon="8.344919637753932"><ele>423.0</ele><time>2026-04-03T14:46:59.001Z</time></trkpt><trkpt lat="44.363348756043536" lon="8.34475988317781"><ele>420.0</ele><time>2026-04-03T14:47:00.001Z</time></trkpt><trkpt lat="44.3634986816718" lon="8.344619683404778"><ele>417.0</ele><time>2026-04-03T14:47:01.001Z</time></trkpt><trkpt lat="44.3636524105613" lon="8.34450951311339"><ele>416.66666666666663</ele><time>2026-04-03T14:47:02.001Z</time></trkpt><trkpt lat="44.36379027905574" lon="8.344387730220813"><ele>416.3333333333333</ele><time>2026-04-03T14:47:03.001Z</time></trkpt><trkpt lat="44.36391032828794" lon="8.344272287758837"><ele>416.0</ele><time>2026-04-03T14:47:04.001Z</time></trkpt><trkpt lat="44.36401926711761" lon="8.34414494557597"><ele>413.5</ele><time>2026-04-03T14:47:05.001Z</time></trkpt><trkpt lat="44.36409709787792" lon="8.34398029863175"><ele>411.0</ele><time>2026-04-03T14:47:06.001Z</time></trkpt><trkpt lat="44.3641394887854" lon="8.34380587937733"><ele>408.5</ele><time>2026-04-03T14:47:07.001Z</time></trkpt><trkpt lat="44.3641639273045" lon="8.343617002520688"><ele>406.0</ele><time>2026-04-03T14:47:08.001Z</time></trkpt><trkpt lat="44.36418051159154" lon="8.34338065325049"><ele>405.6666666666667</ele><time>2026-04-03T14:47:09.001Z</time></trkpt><trkpt lat="44.364192029446016" lon="8.343152841503667"><ele>405.33333333333337</ele><time>2026-04-03T14:47:10.001Z</time></trkpt><trkpt lat="44.36420238930458" lon="8.342919221261448"><ele>405.0</ele><time>2026-04-03T14:47:11.001Z</time></trkpt><trkpt lat="44.36421646878397" lon="8.342674473032025"><ele>405.0</ele><time>2026-04-03T14:47:12.001Z</time></trkpt><trkpt lat="44.36423015253916" lon="8.342417163641887"><ele>405.0</ele><time>2026-04-03T14:47:13.001Z</time></trkpt><trkpt lat="44.364239072244914" lon="8.342174605854824"><ele>405.0</ele><time>2026-04-03T14:47:14.001Z</time></trkpt><trkpt lat="44.364243771085896" lon="8.341940918741539"><ele>405.0</ele><time>2026-04-03T14:47:15.001Z</time></trkpt><trkpt lat="44.364236787325275" lon="8.34168984986371"><ele>405.0</ele><time>2026-04-03T14:47:16.001Z</time></trkpt><trkpt lat="44.36420637174407" lon="8.34143307541771"><ele>405.0</ele><time>2026-04-03T14:47:17.001Z</time></trkpt><trkpt lat="44.364146141889904" lon="8.34118319962745"><ele>403.33333333333337</ele><time>2026-04-03T14:47:18.001Z</time></trkpt><trkpt lat="44.364089260651056" lon="8.340940393501182"><ele>401.6666666666667</ele><time>2026-04-03T14:47:19.001Z</time></trkpt><trkpt lat="44.36404988900103" lon="8.340689796426673"><ele>400.0</ele><time>2026-04-03T14:47:20.001Z</time></trkpt><trkpt lat="44.36402269393156" lon="8.340432257257437"><ele>397.33333333333337</ele><time>2026-04-03T14:47:21.001Z</time></trkpt><trkpt lat="44.3640036354277" lon="8.34016214846462"><ele>394.66666666666663</ele><time>2026-04-03T14:47:22.001Z</time></trkpt><trkpt lat="44.36397828381535" lon="8.339886743312299"><ele>392.0</ele><time>2026-04-03T14:47:23.001Z</time></trkpt><trkpt lat="44.3639869923755" lon="8.33959534257367"><ele>390.3333333333333</ele><time>2026-04-03T14:47:24.001Z</time></trkpt><trkpt lat="44.36397924639854" lon="8.339294508106176"><ele>388.66666666666663</ele><time>2026-04-03T14:47:25.001Z</time></trkpt><trkpt lat="44.363955142783816" lon="8.338999442999851"><ele>387.0</ele><time>2026-04-03T14:47:26.001Z</time></trkpt><trkpt lat="44.36396533650977" lon="8.338731731836447"><ele>387.0</ele><time>2026-04-03T14:47:27.001Z</time></trkpt><trkpt lat="44.36396006911708" lon="8.33850279240024"><ele>387.0</ele><time>2026-04-03T14:47:28.001Z</time></trkpt><trkpt lat="44.36395542767791" lon="8.338309600109577"><ele>387.0</ele><time>2026-04-03T14:47:29.001Z</time></trkpt><trkpt lat="44.36395453166445" lon="8.33812269821318"><ele>387.0</ele><time>2026-04-03T14:47:30.001Z</time></trkpt><trkpt lat="44.363962294222105" lon="8.337953474121152"><ele>387.25</ele><time>2026-04-03T14:47:31.001Z</time></trkpt><trkpt lat="44.36398630389306" lon="8.337788806125896"><ele>387.5</ele><time>2026-04-03T14:47:32.001Z</time></trkpt><trkpt lat="44.364059045493235" lon="8.337655633042782"><ele>387.75</ele><time>2026-04-03T14:47:33.001Z</time></trkpt><trkpt lat="44.36415080222735" lon="8.337551609835808"><ele>388.0</ele><time>2026-04-03T14:47:34.001Z</time></trkpt><trkpt lat="44.364269394485035" lon="8.337461727201786"><ele>388.0</ele><time>2026-04-03T14:47:35.001Z</time></trkpt><trkpt lat="44.36440474283097" lon="8.337374542439939"><ele>388.0</ele><time>2026-04-03T14:47:36.001Z</time></trkpt><trkpt lat="44.3645453683318" lon="8.337280706398452"><ele>388.0</ele><time>2026-04-03T14:47:37.001Z</time></trkpt><trkpt lat="44.364690146472405" lon="8.3371765103813"><ele>387.25</ele><time>2026-04-03T14:47:38.001Z</time></trkpt><trkpt lat="44.36483306051314" lon="8.337074202682803"><ele>386.5</ele><time>2026-04-03T14:47:39.001Z</time></trkpt><trkpt lat="44.36499161566709" lon="8.336959897577644"><ele>385.75</ele><time>2026-04-03T14:47:40.001Z</time></trkpt><trkpt lat="44.36505280794351" lon="8.33689689025077"><ele>385.0</ele><time>2026-04-03T14:47:41.001Z</time></trkpt><trkpt lat="44.365201956885734" lon="8.336788584631883"><ele>385.0</ele><time>2026-04-03T14:47:42.001Z</time></trkpt><trkpt lat="44.36533250712292" lon="8.336687870294528"><ele>385.0</ele><time>2026-04-03T14:47:43.001Z</time></trkpt><trkpt lat="44.365460473797015" lon="8.336583703248808"><ele>385.0</ele><time>2026-04-03T14:47:44.001Z</time></trkpt><trkpt lat="44.365575601569255" lon="8.336442559140602"><ele>386.33333333333337</ele><time>2026-04-03T14:47:45.001Z</time></trkpt><trkpt lat="44.365675108766894" lon="8.336273586556317"><ele>387.66666666666663</ele><time>2026-04-03T14:47:46.001Z</time></trkpt><trkpt lat="44.36576453629674" lon="8.336092932462147"><ele>389.0</ele><time>2026-04-03T14:47:47.001Z</time></trkpt><trkpt lat="44.365840436499155" lon="8.335893428233577"><ele>389.0</ele><time>2026-04-03T14:47:48.001Z</time></trkpt><trkpt lat="44.365892810997195" lon="8.335684171804179"><ele>389.0</ele><time>2026-04-03T14:47:49.001Z</time></trkpt><trkpt lat="44.36592765813407" lon="8.33546129106507"><ele>389.0</ele><time>2026-04-03T14:47:50.001Z</time></trkpt><trkpt lat="44.36594477595203" lon="8.33521064994811"><ele>389.3333333333333</ele><time>2026-04-03T14:47:51.001Z</time></trkpt><trkpt lat="44.3659513007735" lon="8.334954093189895"><ele>389.66666666666663</ele><time>2026-04-03T14:47:52.001Z</time></trkpt><trkpt lat="44.36595159456675" lon="8.334685662732088"><ele>390.0</ele><time>2026-04-03T14:47:53.001Z</time></trkpt><trkpt lat="44.36595340510167" lon="8.334404345457454"><ele>389.33333333333337</ele><time>2026-04-03T14:47:54.001Z</time></trkpt><trkpt lat="44.365961932206275" lon="8.33412796460683"><ele>388.6666666666667</ele><time>2026-04-03T14:47:55.001Z</time></trkpt><trkpt lat="44.36598705312685" lon="8.333874569532194"><ele>388.0</ele><time>2026-04-03T14:47:56.001Z</time></trkpt><trkpt lat="44.365996735100545" lon="8.33363415334777"><ele>387.6666666666667</ele><time>2026-04-03T14:47:57.001Z</time></trkpt><trkpt lat="44.36600680467898" lon="8.333384112401776"><ele>387.33333333333337</ele><time>2026-04-03T14:47:58.001Z</time></trkpt><trkpt lat="44.36601600473003" lon="8.333135699358358"><ele>387.0</ele><time>2026-04-03T14:47:59.001Z</time></trkpt><trkpt lat="44.36602480844984" lon="8.332881795802377"><ele>386.0</ele><time>2026-04-03T14:48:00.001Z</time></trkpt><trkpt lat="44.36603376574741" lon="8.33262346299771"><ele>385.0</ele><time>2026-04-03T14:48:01.001Z</time></trkpt><trkpt lat="44.36604259882789" lon="8.332368712688991"><ele>384.0</ele><time>2026-04-03T14:48:02.001Z</time></trkpt><trkpt lat="44.36605020688145" lon="8.33210987236856"><ele>382.6666666666667</ele><time>2026-04-03T14:48:03.001Z</time></trkpt><trkpt lat="44.36605134777917" lon="8.33184306300623"><ele>381.33333333333337</ele><time>2026-04-03T14:48:04.001Z</time></trkpt><trkpt lat="44.36604146685938" lon="8.33157434149472"><ele>380.0</ele><time>2026-04-03T14:48:05.001Z</time></trkpt><trkpt lat="44.366034745056425" lon="8.331305134506684"><ele>379.0</ele><time>2026-04-03T14:48:06.001Z</time></trkpt><trkpt lat="44.36604356386389" lon="8.33103954697721"><ele>378.0</ele><time>2026-04-03T14:48:07.001Z</time></trkpt><trkpt lat="44.36606099864054" lon="8.330765793983474"><ele>377.0</ele><time>2026-04-03T14:48:08.001Z</time></trkpt><trkpt lat="44.36607806155922" lon="8.330488642347275"><ele>376.33333333333337</ele><time>2026-04-03T14:48:09.001Z</time></trkpt><trkpt lat="44.36609452068922" lon="8.330205709634427"><ele>375.6666666666667</ele><time>2026-04-03T14:48:10.001Z</time></trkpt><trkpt lat="44.36610620973718" lon="8.329924929307198"><ele>375.0</ele><time>2026-04-03T14:48:11.001Z</time></trkpt><trkpt lat="44.36611413658794" lon="8.329661542322045"><ele>374.3333333333333</ele><time>2026-04-03T14:48:12.001Z</time></trkpt><trkpt lat="44.36611646288653" lon="8.329420659288209"><ele>373.66666666666663</ele><time>2026-04-03T14:48:13.001Z</time></trkpt><trkpt lat="44.36609153318923" lon="8.329189488870965"><ele>373.0</ele><time>2026-04-03T14:48:14.001Z</time></trkpt><trkpt lat="44.366037735783884" lon="8.328963088391495"><ele>374.3333333333333</ele><time>2026-04-03T14:48:15.001Z</time></trkpt><trkpt lat="44.36598046122854" lon="8.328730086269863"><ele>375.6666666666667</ele><time>2026-04-03T14:48:16.001Z</time></trkpt><trkpt lat="44.36592272341255" lon="8.328495199527195"><ele>377.0</ele><time>2026-04-03T14:48:17.001Z</time></trkpt><trkpt lat="44.36586398732344" lon="8.328256251648853"><ele>377.33333333333337</ele><time>2026-04-03T14:48:18.001Z</time></trkpt><trkpt lat="44.36580222065808" lon="8.328005752757955"><ele>377.6666666666667</ele><time>2026-04-03T14:48:19.001Z</time></trkpt><trkpt lat="44.36573792729544" lon="8.327745202739848"><ele>378.0</ele><time>2026-04-03T14:48:20.001Z</time></trkpt><trkpt lat="44.3656746107493" lon="8.32749381759467"><ele>378.0</ele><time>2026-04-03T14:48:21.001Z</time></trkpt><trkpt lat="44.365615211595966" lon="8.327263675477527"><ele>378.0</ele><time>2026-04-03T14:48:22.001Z</time></trkpt><trkpt lat="44.3655741084211" lon="8.327059104324121"><ele>378.0</ele><time>2026-04-03T14:48:23.001Z</time></trkpt><trkpt lat="44.36555656722034" lon="8.326871926026683"><ele>377.5</ele><time>2026-04-03T14:48:24.001Z</time></trkpt><trkpt lat="44.36556231224109" lon="8.326672712359661"><ele>377.0</ele><time>2026-04-03T14:48:25.001Z</time></trkpt><trkpt lat="44.36558791296345" lon="8.326481152543112"><ele>376.5</ele><time>2026-04-03T14:48:26.001Z</time></trkpt><trkpt lat="44.36562786617855" lon="8.326309213480904"><ele>376.0</ele><time>2026-04-03T14:48:27.001Z</time></trkpt><trkpt lat="44.36567658757662" lon="8.326173030774632"><ele>374.4</ele><time>2026-04-03T14:48:28.001Z</time></trkpt><trkpt lat="44.36571472664506" lon="8.326037481582869"><ele>372.8</ele><time>2026-04-03T14:48:29.001Z</time></trkpt><trkpt lat="44.365777272022925" lon="8.325921485447841"><ele>371.2</ele><time>2026-04-03T14:48:30.001Z</time></trkpt><trkpt lat="44.36585787235407" lon="8.325815419071345"><ele>369.59999999999997</ele><time>2026-04-03T14:48:31.001Z</time></trkpt><trkpt lat="44.365960945287" lon="8.325734486529074"><ele>368.0</ele><time>2026-04-03T14:48:32.001Z</time></trkpt><trkpt lat="44.36607270392015" lon="8.325653413646455"><ele>367.0</ele><time>2026-04-03T14:48:33.001Z</time></trkpt><trkpt lat="44.366188390319685" lon="8.325551659475932"><ele>366.0</ele><time>2026-04-03T14:48:34.001Z</time></trkpt><trkpt lat="44.366320717620056" lon="8.325470262502163"><ele>365.0</ele><time>2026-04-03T14:48:35.001Z</time></trkpt><trkpt lat="44.36645816378977" lon="8.32539145760647"><ele>364.0</ele><time>2026-04-03T14:48:36.001Z</time></trkpt><trkpt lat="44.36659740089493" lon="8.325304289870546"><ele>363.66666666666663</ele><time>2026-04-03T14:48:37.001Z</time></trkpt><trkpt lat="44.36674267825478" lon="8.325218986158587"><ele>363.3333333333333</ele><time>2026-04-03T14:48:38.001Z</time></trkpt><trkpt lat="44.36689352652045" lon="8.325135574294618"><ele>363.0</ele><time>2026-04-03T14:48:39.001Z</time></trkpt><trkpt lat="44.367052325580104" lon="8.325064597945047"><ele>364.0</ele><time>2026-04-03T14:48:40.001Z</time></trkpt><trkpt lat="44.367216415769306" lon="8.325011988352905"><ele>365.0</ele><time>2026-04-03T14:48:41.001Z</time></trkpt><trkpt lat="44.367387816223165" lon="8.324979854065347"><ele>366.0</ele><time>2026-04-03T14:48:42.001Z</time></trkpt><trkpt lat="44.367558478446604" lon="8.324954197469006"><ele>366.0</ele><time>2026-04-03T14:48:43.001Z</time></trkpt><trkpt lat="44.36773205927286" lon="8.324925304480436"><ele>366.0</ele><time>2026-04-03T14:48:44.001Z</time></trkpt><trkpt lat="44.36790658662637" lon="8.324892356305691"><ele>366.0</ele><time>2026-04-03T14:48:45.001Z</time></trkpt><trkpt lat="44.36807953750613" lon="8.324865172823923"><ele>366.3333333333333</ele><time>2026-04-03T14:48:46.001Z</time></trkpt><trkpt lat="44.36826039805865" lon="8.324827116716344"><ele>366.66666666666663</ele><time>2026-04-03T14:48:47.001Z</time></trkpt><trkpt lat="44.36844186750514" lon="8.32479118656496"><ele>367.0</ele><time>2026-04-03T14:48:48.001Z</time></trkpt><trkpt lat="44.368622057487464" lon="8.32475874687497"><ele>364.66666666666663</ele><time>2026-04-03T14:48:49.001Z</time></trkpt><trkpt lat="44.36879084764845" lon="8.324727013352897"><ele>362.3333333333333</ele><time>2026-04-03T14:48:50.001Z</time></trkpt><trkpt lat="44.368944635709816" lon="8.324700799149735"><ele>360.0</ele><time>2026-04-03T14:48:51.001Z</time></trkpt><trkpt lat="44.36909137039835" lon="8.324673891026784"><ele>359.75</ele><time>2026-04-03T14:48:52.001Z</time></trkpt><trkpt lat="44.36923803332953" lon="8.32463348768309"><ele>359.5</ele><time>2026-04-03T14:48:53.001Z</time></trkpt><trkpt lat="44.36937535805027" lon="8.324564546775049"><ele>359.25</ele><time>2026-04-03T14:48:54.001Z</time></trkpt><trkpt lat="44.36950379739282" lon="8.324475926704693"><ele>359.0</ele><time>2026-04-03T14:48:55.001Z</time></trkpt><trkpt lat="44.36961901791087" lon="8.324361225794153"><ele>360.75</ele><time>2026-04-03T14:48:56.001Z</time></trkpt><trkpt lat="44.369718527976175" lon="8.324217228396602"><ele>362.5</ele><time>2026-04-03T14:48:57.001Z</time></trkpt><trkpt lat="44.36980101572487" lon="8.324051488828793"><ele>364.25</ele><time>2026-04-03T14:48:58.001Z</time></trkpt><trkpt lat="44.369862951782224" lon="8.323860718400999"><ele>366.0</ele><time>2026-04-03T14:48:59.001Z</time></trkpt><trkpt lat="44.369909587777094" lon="8.32365563528756"><ele>366.0</ele><time>2026-04-03T14:49:00.001Z</time></trkpt><trkpt lat="44.3699531119076" lon="8.323444740794281"><ele>366.0</ele><time>2026-04-03T14:49:01.001Z</time></trkpt><trkpt lat="44.37000589974282" lon="8.323223602485841"><ele>366.0</ele><time>2026-04-03T14:49:02.001Z</time></trkpt><trkpt lat="44.37005844938533" lon="8.323004977797096"><ele>364.5</ele><time>2026-04-03T14:49:03.001Z</time></trkpt><trkpt lat="44.37010545488104" lon="8.322815566950556"><ele>363.0</ele><time>2026-04-03T14:49:04.001Z</time></trkpt><trkpt lat="44.3701682856204" lon="8.322659829259972"><ele>361.5</ele><time>2026-04-03T14:49:05.001Z</time></trkpt><trkpt lat="44.37022059421123" lon="8.322506091328558"><ele>360.0</ele><time>2026-04-03T14:49:06.001Z</time></trkpt><trkpt lat="44.37030851717436" lon="8.322372613611778"><ele>360.0</ele><time>2026-04-03T14:49:07.001Z</time></trkpt><trkpt lat="44.37041074364166" lon="8.322274942093939"><ele>360.0</ele><time>2026-04-03T14:49:08.001Z</time></trkpt><trkpt lat="44.37052490052397" lon="8.322211073553765"><ele>360.0</ele><time>2026-04-03T14:49:09.001Z</time></trkpt><trkpt lat="44.37064358055895" lon="8.322188004646561"><ele>360.0</ele><time>2026-04-03T14:49:10.001Z</time></trkpt><trkpt lat="44.370765454105474" lon="8.322200777941665"><ele>362.5</ele><time>2026-04-03T14:49:11.001Z</time></trkpt><trkpt lat="44.37089267871454" lon="8.322240634898739"><ele>365.0</ele><time>2026-04-03T14:49:12.001Z</time></trkpt><trkpt lat="44.371031824269004" lon="8.32229620253703"><ele>367.5</ele><time>2026-04-03T14:49:13.001Z</time></trkpt><trkpt lat="44.371172265793646" lon="8.322329644769212"><ele>370.0</ele><time>2026-04-03T14:49:14.001Z</time></trkpt><trkpt lat="44.37131874107312" lon="8.322336027409158"><ele>369.0</ele><time>2026-04-03T14:49:15.001Z</time></trkpt><trkpt lat="44.371455878169954" lon="8.322305627803715"><ele>368.0</ele><time>2026-04-03T14:49:16.001Z</time></trkpt><trkpt lat="44.37158926091289" lon="8.322241137926131"><ele>367.0</ele><time>2026-04-03T14:49:17.001Z</time></trkpt><trkpt lat="44.37170689912182" lon="8.32213807220536"><ele>366.0</ele><time>2026-04-03T14:49:18.001Z</time></trkpt><trkpt lat="44.371817174873996" lon="8.322000714004616"><ele>366.0</ele><time>2026-04-03T14:49:19.001Z</time></trkpt><trkpt lat="44.37191887288331" lon="8.321847009050806"><ele>366.0</ele><time>2026-04-03T14:49:20.001Z</time></trkpt><trkpt lat="44.37201829854617" lon="8.321677939779672"><ele>366.0</ele><time>2026-04-03T14:49:21.001Z</time></trkpt><trkpt lat="44.37211555284426" lon="8.321506169430071"><ele>371.6666666666667</ele><time>2026-04-03T14:49:22.001Z</time></trkpt><trkpt lat="44.3722348062899" lon="8.321345839601044"><ele>377.33333333333337</ele><time>2026-04-03T14:49:23.001Z</time></trkpt><trkpt lat="44.37232758197134" lon="8.32114447030389"><ele>383.0</ele><time>2026-04-03T14:49:24.001Z</time></trkpt><trkpt lat="44.37241888646652" lon="8.320941621465458"><ele>383.0</ele><time>2026-04-03T14:49:25.001Z</time></trkpt><trkpt lat="44.37249399575395" lon="8.320711801042872"><ele>383.0</ele><time>2026-04-03T14:49:26.001Z</time></trkpt><trkpt lat="44.37255253861644" lon="8.32046292398301"><ele>383.0</ele><time>2026-04-03T14:49:27.001Z</time></trkpt><trkpt lat="44.37259426761676" lon="8.320192397095244"><ele>378.33333333333337</ele><time>2026-04-03T14:49:28.001Z</time></trkpt><trkpt lat="44.37262977512251" lon="8.319917882726077"><ele>373.6666666666667</ele><time>2026-04-03T14:49:29.001Z</time></trkpt><trkpt lat="44.372660054393386" lon="8.319641093097422"><ele>369.0</ele><time>2026-04-03T14:49:30.001Z</time></trkpt><trkpt lat="44.37267407880815" lon="8.319349150474059"><ele>368.3333333333333</ele><time>2026-04-03T14:49:31.001Z</time></trkpt><trkpt lat="44.372660218010104" lon="8.319050923008852"><ele>367.66666666666663</ele><time>2026-04-03T14:49:32.001Z</time></trkpt><trkpt lat="44.37262538987703" lon="8.318756309570547"><ele>367.0</ele><time>2026-04-03T14:49:33.001Z</time></trkpt><trkpt lat="44.37260976230848" lon="8.318476751330962"><ele>367.0</ele><time>2026-04-03T14:49:34.001Z</time></trkpt><trkpt lat="44.37258694174766" lon="8.318230696015924"><ele>367.0</ele><time>2026-04-03T14:49:35.001Z</time></trkpt><trkpt lat="44.37257006443019" lon="8.318017645359822"><ele>367.0</ele><time>2026-04-03T14:49:36.001Z</time></trkpt><trkpt lat="44.37256167038317" lon="8.317812749385787"><ele>366.3333333333333</ele><time>2026-04-03T14:49:37.001Z</time></trkpt><trkpt lat="44.372572576897795" lon="8.31761325945056"><ele>365.6666666666667</ele><time>2026-04-03T14:49:38.001Z</time></trkpt><trkpt lat="44.37260555682923" lon="8.31740961919267"><ele>365.0</ele><time>2026-04-03T14:49:39.001Z</time></trkpt><trkpt lat="44.37266457176344" lon="8.317204442973528"><ele>363.6666666666667</ele><time>2026-04-03T14:49:40.001Z</time></trkpt><trkpt lat="44.37273732627044" lon="8.316993155998533"><ele>362.3333333333333</ele><time>2026-04-03T14:49:41.001Z</time></trkpt><trkpt lat="44.372816866970446" lon="8.316768661024541"><ele>361.0</ele><time>2026-04-03T14:49:42.001Z</time></trkpt><trkpt lat="44.37290101502593" lon="8.31653064911273"><ele>363.0</ele><time>2026-04-03T14:49:43.001Z</time></trkpt><trkpt lat="44.37298725928672" lon="8.316280402284534"><ele>365.0</ele><time>2026-04-03T14:49:44.001Z</time></trkpt><trkpt lat="44.373076105368995" lon="8.316020372595169"><ele>367.0</ele><time>2026-04-03T14:49:45.001Z</time></trkpt><trkpt lat="44.37316709514094" lon="8.315754068912534"><ele>365.66666666666663</ele><time>2026-04-03T14:49:46.001Z</time></trkpt><trkpt lat="44.373260795592536" lon="8.315479831772823"><ele>364.3333333333333</ele><time>2026-04-03T14:49:47.001Z</time></trkpt><trkpt lat="44.37335688840958" lon="8.315198592689145"><ele>363.0</ele><time>2026-04-03T14:49:48.001Z</time></trkpt><trkpt lat="44.37345602168601" lon="8.314913032043199"><ele>359.5</ele><time>2026-04-03T14:49:49.001Z</time></trkpt><trkpt lat="44.37356324789427" lon="8.314624581505244"><ele>356.0</ele><time>2026-04-03T14:49:50.001Z</time></trkpt><trkpt lat="44.37367139326683" lon="8.314335348882192"><ele>356.0</ele><time>2026-04-03T14:49:51.001Z</time></trkpt><trkpt lat="44.37377981202485" lon="8.314045385144352"><ele>356.0</ele><time>2026-04-03T14:49:52.001Z</time></trkpt><trkpt lat="44.3738853217638" lon="8.31376388024435"><ele>354.33333333333337</ele><time>2026-04-03T14:49:53.001Z</time></trkpt><trkpt lat="44.37398153603352" lon="8.313507826169102"><ele>352.6666666666667</ele><time>2026-04-03T14:49:54.001Z</time></trkpt><trkpt lat="44.3740716031117" lon="8.313269391098517"><ele>351.0</ele><time>2026-04-03T14:49:55.001Z</time></trkpt><trkpt lat="44.37415634741472" lon="8.313041323710886"><ele>351.0</ele><time>2026-04-03T14:49:56.001Z</time></trkpt><trkpt lat="44.37423694443482" lon="8.312820877160373"><ele>351.0</ele><time>2026-04-03T14:49:57.001Z</time></trkpt><trkpt lat="44.37430309044463" lon="8.31259374311367"><ele>351.0</ele><time>2026-04-03T14:49:58.001Z</time></trkpt><trkpt lat="44.374383384320524" lon="8.312386397410204"><ele>351.0</ele><time>2026-04-03T14:49:59.001Z</time></trkpt><trkpt lat="44.374459239193676" lon="8.3121804427636"><ele>351.0</ele><time>2026-04-03T14:50:00.001Z</time></trkpt><trkpt lat="44.374530469503796" lon="8.311975927307163"><ele>351.0</ele><time>2026-04-03T14:50:01.001Z</time></trkpt><trkpt lat="44.37459385289065" lon="8.311761094560968"><ele>351.0</ele><time>2026-04-03T14:50:02.001Z</time></trkpt><trkpt lat="44.37464767495452" lon="8.311540614697947"><ele>351.0</ele><time>2026-04-03T14:50:03.001Z</time></trkpt><trkpt lat="44.374712974339204" lon="8.311329613023217"><ele>351.0</ele><time>2026-04-03T14:50:04.001Z</time></trkpt><trkpt lat="44.37476387549464" lon="8.311107198566921"><ele>352.3333333333333</ele><time>2026-04-03T14:50:05.001Z</time></trkpt><trkpt lat="44.37482151655069" lon="8.310875398066353"><ele>353.66666666666663</ele><time>2026-04-03T14:50:06.001Z</time></trkpt><trkpt lat="44.374858760904324" lon="8.310624707712407"><ele>355.0</ele><time>2026-04-03T14:50:07.001Z</time></trkpt><trkpt lat="44.374852479726336" lon="8.310370135467952"><ele>356.66666666666663</ele><time>2026-04-03T14:50:08.001Z</time></trkpt><trkpt lat="44.37485249176161" lon="8.310108593909424"><ele>358.3333333333333</ele><time>2026-04-03T14:50:09.001Z</time></trkpt><trkpt lat="44.37484850219404" lon="8.309836472041647"><ele>360.0</ele><time>2026-04-03T14:50:10.001Z</time></trkpt><trkpt lat="44.37485185146516" lon="8.309560282413127"><ele>360.0</ele><time>2026-04-03T14:50:11.001Z</time></trkpt><trkpt lat="44.37485649769963" lon="8.309272862690486"><ele>360.0</ele><time>2026-04-03T14:50:12.001Z</time></trkpt><trkpt lat="44.37485910641058" lon="8.308989181223824"><ele>360.0</ele><time>2026-04-03T14:50:13.001Z</time></trkpt><trkpt lat="44.37489240166895" lon="8.308736327055408"><ele>358.0</ele><time>2026-04-03T14:50:14.001Z</time></trkpt><trkpt lat="44.3749043118042" lon="8.308495180229674"><ele>356.0</ele><time>2026-04-03T14:50:15.001Z</time></trkpt><trkpt lat="44.37493106390977" lon="8.308250835952675"><ele>354.0</ele><time>2026-04-03T14:50:16.001Z</time></trkpt><trkpt lat="44.37497872747389" lon="8.308018654059332"><ele>353.25</ele><time>2026-04-03T14:50:17.001Z</time></trkpt><trkpt lat="44.37501549181103" lon="8.307797684385614"><ele>352.5</ele><time>2026-04-03T14:50:18.001Z</time></trkpt><trkpt lat="44.375059215973586" lon="8.307602365256795"><ele>351.75</ele><time>2026-04-03T14:50:19.001Z</time></trkpt><trkpt lat="44.37508720739202" lon="8.307415686910518"><ele>351.0</ele><time>2026-04-03T14:50:20.001Z</time></trkpt><trkpt lat="44.375116137779635" lon="8.307243082237129"><ele>350.75</ele><time>2026-04-03T14:50:21.001Z</time></trkpt><trkpt lat="44.37511564887418" lon="8.307066535242141"><ele>350.5</ele><time>2026-04-03T14:50:22.001Z</time></trkpt><trkpt lat="44.375090432146465" lon="8.306882495261062"><ele>350.25</ele><time>2026-04-03T14:50:23.001Z</time></trkpt><trkpt lat="44.3750573354839" lon="8.306691937763262"><ele>350.0</ele><time>2026-04-03T14:50:24.001Z</time></trkpt><trkpt lat="44.375028935139134" lon="8.30649340533272"><ele>349.33333333333337</ele><time>2026-04-03T14:50:25.001Z</time></trkpt><trkpt lat="44.37500113146145" lon="8.306279222023004"><ele>348.6666666666667</ele><time>2026-04-03T14:50:26.001Z</time></trkpt><trkpt lat="44.3749796948034" lon="8.306055135955722"><ele>348.0</ele><time>2026-04-03T14:50:27.001Z</time></trkpt><trkpt lat="44.37496993271592" lon="8.305832606819218"><ele>348.0</ele><time>2026-04-03T14:50:28.001Z</time></trkpt><trkpt lat="44.37496866282281" lon="8.305636023640536"><ele>348.0</ele><time>2026-04-03T14:50:29.001Z</time></trkpt><trkpt lat="44.3749618644701" lon="8.305445240367655"><ele>348.0</ele><time>2026-04-03T14:50:30.001Z</time></trkpt><trkpt lat="44.37497652898926" lon="8.30525286993323"><ele>348.0</ele><time>2026-04-03T14:50:31.001Z</time></trkpt><trkpt lat="44.37499495485963" lon="8.305052647739634"><ele>347.75</ele><time>2026-04-03T14:50:32.001Z</time></trkpt><trkpt lat="44.37501582665476" lon="8.304849780242714"><ele>347.5</ele><time>2026-04-03T14:50:33.001Z</time></trkpt><trkpt lat="44.37504320462672" lon="8.304646622163528"><ele>347.25</ele><time>2026-04-03T14:50:34.001Z</time></trkpt><trkpt lat="44.375075655365485" lon="8.30444028405817"><ele>347.0</ele><time>2026-04-03T14:50:35.001Z</time></trkpt><trkpt lat="44.37510755869442" lon="8.304234044217473"><ele>347.0</ele><time>2026-04-03T14:50:36.001Z</time></trkpt><trkpt lat="44.37514996270663" lon="8.304034003819174"><ele>347.0</ele><time>2026-04-03T14:50:37.001Z</time></trkpt><trkpt lat="44.375164755522874" lon="8.303824931707894"><ele>347.0</ele><time>2026-04-03T14:50:38.001Z</time></trkpt><trkpt lat="44.37519845375052" lon="8.303603906437486"><ele>347.0</ele><time>2026-04-03T14:50:39.001Z</time></trkpt><trkpt lat="44.375232983189726" lon="8.30338438493656"><ele>347.0</ele><time>2026-04-03T14:50:40.001Z</time></trkpt><trkpt lat="44.375266321245924" lon="8.303159991167927"><ele>347.0</ele><time>2026-04-03T14:50:41.001Z</time></trkpt><trkpt lat="44.37529994870643" lon="8.302934917086711"><ele>347.0</ele><time>2026-04-03T14:50:42.001Z</time></trkpt><trkpt lat="44.375334979511635" lon="8.302708544720378"><ele>347.0</ele><time>2026-04-03T14:50:43.001Z</time></trkpt><trkpt lat="44.375370919663055" lon="8.30248111434212"><ele>347.0</ele><time>2026-04-03T14:50:44.001Z</time></trkpt><trkpt lat="44.375405072814914" lon="8.302254619001015"><ele>347.0</ele><time>2026-04-03T14:50:45.001Z</time></trkpt><trkpt lat="44.375459109360065" lon="8.302032042041569"><ele>347.0</ele><time>2026-04-03T14:50:46.001Z</time></trkpt><trkpt lat="44.375494493415076" lon="8.301800767339559"><ele>347.0</ele><time>2026-04-03T14:50:47.001Z</time></trkpt><trkpt lat="44.3754960653903" lon="8.301560195375616"><ele>347.0</ele><time>2026-04-03T14:50:48.001Z</time></trkpt><trkpt lat="44.3755088391209" lon="8.301324288712888"><ele>347.0</ele><time>2026-04-03T14:50:49.001Z</time></trkpt><trkpt lat="44.37551329421006" lon="8.301084620879017"><ele>347.0</ele><time>2026-04-03T14:50:50.001Z</time></trkpt><trkpt lat="44.375515387880796" lon="8.300842437676105"><ele>347.33333333333337</ele><time>2026-04-03T14:50:51.001Z</time></trkpt><trkpt lat="44.37552122068093" lon="8.300599493707134"><ele>347.6666666666667</ele><time>2026-04-03T14:50:52.001Z</time></trkpt><trkpt lat="44.37552617029438" lon="8.30035297437829"><ele>348.0</ele><time>2026-04-03T14:50:53.001Z</time></trkpt><trkpt lat="44.37555518381824" lon="8.300114387771353"><ele>348.3333333333333</ele><time>2026-04-03T14:50:54.001Z</time></trkpt><trkpt lat="44.37556939779877" lon="8.299887742468457"><ele>348.66666666666663</ele><time>2026-04-03T14:50:55.001Z</time></trkpt><trkpt lat="44.375586567503866" lon="8.299657257590768"><ele>349.0</ele><time>2026-04-03T14:50:56.001Z</time></trkpt><trkpt lat="44.375602809570175" lon="8.299428797124339"><ele>349.3333333333333</ele><time>2026-04-03T14:50:57.001Z</time></trkpt><trkpt lat="44.37561915847782" lon="8.299198834453293"><ele>349.6666666666667</ele><time>2026-04-03T14:50:58.001Z</time></trkpt><trkpt lat="44.37563430295766" lon="8.298969682307204"><ele>350.0</ele><time>2026-04-03T14:50:59.001Z</time></trkpt><trkpt lat="44.37564919685604" lon="8.298748377763422"><ele>350.0</ele><time>2026-04-03T14:51:00Z</time></trkpt><trkpt lat="44.37566329638872" lon="8.29853887853764"><ele>350.0</ele><time>2026-04-03T14:51:01Z</time></trkpt><trkpt lat="44.3756679856462" lon="8.298330216514172"><ele>350.0</ele><time>2026-04-03T14:51:02Z</time></trkpt><trkpt lat="44.37566597050753" lon="8.298126713512938"><ele>350.0</ele><time>2026-04-03T14:51:03Z</time></trkpt><trkpt lat="44.3756473697743" lon="8.297921189250651"><ele>351.0</ele><time>2026-04-03T14:51:04.001Z</time></trkpt><trkpt lat="44.375611810352815" lon="8.297713068073946"><ele>352.0</ele><time>2026-04-03T14:51:05.001Z</time></trkpt><trkpt lat="44.37559116931273" lon="8.297501913455566"><ele>353.0</ele><time>2026-04-03T14:51:06Z</time></trkpt><trkpt lat="44.375569477393576" lon="8.297292766126544"><ele>352.6666666666667</ele><time>2026-04-03T14:51:07Z</time></trkpt><trkpt lat="44.375549132727905" lon="8.297084501905005"><ele>352.3333333333333</ele><time>2026-04-03T14:51:08.001Z</time></trkpt><trkpt lat="44.375527451608725" lon="8.296871439470081"><ele>352.0</ele><time>2026-04-03T14:51:09.001Z</time></trkpt><trkpt lat="44.375510602415005" lon="8.296651887923414"><ele>352.0</ele><time>2026-04-03T14:51:10.001Z</time></trkpt><trkpt lat="44.375489705584414" lon="8.296436701616457"><ele>352.0</ele><time>2026-04-03T14:51:11.001Z</time></trkpt><trkpt lat="44.37547543690687" lon="8.29621576375952"><ele>352.0</ele><time>2026-04-03T14:51:12.001Z</time></trkpt><trkpt lat="44.37548152252503" lon="8.295984152028312"><ele>352.0</ele><time>2026-04-03T14:51:13.001Z</time></trkpt><trkpt lat="44.375473699841365" lon="8.295765910259288"><ele>352.0</ele><time>2026-04-03T14:51:14.001Z</time></trkpt></trkseg></trk></gpx>